Dirección General De Aeronáutica Civil

Dirección Meteorológica de Chile - Servicios Climáticos

Informe General de Control de Calidad de la Estación

Listado de niveles de control de calidad para algunos parámetros
Estación Vallenar, Ad. (280003)
Fecha de Revisión de los datos :

Elementos

Registros Niveles de Control Total
Nivel 0 Nivel 1 Nivel 2 Nivel 3 Errores Porcentaje
01 Temperatura del Aire Seco 202.644 0 . 324 0.16 % 0 . 0 . 324 0.16 %
02 Temperatura de Rocío 198.790 2 0.00 % 0 . 0 . 0 . 2 0.00 %
03 Humedad Relativa del Aire 194.864 0 . 0 . 0 . 0 . 0 0.00 %
04 Temperatura Máxima PM 17.918 0 . 0 . 393 2.19 % 0 . 393 2.19 %
05 Temperatura Mínima AM 18.135 0 . 0 . 313 1.73 % 0 . 313 1.73 %
06 Viento a 10 m. de Altura 202.916 1 0.00 % 2 0.00 % 12 0.01 % 0 . 15 0.01 %
07 Agua Caida, Acumulada 6 Horas 63.873 0 . 20 0.03 % 0 . 0 . 20 0.03 %
08 Presión Atm. a Nivel de Estación (QFE) 189.209 0 . 0 . 0 . 0 . 0 0.00 %
09 Presión Atm. a Nivel Medio del Mar (QFF) 190.184 1 0.00 % 0 . 0 . 0 . 1 0.00 %
10 Presión Atm. Estándar OACI (QNH) 108.267 0 . 0 . 0 . 0 . 0 0.00 %
11 Tiempo Pasado Sinóptico 85.375 0 . 0 . 0 . 0 . 0 0.00 %
12 Tiempo Presente Sinóptico 114.931 0 . 32 0.03 % 0 . 0 . 32 0.03 %

Totales

1.587.106 . 0.0003 % . 0.0238 % . 0.0452 % . 0.0000 % 1,100 0.0693 %

Detalle de Errores Encontrados

Nivel Fecha del Dato Descripción Información Error Fecha Ingreso
0 1952-12-18 22:00:00 qff (Presión a nivel del Mar) debe ser numérico, entre 300 y 1100 105.3 2014-06-04 19:13:00
0 1969-03-12 20:00:00 Td (Temperatura Del Punto de Rocio) debe ser numérico, entre -50.0 y 50.0 -54.3
0 1972-01-29 18:00:00 Td (Temperatura Del Punto de Rocio) debe ser numérico, entre -50.0 y 50.0 -56.1
0 1975-05-18 03:00:00 ff (Intensidad del Viento) debe ser numerico, entre 0 y 70 kt. 102 2013-05-01 10:11:00
Errores del Nivel 4
Nivel Fecha del Dato Descripción Información Error Fecha Ingreso
1 1952-12-18 23:00:00 Viento calma fue mal ingresado. dd = 270 - ff = 0 2014-06-04 19:13:00
1 1954-08-26 17:00:00 Viento calma fue mal ingresado. dd = 0 - ff = 2 2012-10-03 12:15:00
1 1952-02-17 14:00:00 Ts debe ser mayor o igual a Td Ts=25.0 - Td=25.4 2014-05-08 14:34:00
1 1952-02-19 09:00:00 Ts debe ser mayor o igual a Td Ts=13.3 - Td=13.4 2014-05-08 15:21:00
1 1952-02-24 07:00:00 HR (Humedad Relativa) es igual a 100% y Ts <> Td 13.6 - 13.1 2014-05-08 16:39:00
1 1952-03-03 17:00:00 Ts debe ser mayor o igual a Td Ts=23.8 - Td=23.9 2014-05-08 21:32:00
1 1952-03-28 17:00:00 Ts debe ser mayor o igual a Td Ts=3.0 - Td=13.6 2014-05-13 16:54:00
1 1952-04-11 08:00:00 HR (Humedad Relativa) es igual a 100% y Ts <> Td 10.5 - 10.1 2014-05-14 13:33:00
1 1952-04-11 09:00:00 HR (Humedad Relativa) es igual a 100% y Ts <> Td 11.4 - 11.1 2014-05-14 13:33:00
1 1952-04-14 18:00:00 Ts debe ser mayor o igual a Td Ts=10.0 - Td=12.4 2014-05-14 14:12:00
1 1952-04-25 10:00:00 HR (Humedad Relativa) es igual a 100% y Ts <> Td 9.7 - 9.4 2014-05-14 19:07:00
1 1952-05-16 19:00:00 Ts debe ser mayor o igual a Td Ts=13.2 - Td=15.4 2014-05-16 15:51:00
1 1952-05-24 07:00:00 Ts debe ser mayor o igual a Td Ts=8.0 - Td=8.1 2014-05-16 18:12:00
1 1952-09-29 06:00:00 HR (Humedad Relativa) es igual a 100% y Ts <> Td 9.8 - 9.3 2014-05-29 20:06:00
1 1957-01-03 18:00:00 Ts debe ser mayor o igual a Td Ts=25.3 - Td=40.9 2013-04-30 19:18:00
1 1957-01-05 21:00:00 Ts debe ser mayor o igual a Td Ts=13.5 - Td=18.7 2013-04-30 19:18:00
1 1957-01-20 12:00:00 Ts debe ser mayor o igual a Td Ts=12.9 - Td=13.1 2013-04-30 19:18:00
1 1957-02-06 15:00:00 Ts debe ser mayor o igual a Td Ts=22.9 - Td=28.2 2013-04-30 19:18:00
1 1957-05-14 21:00:00 Ts debe ser mayor o igual a Td Ts=17.5 - Td=40.9 2013-04-30 19:19:00
1 1957-06-19 12:00:00 Ts debe ser mayor o igual a Td Ts=7.0 - Td=21.6 2013-04-30 19:19:00
1 1957-07-09 21:00:00 Ts debe ser mayor o igual a Td Ts=11.2 - Td=14.0 2013-04-30 19:19:00
1 1957-07-10 12:00:00 Ts debe ser mayor o igual a Td Ts=5.6 - Td=10.9 2013-04-30 19:19:00
1 1957-08-05 09:00:00 Ts debe ser mayor o igual a Td Ts=6.0 - Td=7.7 2013-04-30 19:19:00
1 1957-08-31 12:00:00 Ts debe ser mayor o igual a Td Ts=0.8 - Td=6.8 2013-04-30 19:19:00
1 1957-12-09 06:00:00 Ts debe ser mayor o igual a Td Ts=11.8 - Td=13.4 2013-04-30 19:19:00
1 1958-01-09 09:00:00 Ts debe ser mayor o igual a Td Ts=12.0 - Td=13.3 2013-04-30 19:20:00
1 1958-03-31 09:00:00 Ts debe ser mayor o igual a Td Ts=12.0 - Td=12.5 2013-04-30 19:20:00
1 1958-04-28 12:00:00 Ts debe ser mayor o igual a Td Ts=0.8 - Td=14.4 2013-04-30 19:20:00
1 1958-06-25 09:00:00 Ts debe ser mayor o igual a Td Ts=5.7 - Td=7.2 2013-04-30 19:20:00
1 1958-07-18 15:00:00 Ts debe ser mayor o igual a Td Ts=8.6 - Td=8.8 2013-04-30 19:21:00
1 1958-10-07 06:00:00 Ts debe ser mayor o igual a Td Ts=19.8 - Td=40.9 2013-04-30 19:21:00
1 1958-10-13 09:00:00 Ts debe ser mayor o igual a Td Ts=8.0 - Td=8.6 2013-04-30 19:21:00
1 1958-10-29 21:00:00 Ts debe ser mayor o igual a Td Ts=19.5 - Td=40.9 2013-04-30 19:21:00
1 1958-11-01 18:00:00 Ts debe ser mayor o igual a Td Ts=21.2 - Td=40.9 2013-04-30 19:21:00
1 1958-11-02 06:00:00 Ts debe ser mayor o igual a Td Ts=1.2 - Td=17.0 2013-04-30 19:21:00
1 1958-11-03 12:00:00 Ts debe ser mayor o igual a Td Ts=13.0 - Td=40.9 2013-04-30 19:21:00
1 1959-01-02 15:00:00 Ts debe ser mayor o igual a Td Ts=14.8 - Td=19.2 2013-04-30 19:21:00
1 1959-09-10 12:00:00 Ts debe ser mayor o igual a Td Ts=0.8 - Td=15.3 2013-04-30 19:22:00
1 1959-10-12 15:00:00 Ts debe ser mayor o igual a Td Ts=15.1 - Td=16.5 2013-04-30 19:22:00
1 1959-10-23 21:00:00 Ts debe ser mayor o igual a Td Ts=12.0 - Td=15.8 2013-04-30 19:22:00
1 1960-01-04 15:00:00 Ts debe ser mayor o igual a Td Ts=21.2 - Td=40.9 2013-04-30 19:22:00
1 1960-02-29 15:00:00 Ts debe ser mayor o igual a Td Ts=15.2 - Td=16.1 2013-04-30 19:22:00
1 1960-03-13 12:00:00 Ts debe ser mayor o igual a Td Ts=10.7 - Td=13.7 2013-04-30 19:22:00
1 1960-04-26 15:00:00 Ts debe ser mayor o igual a Td Ts=12.0 - Td=19.4 2013-04-30 19:23:00
1 1960-06-27 15:00:00 Ts debe ser mayor o igual a Td Ts=1.8 - Td=12.7 2013-04-30 19:23:00
1 1960-07-04 21:00:00 Ts debe ser mayor o igual a Td Ts=8.2 - Td=13.8 2013-04-30 19:23:00
1 1960-07-29 15:00:00 Ts debe ser mayor o igual a Td Ts=6.5 - Td=8.2 2013-04-30 19:23:00
1 1960-09-05 12:00:00 Ts debe ser mayor o igual a Td Ts=7.0 - Td=7.2 2013-04-30 19:23:00
1 1960-09-25 21:00:00 Ts debe ser mayor o igual a Td Ts=22.8 - Td=40.9 2013-04-30 19:23:00
1 1960-12-05 18:00:00 Ts debe ser mayor o igual a Td Ts=13.6 - Td=19.0 2013-04-30 19:23:00
1 1961-01-30 18:00:00 Ts debe ser mayor o igual a Td Ts=15.8 - Td=19.3 2013-04-30 19:24:00
1 1961-03-31 12:00:00 Ts debe ser mayor o igual a Td Ts=8.7 - Td=11.3 2013-04-30 19:24:00
1 1961-04-16 15:00:00 Ts debe ser mayor o igual a Td Ts=36.0 - Td=40.9 2013-04-30 19:24:00
1 1961-06-12 12:00:00 Ts debe ser mayor o igual a Td Ts=6.0 - Td=19.6 2013-04-30 19:24:00
1 1961-06-14 12:00:00 Ts debe ser mayor o igual a Td Ts=0.0 - Td=2.3 2013-04-30 19:24:00
1 1961-07-02 12:00:00 Ts debe ser mayor o igual a Td Ts=0.2 - Td=2.0 2013-04-30 19:24:00
1 1961-07-13 12:00:00 Ts debe ser mayor o igual a Td Ts=0.7 - Td=8.5 2013-04-30 19:24:00
1 1961-12-10 12:00:00 Ts debe ser mayor o igual a Td Ts=9.9 - Td=13.7 2013-04-30 19:24:00
1 1961-12-22 18:00:00 Ts debe ser mayor o igual a Td Ts=12.8 - Td=18.0 2013-04-30 19:24:00
1 1962-01-03 15:00:00 Ts debe ser mayor o igual a Td Ts=14.5 - Td=17.5 2013-04-30 19:24:00
1 1962-01-24 15:00:00 Ts debe ser mayor o igual a Td Ts=14.2 - Td=15.5 2013-04-30 19:24:00
1 1962-07-01 12:00:00 Ts debe ser mayor o igual a Td Ts=3.8 - Td=5.8 2013-04-30 19:25:00
1 1962-07-03 21:00:00 Ts debe ser mayor o igual a Td Ts=4.8 - Td=14.8 2013-04-30 19:25:00
1 1962-07-08 12:00:00 Ts debe ser mayor o igual a Td Ts=6.6 - Td=7.4 2013-04-30 19:25:00
1 1962-07-08 15:00:00 Ts debe ser mayor o igual a Td Ts=8.8 - Td=11.9 2013-04-30 19:25:00
1 1962-07-08 18:00:00 Ts debe ser mayor o igual a Td Ts=8.5 - Td=14.9 2013-04-30 19:25:00
1 1962-07-08 21:00:00 Ts debe ser mayor o igual a Td Ts=7.8 - Td=16.1 2013-04-30 19:25:00
1 1962-07-31 12:00:00 Ts debe ser mayor o igual a Td Ts=4.8 - Td=5.2 2013-04-30 19:25:00
1 1962-08-03 12:00:00 Ts debe ser mayor o igual a Td Ts=8.2 - Td=8.9 2013-04-30 19:25:00
1 1962-10-19 12:00:00 Ts debe ser mayor o igual a Td Ts=8.8 - Td=9.5 2013-04-30 19:25:00
1 1963-05-30 21:00:00 Ts debe ser mayor o igual a Td Ts=15.6 - Td=40.9 2013-04-30 19:26:00
1 1963-10-21 21:00:00 Ts debe ser mayor o igual a Td Ts=2.1 - Td=23.4 2013-04-30 19:26:00
1 1964-01-11 12:00:00 Ts debe ser mayor o igual a Td Ts=11.8 - Td=15.0 2013-04-30 19:26:00
1 1964-04-03 18:00:00 Ts debe ser mayor o igual a Td Ts=13.0 - Td=19.4 2013-04-30 19:26:00
1 1964-04-15 18:00:00 Ts debe ser mayor o igual a Td Ts=22.1 - Td=40.9 2013-04-30 19:27:00
1 1964-05-29 15:00:00 Ts debe ser mayor o igual a Td Ts=29.4 - Td=40.9 2013-04-30 19:27:00
1 1965-05-12 12:00:00 Ts debe ser mayor o igual a Td Ts=9.8 - Td=10.2 2013-04-30 19:27:00
1 1965-06-25 21:00:00 Ts debe ser mayor o igual a Td Ts=13.0 - Td=13.7 2013-04-30 19:27:00
1 1965-07-14 18:00:00 Ts debe ser mayor o igual a Td Ts=15.0 - Td=40.9 2013-04-30 19:27:00
1 1965-08-14 18:00:00 Ts debe ser mayor o igual a Td Ts=2.2 - Td=22.4 2013-04-30 19:27:00
1 1965-08-20 15:00:00 Ts debe ser mayor o igual a Td Ts=22.2 - Td=40.9 2013-04-30 19:27:00
1 1966-01-11 12:00:00 Ts debe ser mayor o igual a Td Ts=12.2 - Td=19.4 2013-04-30 19:28:00
1 1966-01-31 15:00:00 Ts debe ser mayor o igual a Td Ts=10.6 - Td=17.5 2013-04-30 19:28:00
1 1966-04-02 12:00:00 Ts debe ser mayor o igual a Td Ts=10.2 - Td=11.6 2013-04-30 19:28:00
1 1966-05-22 18:00:00 Ts debe ser mayor o igual a Td Ts=22.0 - Td=40.9 2013-04-30 19:28:00
1 1966-05-29 12:00:00 Ts debe ser mayor o igual a Td Ts=4.6 - Td=5.4 2013-04-30 19:28:00
1 1966-07-05 18:00:00 Ts debe ser mayor o igual a Td Ts=13.2 - Td=22.3 2013-04-30 19:28:00
1 1966-07-22 18:00:00 Ts debe ser mayor o igual a Td Ts=19.2 - Td=19.5 2013-04-30 19:29:00
1 1966-08-10 12:00:00 Ts debe ser mayor o igual a Td Ts=3.4 - Td=9.6 2013-04-30 19:29:00
1 1966-09-24 00:00:00 Ts debe ser mayor o igual a Td Ts=10.2 - Td=22.8 2013-04-30 19:29:00
1 1967-01-25 18:00:00 Ts debe ser mayor o igual a Td Ts=12.0 - Td=19.4 2013-04-30 19:29:00
1 1967-03-03 21:00:00 Ts debe ser mayor o igual a Td Ts=2.2 - Td=23.2 2013-04-30 19:29:00
1 1967-05-06 12:00:00 Ts debe ser mayor o igual a Td Ts=9.0 - Td=11.6 2013-04-30 19:30:00
1 1967-05-22 15:00:00 Ts debe ser mayor o igual a Td Ts=19.0 - Td=40.9 2013-04-30 19:30:00
1 1967-08-05 18:00:00 Ts debe ser mayor o igual a Td Ts=21.8 - Td=23.5 2013-04-30 19:30:00
1 1967-09-04 12:00:00 Ts debe ser mayor o igual a Td Ts=0.6 - Td=9.4 2013-04-30 19:30:00
1 1967-10-23 12:00:00 Ts debe ser mayor o igual a Td Ts=0.6 - Td=12.9 2013-04-30 19:30:00
1 1967-10-31 15:00:00 Ts debe ser mayor o igual a Td Ts=11.7 - Td=19.1 2013-04-30 19:30:00
1 1968-02-04 12:00:00 Ts debe ser mayor o igual a Td Ts=11.6 - Td=14.8 2013-04-30 19:31:00
1 1968-02-08 18:00:00 Ts debe ser mayor o igual a Td Ts=12.4 - Td=20.6 2013-04-30 19:31:00
1 1968-02-18 06:00:00 Ts debe ser mayor o igual a Td Ts=6.6 - Td=18.1 2013-04-30 19:31:00
1 1968-02-22 12:00:00 Ts debe ser mayor o igual a Td Ts=11.8 - Td=12.0 2013-04-30 19:31:00
1 1968-02-26 18:00:00 Ts debe ser mayor o igual a Td Ts=3.0 - Td=24.5 2013-04-30 19:31:00
1 1968-02-27 09:00:00 Ts debe ser mayor o igual a Td Ts=13.2 - Td=14.8 2013-04-30 19:31:00
1 1968-03-11 12:00:00 Ts debe ser mayor o igual a Td Ts=12.0 - Td=13.3 2013-04-30 19:31:00
1 1968-03-31 12:00:00 Ts debe ser mayor o igual a Td Ts=7.5 - Td=8.1 2013-04-30 19:31:00
1 1968-04-23 21:00:00 Ts debe ser mayor o igual a Td Ts=11.7 - Td=14.1 2013-04-30 19:31:00
1 1968-04-24 00:00:00 Ts debe ser mayor o igual a Td Ts=10.4 - Td=12.8 2013-04-30 19:31:00
1 1968-05-08 09:00:00 Ts debe ser mayor o igual a Td Ts=6.5 - Td=7.1 2013-04-30 19:31:00
1 1968-05-11 18:00:00 Ts debe ser mayor o igual a Td Ts=2.4 - Td=20.2 2013-04-30 19:31:00
1 1968-05-31 12:00:00 Ts debe ser mayor o igual a Td Ts=6.8 - Td=9.0 2013-04-30 19:31:00
1 1968-05-31 15:00:00 Ts debe ser mayor o igual a Td Ts=6.4 - Td=9.7 2013-04-30 19:31:00
1 1968-05-31 18:00:00 Ts debe ser mayor o igual a Td Ts=7.8 - Td=13.2 2013-04-30 19:31:00
1 1968-05-31 21:00:00 Ts debe ser mayor o igual a Td Ts=6.8 - Td=13.8 2013-04-30 19:31:00
1 1968-06-21 18:00:00 Ts debe ser mayor o igual a Td Ts=6.4 - Td=12.0 2013-04-30 19:31:00
1 1968-06-21 21:00:00 Ts debe ser mayor o igual a Td Ts=7.2 - Td=13.0 2013-04-30 19:31:00
1 1968-06-25 15:00:00 Ts debe ser mayor o igual a Td Ts=8.1 - Td=8.3 2013-04-30 19:31:00
1 1968-07-05 15:00:00 Ts debe ser mayor o igual a Td Ts=9.0 - Td=10.4 2013-04-30 19:32:00
1 1968-07-07 12:00:00 Ts debe ser mayor o igual a Td Ts=8.3 - Td=8.5 2013-04-30 19:32:00
1 1968-07-12 03:00:00 Ts debe ser mayor o igual a Td Ts=5.2 - Td=7.9 2013-04-30 19:32:00
1 1968-07-13 06:00:00 Ts debe ser mayor o igual a Td Ts=6.6 - Td=11.0 2013-04-30 19:32:00
1 1968-07-15 09:00:00 Ts debe ser mayor o igual a Td Ts=7.2 - Td=8.7 2013-04-30 19:32:00
1 1968-08-04 03:00:00 Ts debe ser mayor o igual a Td Ts=0.8 - Td=13.6 2013-04-30 19:32:00
1 1968-08-15 12:00:00 Ts debe ser mayor o igual a Td Ts=5.4 - Td=9.1 2013-04-30 19:32:00
1 1968-08-17 03:00:00 Ts debe ser mayor o igual a Td Ts=10.8 - Td=25.7 2013-04-30 19:32:00
1 1968-08-23 03:00:00 Ts debe ser mayor o igual a Td Ts=8.8 - Td=9.7 2013-04-30 19:32:00
1 1968-08-24 06:00:00 Ts debe ser mayor o igual a Td Ts=9.2 - Td=10.1 2013-04-30 19:32:00
1 1968-09-01 00:00:00 Ts debe ser mayor o igual a Td Ts=7.3 - Td=9.3 2013-04-30 19:32:00
1 1968-09-08 03:00:00 Ts debe ser mayor o igual a Td Ts=8.6 - Td=10.7 2013-04-30 19:32:00
1 1968-09-26 00:00:00 Ts debe ser mayor o igual a Td Ts=9.2 - Td=14.7 2013-04-30 19:32:00
1 1968-10-23 00:00:00 Ts debe ser mayor o igual a Td Ts=13.6 - Td=40.9 2013-04-30 19:32:00
1 1968-11-02 12:00:00 Ts debe ser mayor o igual a Td Ts=7.8 - Td=12.3 2013-04-30 19:32:00
1 1968-11-19 00:00:00 Ts debe ser mayor o igual a Td Ts=9.6 - Td=13.6 2013-04-30 19:32:00
1 1968-12-04 03:00:00 Ts debe ser mayor o igual a Td Ts=10.8 - Td=13.4 2013-04-30 19:32:00
1 1968-12-17 06:00:00 Ts debe ser mayor o igual a Td Ts=13.4 - Td=13.7 2013-04-30 19:32:00
1 1969-01-13 03:00:00 Ts debe ser mayor o igual a Td Ts=16.8 - Td=18.6 2013-04-30 19:33:00
1 1969-01-16 14:00:00 Ts debe ser mayor o igual a Td Ts=2.3 - Td=22.1 2013-04-30 19:33:00
1 1969-01-24 03:00:00 Ts debe ser mayor o igual a Td Ts=14.8 - Td=15.7 2013-04-30 19:33:00
1 1969-02-11 17:00:00 Ts debe ser mayor o igual a Td Ts=16.4 - Td=17.6 2013-04-30 19:33:00
1 1969-03-26 14:00:00 Ts debe ser mayor o igual a Td Ts=12.7 - Td=13.2 2013-04-30 19:34:00
1 1969-03-28 03:00:00 Ts debe ser mayor o igual a Td Ts=16.6 - Td=18.1 2013-04-30 19:34:00
1 1969-04-03 14:00:00 Ts debe ser mayor o igual a Td Ts=11.0 - Td=11.7 2013-04-30 19:34:00
1 1969-04-10 16:00:00 Ts debe ser mayor o igual a Td Ts=2.2 - Td=20.8 2013-04-30 19:34:00
1 1969-04-30 09:00:00 Ts debe ser mayor o igual a Td Ts=11.8 - Td=12.0 2013-04-30 19:34:00
1 1969-05-02 20:00:00 Ts debe ser mayor o igual a Td Ts=12.1 - Td=14.2 2013-04-30 19:34:00
1 1969-05-10 18:00:00 Ts debe ser mayor o igual a Td Ts=9.7 - Td=15.5 2013-04-30 19:34:00
1 1969-07-01 21:00:00 Ts debe ser mayor o igual a Td Ts=2.0 - Td=20.1 2013-04-30 19:35:00
1 1969-07-06 09:00:00 Ts debe ser mayor o igual a Td Ts=0.6 - Td=9.8 2013-04-30 19:35:00
1 1969-07-08 12:00:00 Ts debe ser mayor o igual a Td Ts=6.8 - Td=18.0 2013-04-30 19:35:00
1 1969-07-12 17:00:00 Ts debe ser mayor o igual a Td Ts=2.4 - Td=18.0 2013-04-30 19:35:00
1 1969-07-14 13:00:00 Ts debe ser mayor o igual a Td Ts=3.8 - Td=10.4 2013-04-30 19:35:00
1 1969-08-10 09:00:00 Ts debe ser mayor o igual a Td Ts=9.8 - Td=10.0 2013-04-30 19:35:00
1 1969-08-16 11:00:00 Ts debe ser mayor o igual a Td Ts=7.3 - Td=7.7 2013-04-30 19:35:00
1 1969-08-16 13:00:00 Ts debe ser mayor o igual a Td Ts=7.8 - Td=8.4 2013-04-30 19:35:00
1 1969-08-16 14:00:00 Ts debe ser mayor o igual a Td Ts=7.5 - Td=8.6 2013-04-30 19:35:00
1 1969-08-16 16:00:00 Ts debe ser mayor o igual a Td Ts=9.6 - Td=13.9 2013-04-30 19:35:00
1 1969-08-16 17:00:00 Ts debe ser mayor o igual a Td Ts=10.6 - Td=16.1 2013-04-30 19:35:00
1 1969-08-16 19:00:00 Ts debe ser mayor o igual a Td Ts=12.2 - Td=21.1 2013-04-30 19:35:00
1 1969-08-16 20:00:00 Ts debe ser mayor o igual a Td Ts=12.6 - Td=22.5 2013-04-30 19:35:00
1 1969-08-16 22:00:00 Ts debe ser mayor o igual a Td Ts=11.4 - Td=18.0 2013-04-30 19:35:00
1 1969-08-16 23:00:00 Ts debe ser mayor o igual a Td Ts=10.2 - Td=14.7 2013-04-30 19:35:00
1 1969-10-11 13:00:00 Ts debe ser mayor o igual a Td Ts=0.4 - Td=14.9 2013-04-30 19:36:00
1 1969-10-14 13:00:00 Ts debe ser mayor o igual a Td Ts=16.4 - Td=17.3 2013-04-30 19:36:00
1 1969-10-25 00:00:00 Ts debe ser mayor o igual a Td Ts=1.3 - Td=17.3 2013-04-30 19:36:00
1 1969-10-31 09:00:00 Ts debe ser mayor o igual a Td Ts=13.5 - Td=14.3 2013-04-30 19:36:00
1 1969-10-31 12:00:00 Ts debe ser mayor o igual a Td Ts=12.7 - Td=15.8 2013-04-30 19:36:00
1 1970-01-02 23:00:00 Ts debe ser mayor o igual a Td Ts=2.5 - Td=22.7 2013-04-30 19:37:00
1 1970-01-07 17:00:00 Ts debe ser mayor o igual a Td Ts=5.0 - Td=21.7 2013-04-30 19:37:00
1 1970-01-09 23:00:00 Ts debe ser mayor o igual a Td Ts=3.4 - Td=22.1 2013-04-30 19:37:00
1 1970-01-11 21:00:00 Ts debe ser mayor o igual a Td Ts=4.0 - Td=22.3 2013-04-30 19:37:00
1 1970-02-15 17:00:00 Ts debe ser mayor o igual a Td Ts=12.2 - Td=18.5 2013-04-30 19:38:00
1 1970-02-21 12:00:00 Ts debe ser mayor o igual a Td Ts=12.2 - Td=15.1 2013-04-30 19:38:00
1 1970-02-24 21:00:00 Ts debe ser mayor o igual a Td Ts=4.7 - Td=22.1 2013-04-30 19:38:00
1 1970-04-03 09:00:00 Ts debe ser mayor o igual a Td Ts=10.0 - Td=11.0 2013-04-30 19:38:00
1 1970-05-28 06:00:00 Ts debe ser mayor o igual a Td Ts=8.7 - Td=10.3 2013-04-30 19:39:00
1 1970-05-28 09:00:00 Ts debe ser mayor o igual a Td Ts=8.1 - Td=10.1 2013-04-30 19:39:00
1 1970-05-28 12:00:00 Ts debe ser mayor o igual a Td Ts=6.3 - Td=12.0 2013-04-30 19:39:00
1 1970-06-02 03:00:00 Ts debe ser mayor o igual a Td Ts=11.6 - Td=22.4 2013-04-30 19:39:00
1 1970-06-11 23:00:00 Ts debe ser mayor o igual a Td Ts=12.4 - Td=19.5 2013-04-30 19:39:00
1 1970-09-01 12:00:00 Ts debe ser mayor o igual a Td Ts=7.8 - Td=18.3 2013-04-30 19:39:00
1 1970-09-17 11:00:00 Ts debe ser mayor o igual a Td Ts=6.8 - Td=12.9 2013-04-30 19:40:00
1 1970-09-21 06:00:00 Ts debe ser mayor o igual a Td Ts=3.8 - Td=13.7 2013-04-30 19:40:00
1 1970-09-28 03:00:00 Ts debe ser mayor o igual a Td Ts=8.6 - Td=10.7 2013-04-30 19:40:00
1 1970-11-05 23:00:00 Ts debe ser mayor o igual a Td Ts=10.4 - Td=13.7 2013-04-30 19:40:00
1 1970-11-09 20:00:00 Ts debe ser mayor o igual a Td Ts=12.4 - Td=17.3 2013-04-30 19:40:00
1 1970-11-22 21:00:00 Ts debe ser mayor o igual a Td Ts=12.3 - Td=17.4 2013-04-30 19:40:00
1 1970-11-23 00:00:00 Ts debe ser mayor o igual a Td Ts=10.0 - Td=13.6 2013-04-30 19:40:00
1 1971-01-02 14:00:00 Ts debe ser mayor o igual a Td Ts=14.7 - Td=19.8 2013-04-30 19:41:00
1 1971-01-31 12:00:00 Ts debe ser mayor o igual a Td Ts=12.6 - Td=12.9 2013-04-30 19:41:00
1 1971-02-18 12:00:00 Ts debe ser mayor o igual a Td Ts=13.0 - Td=15.8 2013-04-30 19:41:00
1 1971-04-17 12:00:00 Ts debe ser mayor o igual a Td Ts=0.8 - Td=13.6 2013-04-30 19:42:00
1 1971-05-10 15:00:00 Ts debe ser mayor o igual a Td Ts=0.8 - Td=12.5 2013-04-30 19:42:00
1 1971-06-02 16:00:00 Ts debe ser mayor o igual a Td Ts=1.0 - Td=14.6 2013-04-30 19:43:00
1 1971-07-02 17:00:00 Ts debe ser mayor o igual a Td Ts=3.0 - Td=11.3 2013-04-30 19:43:00
1 1971-07-19 22:00:00 Ts debe ser mayor o igual a Td Ts=17.4 - Td=17.7 2013-04-30 19:43:00
1 1971-07-26 11:00:00 Ts debe ser mayor o igual a Td Ts=0.4 - Td=14.4 2013-04-30 19:43:00
1 1971-08-08 11:00:00 Ts debe ser mayor o igual a Td Ts=4.3 - Td=6.5 2013-04-30 19:43:00
1 1971-09-30 11:00:00 Ts debe ser mayor o igual a Td Ts=6.0 - Td=7.5 2013-04-30 19:44:00
1 1971-11-02 11:00:00 Ts debe ser mayor o igual a Td Ts=9.0 - Td=9.7 2013-04-30 19:44:00
1 1971-11-18 06:00:00 Ts debe ser mayor o igual a Td Ts=11.4 - Td=14.0 2013-04-30 19:45:00
1 1971-11-19 13:00:00 Ts debe ser mayor o igual a Td Ts=12.0 - Td=13.6 2013-04-30 19:45:00
1 1972-03-31 23:00:00 Ts debe ser mayor o igual a Td Ts=17.4 - Td=18.3 2013-04-30 19:46:00
1 1972-04-29 12:00:00 Ts debe ser mayor o igual a Td Ts=6.1 - Td=7.6 2013-04-30 19:46:00
1 1972-07-01 15:00:00 Ts debe ser mayor o igual a Td Ts=2.0 - Td=15.0 2013-04-30 19:47:00
1 1972-07-24 21:00:00 Ts debe ser mayor o igual a Td Ts=4.4 - Td=15.5 2013-04-30 19:47:00
1 1972-07-25 12:00:00 Ts debe ser mayor o igual a Td Ts=5.8 - Td=6.2 2013-04-30 19:47:00
1 1972-07-30 12:00:00 Ts debe ser mayor o igual a Td Ts=8.2 - Td=8.8 2013-04-30 19:47:00
1 1972-08-08 13:00:00 Ts debe ser mayor o igual a Td Ts=9.2 - Td=9.9 2013-04-30 19:47:00
1 1972-08-13 11:00:00 Ts debe ser mayor o igual a Td Ts=16.1 - Td=17.0 2013-04-30 19:48:00
1 1972-08-16 12:00:00 Ts debe ser mayor o igual a Td Ts=10.5 - Td=10.7 2013-04-30 19:48:00
1 1972-09-17 20:00:00 Ts debe ser mayor o igual a Td Ts=18.1 - Td=19.6 2013-04-30 19:48:00
1 1972-09-28 13:00:00 Ts debe ser mayor o igual a Td Ts=7.8 - Td=8.0 2013-04-30 19:48:00
1 1972-12-08 16:00:00 Ts debe ser mayor o igual a Td Ts=18.2 - Td=20.2 2013-04-30 19:49:00
1 1972-12-31 12:00:00 Ts debe ser mayor o igual a Td Ts=14.4 - Td=18.9 2013-04-30 19:49:00
1 1973-02-11 16:00:00 Ts debe ser mayor o igual a Td Ts=2.0 - Td=20.7 2013-04-30 19:49:00
1 1973-03-20 18:00:00 Ts debe ser mayor o igual a Td Ts=2.3 - Td=22.9 2013-04-30 19:50:00
1 1973-03-28 00:00:00 Ts debe ser mayor o igual a Td Ts=15.0 - Td=25.8 2013-04-30 19:50:00
1 1973-04-01 13:00:00 Ts debe ser mayor o igual a Td Ts=10.8 - Td=19.6 2013-04-30 19:50:00
1 1973-04-11 23:00:00 Ts debe ser mayor o igual a Td Ts=16.5 - Td=17.3 2013-04-30 19:50:00
1 1973-04-14 18:00:00 Ts debe ser mayor o igual a Td Ts=14.2 - Td=15.8 2013-04-30 19:50:00
1 1973-05-14 11:00:00 Ts debe ser mayor o igual a Td Ts=8.4 - Td=9.1 2013-04-30 19:50:00
1 1973-07-14 11:00:00 Ts debe ser mayor o igual a Td Ts=3.6 - Td=7.3 2013-04-30 19:51:00
1 1973-07-30 20:00:00 Ts debe ser mayor o igual a Td Ts=13.4 - Td=16.5 2013-04-30 19:51:00
1 1973-08-19 17:00:00 Ts debe ser mayor o igual a Td Ts=13.7 - Td=18.1 2013-04-30 19:51:00
1 1973-09-23 00:00:00 Ts debe ser mayor o igual a Td Ts=9.4 - Td=22.2 2013-04-30 19:52:00
1 1973-12-23 00:00:00 Ts debe ser mayor o igual a Td Ts=1.6 - Td=19.2 2013-04-30 19:53:00
1 1974-01-07 15:00:00 Ts debe ser mayor o igual a Td Ts=9.6 - Td=17.9 2013-04-30 19:53:00
1 1974-01-14 12:00:00 Ts debe ser mayor o igual a Td Ts=15.0 - Td=20.4 2013-04-30 19:53:00
1 1974-02-06 20:00:00 Ts debe ser mayor o igual a Td Ts=16.8 - Td=18.3 2013-04-30 19:53:00
1 1974-03-08 17:00:00 Ts debe ser mayor o igual a Td Ts=10.7 - Td=17.8 2013-04-30 19:53:00
1 1974-03-13 14:00:00 Ts debe ser mayor o igual a Td Ts=11.5 - Td=14.4 2013-04-30 19:54:00
1 1974-03-22 13:00:00 Ts debe ser mayor o igual a Td Ts=0.6 - Td=16.6 2013-04-30 19:54:00
1 1974-03-27 13:00:00 Ts debe ser mayor o igual a Td Ts=11.0 - Td=11.3 2013-04-30 19:54:00
1 1974-04-03 23:00:00 Ts debe ser mayor o igual a Td Ts=16.6 - Td=20.6 2013-04-30 19:54:00
1 1974-04-29 15:00:00 Ts debe ser mayor o igual a Td Ts=8.6 - Td=13.3 2013-04-30 19:54:00
1 1974-07-01 12:00:00 Ts debe ser mayor o igual a Td Ts=0.8 - Td=12.1 2013-04-30 19:54:00
1 1974-07-11 23:00:00 Ts debe ser mayor o igual a Td Ts=8.8 - Td=9.0 2013-04-30 19:55:00
1 1974-09-07 13:00:00 Ts debe ser mayor o igual a Td Ts=5.8 - Td=6.2 2013-04-30 19:55:00
1 1974-09-07 14:00:00 Ts debe ser mayor o igual a Td Ts=5.9 - Td=6.1 2013-04-30 19:55:00
1 1974-10-08 03:00:00 Ts debe ser mayor o igual a Td Ts=4.8 - Td=12.1 2013-04-30 19:56:00
1 1974-10-13 12:00:00 Ts debe ser mayor o igual a Td Ts=1.0 - Td=15.3 2013-04-30 19:56:00
1 1974-10-21 15:00:00 Ts debe ser mayor o igual a Td Ts=4.9 - Td=16.3 2013-04-30 19:56:00
1 1974-11-14 00:00:00 Ts debe ser mayor o igual a Td Ts=14.0 - Td=14.6 2013-04-30 19:56:00
1 1974-12-18 05:00:00 Ts debe ser mayor o igual a Td Ts=12.0 - Td=14.3 2013-04-30 19:57:00
1 1975-01-06 12:00:00 Ts debe ser mayor o igual a Td Ts=11.4 - Td=14.0 2013-04-30 19:57:00
1 1975-01-22 17:00:00 Ts debe ser mayor o igual a Td Ts=14.6 - Td=15.2 2013-04-30 19:57:00
1 1975-03-22 15:00:00 Ts debe ser mayor o igual a Td Ts=17.6 - Td=19.6 2013-04-30 19:58:00
1 1975-04-06 10:00:00 Ts debe ser mayor o igual a Td Ts=11.4 - Td=14.8 2013-04-30 19:58:00
1 1975-04-16 04:00:00 Ts debe ser mayor o igual a Td Ts=1.0 - Td=17.4 2013-04-30 19:59:00
1 1975-05-12 23:00:00 Ts debe ser mayor o igual a Td Ts=13.4 - Td=14.4 2013-04-30 19:59:00
1 1975-06-04 10:00:00 Ts debe ser mayor o igual a Td Ts=7.0 - Td=10.4 2013-04-30 19:59:00
1 1975-06-13 17:00:00 Ts debe ser mayor o igual a Td Ts=9.2 - Td=9.6 2013-04-30 20:00:00
1 1975-06-24 12:00:00 Ts debe ser mayor o igual a Td Ts=6.7 - Td=10.3 2013-04-30 20:00:00
1 1975-06-26 09:00:00 Ts debe ser mayor o igual a Td Ts=4.4 - Td=5.4 2013-04-30 20:00:00
1 1975-06-26 10:00:00 Ts debe ser mayor o igual a Td Ts=5.4 - Td=6.6 2013-04-30 20:00:00
1 1975-07-07 05:00:00 Ts debe ser mayor o igual a Td Ts=5.7 - Td=9.6 2013-04-30 20:00:00
1 1975-07-15 22:00:00 Ts debe ser mayor o igual a Td Ts=16.3 - Td=21.8 2013-04-30 20:00:00
1 1975-08-01 10:00:00 Ts debe ser mayor o igual a Td Ts=0.6 - Td=9.7 2013-04-30 20:00:00
1 1975-08-07 19:00:00 Ts debe ser mayor o igual a Td Ts=5.7 - Td=10.1 2013-04-30 20:01:00
1 1975-08-08 08:00:00 Ts debe ser mayor o igual a Td Ts=0.4 - Td=8.6 2013-04-30 20:01:00
1 1975-08-17 20:00:00 Ts debe ser mayor o igual a Td Ts=4.8 - Td=13.5 2013-04-30 20:01:00
1 1975-08-29 13:00:00 Ts debe ser mayor o igual a Td Ts=2.1 - Td=11.0 2013-04-30 20:01:00
1 1975-09-14 22:00:00 Ts debe ser mayor o igual a Td Ts=16.2 - Td=22.5 2013-04-30 20:01:00
1 1976-01-17 12:00:00 Ts debe ser mayor o igual a Td Ts=4.6 - Td=16.7 2013-04-30 20:02:00
1 1976-02-11 13:00:00 Ts debe ser mayor o igual a Td Ts=6.2 - Td=14.5 2013-04-30 20:03:00
1 1976-02-17 13:00:00 Ts debe ser mayor o igual a Td Ts=3.2 - Td=16.6 2013-04-30 20:03:00
1 1976-02-18 12:00:00 Ts debe ser mayor o igual a Td Ts=3.0 - Td=16.3 2013-04-30 20:03:00
1 1976-02-21 13:00:00 Ts debe ser mayor o igual a Td Ts=5.6 - Td=16.2 2013-04-30 20:03:00
1 1976-03-01 12:00:00 Ts debe ser mayor o igual a Td Ts=3.3 - Td=15.6 2013-04-30 20:03:00
1 1976-03-07 13:00:00 Ts debe ser mayor o igual a Td Ts=5.2 - Td=17.5 2013-04-30 20:03:00
1 1976-03-09 12:00:00 Ts debe ser mayor o igual a Td Ts=3.2 - Td=17.5 2013-04-30 20:03:00
1 1976-04-20 21:00:00 Ts debe ser mayor o igual a Td Ts=9.0 - Td=14.8 2013-04-30 20:03:00
1 1976-04-20 23:00:00 Ts debe ser mayor o igual a Td Ts=4.8 - Td=14.5 2013-04-30 20:03:00
1 1976-04-24 23:00:00 Ts debe ser mayor o igual a Td Ts=4.5 - Td=15.3 2013-04-30 20:03:00
1 1976-04-28 15:00:00 Ts debe ser mayor o igual a Td Ts=0.4 - Td=14.1 2013-04-30 20:03:00
1 1976-05-01 11:00:00 Ts debe ser mayor o igual a Td Ts=8.0 - Td=10.7 2013-04-30 20:03:00
1 1976-10-14 17:00:00 Ts debe ser mayor o igual a Td Ts=7.4 - Td=15.2 2013-04-30 20:05:00
1 1977-08-04 11:00:00 Ts debe ser mayor o igual a Td Ts=0.2 - Td=8.6 2013-04-30 20:08:00
1 1977-08-07 13:00:00 Ts debe ser mayor o igual a Td Ts=1.8 - Td=13.0 2013-04-30 20:08:00
1 1977-08-13 21:00:00 Ts debe ser mayor o igual a Td Ts=6.0 - Td=9.3 2013-04-30 20:08:00
1 1977-09-16 12:00:00 Ts debe ser mayor o igual a Td Ts=8.4 - Td=8.9 2013-04-30 20:09:00
1 1977-09-20 23:00:00 Ts debe ser mayor o igual a Td Ts=6.4 - Td=16.9 2013-04-30 20:09:00
1 1977-09-30 15:00:00 Ts debe ser mayor o igual a Td Ts=13.4 - Td=14.4 2013-04-30 20:09:00
1 1977-10-18 15:00:00 Ts debe ser mayor o igual a Td Ts=7.6 - Td=16.5 2013-04-30 20:09:00
1 1977-10-26 00:00:00 Ts debe ser mayor o igual a Td Ts=13.6 - Td=17.3 2013-04-30 20:09:00
1 1977-11-08 19:00:00 Ts debe ser mayor o igual a Td Ts=3.6 - Td=21.1 2013-04-30 20:09:00
1 1977-11-22 11:00:00 Ts debe ser mayor o igual a Td Ts=1.6 - Td=17.5 2013-04-30 20:09:00
1 1977-12-16 20:00:00 Ts debe ser mayor o igual a Td Ts=6.2 - Td=18.5 2013-04-30 20:10:00
1 1978-02-13 14:00:00 Ts debe ser mayor o igual a Td Ts=18.6 - Td=20.3 2013-04-30 20:10:00
1 1978-02-16 12:00:00 Ts debe ser mayor o igual a Td Ts=13.6 - Td=15.6 2013-04-30 20:10:00
1 1978-06-03 18:00:00 Ts debe ser mayor o igual a Td Ts=2.7 - Td=18.7 2013-04-30 20:11:00
1 1978-06-15 20:00:00 Ts debe ser mayor o igual a Td Ts=14.8 - Td=21.9 2013-04-30 20:12:00
1 1978-07-28 16:00:00 Ts debe ser mayor o igual a Td Ts=6.2 - Td=12.1 2013-04-30 20:12:00
1 1978-07-30 12:00:00 Ts debe ser mayor o igual a Td Ts=4.8 - Td=5.2 2013-04-30 20:12:00
1 1978-07-31 13:00:00 Ts debe ser mayor o igual a Td Ts=5.0 - Td=5.8 2013-04-30 20:12:00
1 1978-09-26 16:00:00 Ts debe ser mayor o igual a Td Ts=0.8 - Td=19.2 2013-04-30 20:13:00
1 1978-09-30 12:00:00 Ts debe ser mayor o igual a Td Ts=9.0 - Td=10.4 2013-04-30 20:13:00
1 1979-03-17 20:00:00 Ts debe ser mayor o igual a Td Ts=13.6 - Td=19.4 2013-04-30 20:15:00
1 1979-03-18 21:00:00 Ts debe ser mayor o igual a Td Ts=2.2 - Td=22.8 2013-04-30 20:15:00
1 1979-05-26 15:00:00 Ts debe ser mayor o igual a Td Ts=12.8 - Td=15.3 2013-04-30 20:15:00
1 1979-06-03 22:00:00 Ts debe ser mayor o igual a Td Ts=13.6 - Td=18.4 2013-04-30 20:15:00
1 1979-06-29 13:00:00 Ts debe ser mayor o igual a Td Ts=6.8 - Td=10.6 2013-04-30 20:16:00
1 1979-07-05 11:00:00 Ts debe ser mayor o igual a Td Ts=5.6 - Td=6.0 2013-04-30 20:16:00
1 1979-09-08 17:00:00 Ts debe ser mayor o igual a Td Ts=10.2 - Td=14.4 2013-04-30 20:16:00
1 1979-11-12 22:00:00 Ts debe ser mayor o igual a Td Ts=19.0 - Td=24.5 2013-04-30 20:17:00
1 1979-12-02 10:00:00 Ts debe ser mayor o igual a Td Ts=11.8 - Td=13.4 2013-04-30 20:17:00
1 1985-07-30 11:00:00 Ts debe ser mayor o igual a Td Ts=8.8 - Td=10.9 2013-04-30 20:41:00
1 1990-12-15 10:00:00 Ts debe ser mayor o igual a Td Ts=10.1 - Td=10.3 2013-04-30 21:02:00
1 1995-05-13 12:30:00 Ts debe ser mayor o igual a Td Ts=11.0 - Td=22.8 2013-04-30 21:18:00
1 1995-11-01 11:30:00 Ts debe ser mayor o igual a Td Ts=10.8 - Td=11.7 2013-04-30 21:19:00
1 1996-10-30 11:30:00 Ts debe ser mayor o igual a Td Ts=10.4 - Td=10.7 2013-04-30 21:22:00
1 1997-04-26 12:30:00 Ts debe ser mayor o igual a Td Ts=10.4 - Td=14.3 2013-04-30 21:23:00
1 1998-03-27 12:30:00 Ts debe ser mayor o igual a Td Ts=14.0 - Td=14.3 2013-04-30 21:26:00
1 1998-07-04 12:30:00 Ts debe ser mayor o igual a Td Ts=2.0 - Td=10.5 2013-04-30 21:27:00
1 1998-10-04 11:30:00 Ts debe ser mayor o igual a Td Ts=11.0 - Td=11.2 2013-04-30 21:27:00
1 1999-01-27 11:30:00 Ts debe ser mayor o igual a Td Ts=16.0 - Td=16.9 2013-04-30 21:28:00
1 1999-06-06 12:30:00 Ts debe ser mayor o igual a Td Ts=7.4 - Td=8.9 2013-04-30 21:29:00
1 2000-04-05 12:30:00 Ts debe ser mayor o igual a Td Ts=12.0 - Td=13.0 2013-04-30 21:31:00
1 2000-04-27 12:30:00 Ts debe ser mayor o igual a Td Ts=11.6 - Td=11.8 2013-04-30 21:31:00
1 2000-05-11 12:30:00 Ts debe ser mayor o igual a Td Ts=12.0 - Td=23.1 2013-04-30 21:31:00
1 2002-05-08 13:00:00 Ts debe ser mayor o igual a Td Ts=18.4 - Td=40.9 2013-04-30 21:36:00
1 2002-06-13 17:00:00 Ts debe ser mayor o igual a Td Ts=13.0 - Td=40.9 2013-04-30 21:37:00
1 2002-06-17 12:30:00 Ts debe ser mayor o igual a Td Ts=2.7 - Td=9.9 2013-04-30 21:37:00
1 2002-06-24 12:30:00 Ts debe ser mayor o igual a Td Ts=8.4 - Td=9.5 2013-04-30 21:37:00
1 2002-09-06 16:00:00 Ts debe ser mayor o igual a Td Ts=20.0 - Td=40.9 2013-04-30 21:37:00
1 2002-09-23 12:30:00 Ts debe ser mayor o igual a Td Ts=11.2 - Td=40.9 2013-04-30 21:37:00
1 1952-04-11 11:00:00 (ts - td > 5.0) y ((ww >= 40 y ww <= 49)) 40 2014-05-14 13:34:00
1 1952-08-29 08:00:00 (ts - td > 5.0) y ((ww >= 40 y ww <= 49)) 40 2014-05-28 13:08:00
1 1952-10-06 10:00:00 (ts - td > 5.0) y ((ww >= 40 y ww <= 49)) 40 2014-05-30 14:53:00
1 1954-03-13 12:00:00 (ts - td > 5.0) y ((ww >= 40 y ww <= 49)) 40 2012-09-12 20:17:00
1 1954-03-14 10:00:00 (ts - td > 5.0) y ((ww >= 40 y ww <= 49)) 40 2012-09-13 17:57:00
1 1954-06-20 11:00:00 (ts - td > 5.0) y ((ww >= 40 y ww <= 49)) 40 2012-09-26 19:19:00
1 1954-07-18 16:00:00 (ts - td > 5.0) y ((ww >= 40 y ww <= 49)) 40 2012-09-28 19:46:00
1 1954-07-18 17:00:00 (ts - td > 5.0) y ((ww >= 40 y ww <= 49)) 40 2012-09-28 19:46:00
1 1954-07-27 19:00:00 (ts - td > 5.0) y ((ww >= 40 y ww <= 49)) 42 2012-10-01 17:37:00
1 1954-08-26 17:00:00 (ts - td > 5.0) y ((ww >= 40 y ww <= 49)) 42 2012-10-03 12:15:00
1 1959-01-12 12:00:00 (ts - td > 5.0) y ((ww >= 40 y ww <= 49)) 45 2013-05-01 04:51:00
1 1960-10-12 12:00:00 (ts - td > 5.0) y ((ww >= 40 y ww <= 49)) 45 2013-05-01 04:53:00
1 1961-03-26 12:00:00 (ts - td > 5.0) y ((ww >= 40 y ww <= 49)) 45 2013-05-01 04:54:00
1 1962-08-17 15:00:00 (ts - td > 5.0) y ((ww >= 40 y ww <= 49)) 45 2013-05-01 04:55:00
1 1964-09-24 12:00:00 ts > 5.0 y ((ww >= 70 y ww <= 79) || (ww >= 85 y ww <= 88))) 74 2013-05-01 04:58:00
1 1965-10-05 12:00:00 ts > 3.0 y ( (ww >= 48 y ww <= 49) o (ww >= 56 y ww <= 57) o (ww >=66 y ww <= 67)) 49 2013-05-01 04:59:00
1 1966-01-25 12:00:00 ts > 3.0 y ( (ww >= 48 y ww <= 49) o (ww >= 56 y ww <= 57) o (ww >=66 y ww <= 67)) 49 2013-05-01 05:00:00
1 1966-07-03 15:00:00 (ts - td > 5.0) y ((ww >= 40 y ww <= 49)) 40 2013-05-01 05:00:00
1 1967-08-12 15:00:00 (ts - td > 5.0) y ((ww >= 40 y ww <= 49)) 42 2013-05-01 05:02:00
1 1967-08-18 12:00:00 (ts - td > 5.0) y ((ww >= 40 y ww <= 49)) 40 2013-05-01 05:02:00
1 1967-09-02 12:00:00 (ts - td > 5.0) y ((ww >= 40 y ww <= 49)) 40 2013-05-01 05:02:00
1 1968-06-25 03:00:00 (ts - td > 5.0) y ((ww >= 40 y ww <= 49)) 47 2013-05-01 05:03:00
1 1968-10-27 09:00:00 (ts - td > 5.0) y ((ww >= 40 y ww <= 49)) 40 2013-05-01 05:04:00
1 1969-05-09 12:00:00 (ts - td > 5.0) y ((ww >= 40 y ww <= 49)) 40 2013-05-01 05:05:00
1 1969-05-09 15:00:00 (ts - td > 5.0) y ((ww >= 40 y ww <= 49)) 40 2013-05-01 05:05:00
1 1969-08-09 15:00:00 (ts - td > 5.0) y ((ww >= 40 y ww <= 49)) 41 2013-05-01 05:05:00
1 1970-08-09 15:00:00 (ts - td > 5.0) y ((ww >= 40 y ww <= 49)) 40 2013-05-01 05:07:00
1 1971-03-07 15:00:00 (ts - td > 5.0) y ((ww >= 40 y ww <= 49)) 40 2013-05-01 05:08:00
1 1971-11-05 21:00:00 (ts - td > 5.0) y ((ww >= 40 y ww <= 49)) 40 2013-05-01 05:10:00
1 1972-07-05 15:00:00 (ts - td > 5.0) y ((ww >= 40 y ww <= 49)) 40 2013-05-01 05:11:00
1 1973-04-29 18:00:00 (ts - td > 5.0) y ((ww >= 40 y ww <= 49)) 40 2013-05-01 05:12:00
1 1974-11-28 15:00:00 (ts - td > 5.0) y ((ww >= 40 y ww <= 49)) 40 2013-05-01 05:14:00
1 1984-05-13 12:00:00 rrr = 0.2 y WW = 2 w1=2 w2=2 0.2 2013-04-30 17:35:00
1 1984-06-07 12:00:00 rrr = trazas y WW = 2 w1=2 w2=2 0.0 2013-04-30 17:35:00
1 1984-07-03 12:00:00 rrr = 6.5 y WW = 2 w1=2 w2=2 6.5 2013-04-30 17:35:00
1 1984-07-06 12:00:00 rrr = 0.8 y WW = 40 w1=4 w2=4 0.8 2013-04-30 17:35:00
1 1984-07-26 12:00:00 rrr = 0.3 y WW = 1 w1=4 w2=4 0.3 2013-04-30 17:35:00
1 1984-07-27 12:00:00 rrr = 0.3 y WW = 40 w1=4 w2=4 0.3 2013-04-30 17:35:00
1 1985-07-25 12:00:00 rrr = 2.4 y WW = 1 w1=2 w2=2 2.4 2013-04-30 17:36:00
1 1985-08-08 12:00:00 rrr = 0.5 y WW = 1 w1=0 w2=0 0.5 2013-04-30 17:36:00
1 1988-04-10 12:00:00 rrr = trazas y WW = 10 w1=4 w2=4 0.0 2013-04-30 17:39:00
1 1988-05-22 12:00:00 rrr = trazas y WW = 1 w1=2 w2=2 0.0 2013-04-30 17:39:00
1 1988-06-27 12:00:00 rrr = trazas y WW = 2 w1=0 w2=0 0.0 2013-04-30 17:39:00
1 1988-09-16 12:00:00 rrr = 0.1 y WW = 1 w1=2 w2=2 0.1 2013-04-30 17:39:00
1 1988-10-11 12:00:00 rrr = 0.1 y WW = 11 w1=4 w2=4 0.1 2013-04-30 17:40:00
1 1989-05-25 12:00:00 rrr = 0.4 y WW = 2 w1=4 w2=4 0.4 2013-04-30 17:40:00
1 1989-05-27 12:00:00 rrr = 0.2 y WW = 12 w1=4 w2=4 0.2 2013-04-30 17:40:00
1 1989-09-12 18:00:00 rrr = 0.1 y WW = 1 w1=2 w2=1 0.1 2013-04-30 17:41:00
1 1990-06-05 12:00:00 rrr = 0.4 y WW = 2 w1=0 w2=0 0.4 2013-04-30 17:41:00
1 1991-09-01 18:00:00 rrr = s/p y WW = 1 w1=5 w2=1 0.0 2013-04-30 17:43:00
1 1996-08-07 18:00:00 rrr = 0.3 y WW = 1 w1=4 w2=2 0.3 2013-04-30 17:49:00
1 1997-06-13 12:00:00 rrr = 3.0 y WW = 2 w1=0 w2=0 3.0 2013-04-30 17:49:00
Errores del Nivel 378
Nivel Fecha del Dato Descripción Información Error Fecha Ingreso
2 1952-06-17 10:00:00 Variación horaria de Intensidad del viento fuera de rango (1 hora Antes) 40 - 8 2014-05-20 13:58:00
2 1952-06-17 14:00:00 Variación horaria de Intensidad del viento fuera de rango (1 hora Antes) 8 - 40 2014-05-20 13:59:00
2 1952-06-28 09:00:00 Variación horaria de Intensidad del viento fuera de rango (1 hora Antes) 50 - 18 2014-05-20 18:48:00
2 1954-03-16 19:00:00 Variación horaria de Intensidad del viento fuera de rango (1 hora Antes) 69 - 4 2012-09-13 18:57:00
2 1954-03-16 20:00:00 Variación horaria de Intensidad del viento fuera de rango (1 hora Antes) 8 - 69 2012-09-13 18:57:00
2 1969-02-14 19:00:00 Variación horaria de Intensidad del viento fuera de rango (1 hora Antes) 40 - 3 2013-05-01 09:41:00
2 1975-05-18 03:00:00 Variación horaria de Intensidad del viento fuera de rango (1 hora Antes) 102 - 0 2013-05-01 10:11:00
2 1975-05-18 03:00:00 Variación Tri-horaria de Intensidad del viento fuera de rango (3 hora Antes) 102 - 0 2013-05-01 10:11:00
2 1975-05-18 04:00:00 Variación horaria de Intensidad del viento fuera de rango (1 hora Antes) 0 - 102 2013-05-01 10:11:00
2 1975-05-18 06:00:00 Variación Tri-horaria de Intensidad del viento fuera de rango (3 hora Antes) 3 - 102 2013-05-01 10:11:00
2 1989-03-13 21:00:00 Variación horaria de Intensidad del viento fuera de rango (1 hora Antes) 40 - 6 2013-05-01 11:12:00
2 1989-03-13 22:00:00 Variación horaria de Intensidad del viento fuera de rango (1 hora Antes) 5 - 40 2013-05-01 11:12:00
2 1952-01-11 00:00:00 Temperatura 28.0 del 10-01-1952 15:00, Mayor que la Máxima 27.5 11-01-1952 00:00 28.0 -- 27.5 2014-06-05 16:54:00
2 1952-01-23 00:00:00 Temperatura 28.3 del 22-01-1952 16:00, Mayor que la Máxima 28.0 23-01-1952 00:00 28.3 -- 28.0 2014-06-05 16:54:00
2 1952-02-16 00:00:00 Temperatura 28.4 del 15-02-1952 14:00, Mayor que la Máxima 28.0 16-02-1952 00:00 28.4 -- 28.0 2014-06-05 17:04:00
2 1952-06-18 00:00:00 Temperatura 27.5 del 17-06-1952 14:00, Mayor que la Máxima 27.4 18-06-1952 00:00 27.5 -- 27.4 2014-06-05 19:04:00
2 1952-07-23 00:00:00 Temperatura 28.0 del 22-07-1952 13:00, Mayor que la Máxima 25.9 23-07-1952 00:00 28.0 -- 25.9 2014-06-05 15:29:00
2 1952-08-08 00:00:00 Temperatura 17.6 del 07-08-1952 13:00, Mayor que la Máxima 16.8 08-08-1952 00:00 17.6 -- 16.8 2014-06-05 14:33:00
2 1952-10-16 00:00:00 Temperatura 20.5 del 15-10-1952 14:00, Mayor que la Máxima 20.3 16-10-1952 00:00 20.5 -- 20.3 2014-06-05 13:26:00
2 1952-11-14 00:00:00 Temperatura 24.5 del 13-11-1952 19:00, Mayor que la Máxima 24.3 14-11-1952 00:00 24.5 -- 24.3 2014-06-05 14:03:00
2 1954-01-31 00:00:00 Temperatura 28.7 del 30-01-1954 17:00, Mayor que la Máxima 28.2 31-01-1954 00:00 28.7 -- 28.2 2012-10-11 14:12:00
2 1954-02-04 00:00:00 Temperatura 27.8 del 03-02-1954 18:00, Mayor que la Máxima 27.5 04-02-1954 00:00 27.8 -- 27.5 2012-10-11 14:20:00
2 1954-02-06 00:00:00 Temperatura 28.0 del 05-02-1954 18:00, Mayor que la Máxima 27.5 06-02-1954 00:00 28.0 -- 27.5 2012-10-11 14:20:00
2 1954-02-20 00:00:00 Temperatura 27.0 del 19-02-1954 18:00, Mayor que la Máxima 26.1 20-02-1954 00:00 27.0 -- 26.1 2012-10-11 14:21:00
2 1954-03-28 00:00:00 Temperatura 20.4 del 27-03-1954 20:00, Mayor que la Máxima 20.0 28-03-1954 00:00 20.4 -- 20.0 2012-10-11 14:38:00
2 1954-04-10 00:00:00 Temperatura 29.9 del 09-04-1954 23:00, Mayor que la Máxima 24.1 10-04-1954 00:00 29.9 -- 24.1 2012-10-11 15:29:00
2 1954-04-17 00:00:00 Temperatura 19.4 del 16-04-1954 19:00, Mayor que la Máxima 19.0 17-04-1954 00:00 19.4 -- 19.0 2012-10-11 15:29:00
2 1954-06-15 00:00:00 Temperatura 15.0 del 14-06-1954 21:00, Mayor que la Máxima 14.8 15-06-1954 00:00 15.0 -- 14.8 2012-10-11 15:43:00
2 1954-08-02 00:00:00 Temperatura 16.6 del 01-08-1954 19:00, Mayor que la Máxima 16.4 02-08-1954 00:00 16.6 -- 16.4 2012-10-11 17:36:00
2 1954-08-08 00:00:00 Temperatura 18.5 del 07-08-1954 19:00, Mayor que la Máxima 18.4 08-08-1954 00:00 18.5 -- 18.4 2012-10-11 17:37:00
2 1954-08-18 00:00:00 Temperatura 19.0 del 17-08-1954 20:00, Mayor que la Máxima 18.6 18-08-1954 00:00 19.0 -- 18.6 2012-10-11 17:37:00
2 1954-09-11 00:00:00 Temperatura 16.0 del 10-09-1954 19:00, Mayor que la Máxima 15.8 11-09-1954 00:00 16.0 -- 15.8 2012-10-11 18:04:00
2 1954-10-30 00:00:00 Temperatura 23.4 del 29-10-1954 20:00, Mayor que la Máxima 23.0 30-10-1954 00:00 23.4 -- 23.0 2012-10-11 18:16:00
2 1954-11-04 00:00:00 Temperatura 24.0 del 03-11-1954 19:00, Mayor que la Máxima 22.4 04-11-1954 00:00 24.0 -- 22.4 2012-10-11 18:33:00
2 1954-11-07 00:00:00 Temperatura 23.7 del 06-11-1954 19:00, Mayor que la Máxima 23.5 07-11-1954 00:00 23.7 -- 23.5 2012-10-11 18:33:00
2 1954-11-08 00:00:00 Temperatura 21.2 del 07-11-1954 20:00, Mayor que la Máxima 20.1 08-11-1954 00:00 21.2 -- 20.1 2012-10-11 18:33:00
2 1954-11-15 00:00:00 Temperatura 24.0 del 14-11-1954 19:00, Mayor que la Máxima 22.2 15-11-1954 00:00 24.0 -- 22.2 2012-10-11 18:33:00
2 1954-11-22 00:00:00 Temperatura 24.0 del 21-11-1954 19:00, Mayor que la Máxima 23.2 22-11-1954 00:00 24.0 -- 23.2 2012-10-11 18:34:00
2 1954-11-23 00:00:00 Temperatura 22.9 del 22-11-1954 18:00, Mayor que la Máxima 22.8 23-11-1954 00:00 22.9 -- 22.8 2012-10-11 18:34:00
2 1954-11-30 00:00:00 Temperatura 26.0 del 29-11-1954 20:00, Mayor que la Máxima 24.6 30-11-1954 00:00 26.0 -- 24.6 2012-10-11 18:34:00
2 1955-04-02 00:00:00 Temperatura 26.0 del 01-04-1955 18:00, Mayor que la Máxima 17.0 02-04-1955 00:00 26.0 -- 17.0 2013-05-01 12:02:00
2 1955-04-03 00:00:00 Temperatura 25.0 del 02-04-1955 18:00, Mayor que la Máxima 24.5 03-04-1955 00:00 25.0 -- 24.5 2013-05-01 12:02:00
2 1955-05-09 00:00:00 Temperatura 18.0 del 08-05-1955 18:00, Mayor que la Máxima 17.5 09-05-1955 00:00 18.0 -- 17.5 2013-05-01 12:02:00
2 1955-05-11 00:00:00 Temperatura 23.0 del 10-05-1955 21:00, Mayor que la Máxima 22.4 11-05-1955 00:00 23.0 -- 22.4 2013-05-01 12:02:00
2 1955-05-13 00:00:00 Temperatura 20.2 del 12-05-1955 18:00, Mayor que la Máxima 18.6 13-05-1955 00:00 20.2 -- 18.6 2013-05-01 12:02:00
2 1955-05-28 00:00:00 Temperatura 21.0 del 27-05-1955 18:00, Mayor que la Máxima 20.4 28-05-1955 00:00 21.0 -- 20.4 2013-05-01 12:02:00
2 1955-11-30 00:00:00 Temperatura 24.3 del 29-11-1955 18:00, Mayor que la Máxima 24.0 30-11-1955 00:00 24.3 -- 24.0 2013-05-01 12:02:00
2 1956-07-26 00:00:00 Temperatura 23.4 del 25-07-1956 21:00, Mayor que la Máxima 23.2 26-07-1956 00:00 23.4 -- 23.2 2013-05-01 12:02:00
2 1956-08-05 00:00:00 Temperatura 16.8 del 04-08-1956 18:00, Mayor que la Máxima 16.6 05-08-1956 00:00 16.8 -- 16.6 2013-05-01 12:02:00
2 1956-08-18 00:00:00 Temperatura 21.4 del 17-08-1956 18:00, Mayor que la Máxima 20.6 18-08-1956 00:00 21.4 -- 20.6 2013-05-01 12:02:00
2 1956-12-12 00:00:00 Temperatura 27.6 del 11-12-1956 18:00, Mayor que la Máxima 18.6 12-12-1956 00:00 27.6 -- 18.6 2013-05-01 12:02:00
2 1957-10-16 00:00:00 Temperatura 28.6 del 15-10-1957 18:00, Mayor que la Máxima 28.2 16-10-1957 00:00 28.6 -- 28.2 2013-05-01 12:02:00
2 1958-05-24 00:00:00 Temperatura 21.0 del 23-05-1958 18:00, Mayor que la Máxima 20.5 24-05-1958 00:00 21.0 -- 20.5 2013-05-01 12:02:00
2 1958-07-11 00:00:00 Temperatura 16.4 del 10-07-1958 15:00, Mayor que la Máxima 16.0 11-07-1958 00:00 16.4 -- 16.0 2013-05-01 12:02:00
2 1959-04-05 00:00:00 Temperatura 21.0 del 04-04-1959 21:00, Mayor que la Máxima 20.2 05-04-1959 00:00 21.0 -- 20.2 2013-05-01 12:03:00
2 1959-04-10 00:00:00 Temperatura 27.4 del 09-04-1959 21:00, Mayor que la Máxima 27.2 10-04-1959 00:00 27.4 -- 27.2 2013-05-01 12:03:00
2 1959-05-02 00:00:00 Temperatura 29.8 del 01-05-1959 21:00, Mayor que la Máxima 19.9 02-05-1959 00:00 29.8 -- 19.9 2013-05-01 12:03:00
2 1959-08-30 00:00:00 Temperatura 16.8 del 29-08-1959 18:00, Mayor que la Máxima 7.2 30-08-1959 00:00 16.8 -- 7.2 2013-05-01 12:03:00
2 1959-10-31 00:00:00 Temperatura 27.0 del 30-10-1959 18:00, Mayor que la Máxima 26.3 31-10-1959 00:00 27.0 -- 26.3 2013-05-01 12:03:00
2 1960-01-05 00:00:00 Temperatura 26.8 del 04-01-1960 18:00, Mayor que la Máxima 13.0 05-01-1960 00:00 26.8 -- 13.0 2013-05-01 12:03:00
2 1960-12-26 00:00:00 Temperatura 27.0 del 25-12-1960 21:00, Mayor que la Máxima 25.2 26-12-1960 00:00 27.0 -- 25.2 2013-05-01 12:03:00
2 1961-04-16 00:00:00 Temperatura 20.0 del 15-04-1961 21:00, Mayor que la Máxima 1.5 16-04-1961 00:00 20.0 -- 1.5 2013-05-01 12:03:00
2 1961-04-17 00:00:00 Temperatura 36.0 del 16-04-1961 15:00, Mayor que la Máxima 20.8 17-04-1961 00:00 36.0 -- 20.8 2013-05-01 12:03:00
2 1961-06-11 00:00:00 Temperatura 16.2 del 10-06-1961 21:00, Mayor que la Máxima 15.8 11-06-1961 00:00 16.2 -- 15.8 2013-05-01 12:03:00
2 1961-07-20 00:00:00 Temperatura 11.0 del 19-07-1961 15:00, Mayor que la Máxima 4.8 20-07-1961 00:00 11.0 -- 4.8 2013-05-01 12:03:00
2 1961-10-09 00:00:00 Temperatura 24.3 del 08-10-1961 18:00, Mayor que la Máxima 21.6 09-10-1961 00:00 24.3 -- 21.6 2013-05-01 12:03:00
2 1961-12-07 00:00:00 Temperatura 22.4 del 06-12-1961 18:00, Mayor que la Máxima 12.6 07-12-1961 00:00 22.4 -- 12.6 2013-05-01 12:03:00
2 1961-12-09 00:00:00 Temperatura 23.2 del 08-12-1961 18:00, Mayor que la Máxima 23.0 09-12-1961 00:00 23.2 -- 23.0 2013-05-01 12:03:00
2 1962-05-14 00:00:00 Temperatura 18.0 del 13-05-1962 18:00, Mayor que la Máxima 15.6 14-05-1962 00:00 18.0 -- 15.6 2013-05-01 12:04:00
2 1962-08-20 00:00:00 Temperatura 17.6 del 19-08-1962 18:00, Mayor que la Máxima 16.8 20-08-1962 00:00 17.6 -- 16.8 2013-05-01 12:04:00
2 1962-08-26 00:00:00 Temperatura 19.4 del 25-08-1962 21:00, Mayor que la Máxima 17.6 26-08-1962 00:00 19.4 -- 17.6 2013-05-01 12:04:00
2 1963-05-14 00:00:00 Temperatura 19.4 del 13-05-1963 18:00, Mayor que la Máxima 17.2 14-05-1963 00:00 19.4 -- 17.2 2013-05-01 12:04:00
2 1964-05-29 00:00:00 Temperatura 24.6 del 28-05-1964 18:00, Mayor que la Máxima 15.2 29-05-1964 00:00 24.6 -- 15.2 2013-05-01 12:04:00
2 1964-05-30 00:00:00 Temperatura 29.4 del 29-05-1964 15:00, Mayor que la Máxima 14.9 30-05-1964 00:00 29.4 -- 14.9 2013-05-01 12:04:00
2 1964-06-21 00:00:00 Temperatura 19.2 del 20-06-1964 18:00, Mayor que la Máxima 19.1 21-06-1964 00:00 19.2 -- 19.1 2013-05-01 12:04:00
2 1965-07-08 00:00:00 Temperatura 22.8 del 07-07-1965 18:00, Mayor que la Máxima 2.6 08-07-1965 00:00 22.8 -- 2.6 2013-05-01 12:04:00
2 1965-07-13 00:00:00 Temperatura 14.8 del 12-07-1965 18:00, Mayor que la Máxima 14.0 13-07-1965 00:00 14.8 -- 14.0 2013-05-01 12:04:00
2 1965-07-28 00:00:00 Temperatura 19.6 del 27-07-1965 18:00, Mayor que la Máxima 14.6 28-07-1965 00:00 19.6 -- 14.6 2013-05-01 12:04:00
2 1965-07-30 00:00:00 Temperatura 22.6 del 29-07-1965 18:00, Mayor que la Máxima 22.2 30-07-1965 00:00 22.6 -- 22.2 2013-05-01 12:04:00
2 1965-08-07 00:00:00 Temperatura 16.4 del 06-08-1965 21:00, Mayor que la Máxima 15.6 07-08-1965 00:00 16.4 -- 15.6 2013-05-01 12:04:00
2 1965-08-17 00:00:00 Temperatura 20.6 del 16-08-1965 18:00, Mayor que la Máxima 2.2 17-08-1965 00:00 20.6 -- 2.2 2013-05-01 12:04:00
2 1965-08-25 00:00:00 Temperatura 20.0 del 24-08-1965 15:00, Mayor que la Máxima 17.0 25-08-1965 00:00 20.0 -- 17.0 2013-05-01 12:04:00
2 1965-09-28 00:00:00 Temperatura 17.6 del 27-09-1965 21:00, Mayor que la Máxima 2.0 28-09-1965 00:00 17.6 -- 2.0 2013-05-01 12:04:00
2 1965-10-15 00:00:00 Temperatura 20.9 del 14-10-1965 18:00, Mayor que la Máxima 20.6 15-10-1965 00:00 20.9 -- 20.6 2013-05-01 12:04:00
2 1965-10-27 00:00:00 Temperatura 18.6 del 26-10-1965 18:00, Mayor que la Máxima 17.3 27-10-1965 00:00 18.6 -- 17.3 2013-05-01 12:04:00
2 1965-11-07 00:00:00 Temperatura 37.0 del 06-11-1965 21:00, Mayor que la Máxima 26.0 07-11-1965 00:00 37.0 -- 26.0 2013-05-01 12:04:00
2 1965-11-14 00:00:00 Temperatura 23.2 del 13-11-1965 18:00, Mayor que la Máxima 23.0 14-11-1965 00:00 23.2 -- 23.0 2013-05-01 12:04:00
2 1966-01-28 00:00:00 Temperatura 26.4 del 27-01-1966 18:00, Mayor que la Máxima 26.0 28-01-1966 00:00 26.4 -- 26.0 2013-05-01 12:04:00
2 1966-04-13 00:00:00 Temperatura 24.0 del 12-04-1966 21:00, Mayor que la Máxima 2.6 13-04-1966 00:00 24.0 -- 2.6 2013-05-01 12:04:00
2 1966-05-07 00:00:00 Temperatura 19.2 del 06-05-1966 21:00, Mayor que la Máxima 19.0 07-05-1966 00:00 19.2 -- 19.0 2013-05-01 12:04:00
2 1966-05-19 00:00:00 Temperatura 21.1 del 18-05-1966 18:00, Mayor que la Máxima 20.8 19-05-1966 00:00 21.1 -- 20.8 2013-05-01 12:04:00
2 1966-05-22 00:00:00 Temperatura 21.1 del 21-05-1966 21:00, Mayor que la Máxima 21.0 22-05-1966 00:00 21.1 -- 21.0 2013-05-01 12:04:00
2 1966-05-29 00:00:00 Temperatura 16.6 del 28-05-1966 18:00, Mayor que la Máxima 1.7 29-05-1966 00:00 16.6 -- 1.7 2013-05-01 12:04:00
2 1966-06-20 00:00:00 Temperatura 15.0 del 19-06-1966 21:00, Mayor que la Máxima 14.0 20-06-1966 00:00 15.0 -- 14.0 2013-05-01 12:04:00
2 1966-08-04 00:00:00 Temperatura 9.8 del 03-08-1966 18:00, Mayor que la Máxima 9.7 04-08-1966 00:00 9.8 -- 9.7 2013-05-01 12:04:00
2 1966-08-11 00:00:00 Temperatura 17.2 del 10-08-1966 18:00, Mayor que la Máxima 2.0 11-08-1966 00:00 17.2 -- 2.0 2013-05-01 12:04:00
2 1966-09-16 00:00:00 Temperatura 23.2 del 15-09-1966 18:00, Mayor que la Máxima 18.8 16-09-1966 00:00 23.2 -- 18.8 2013-05-01 12:05:00
2 1967-02-12 00:00:00 Temperatura 27.0 del 11-02-1967 18:00, Mayor que la Máxima 19.4 12-02-1967 00:00 27.0 -- 19.4 2013-05-01 12:05:00
2 1967-03-14 00:00:00 Temperatura 26.6 del 13-03-1967 21:00, Mayor que la Máxima 26.5 14-03-1967 00:00 26.6 -- 26.5 2013-05-01 12:05:00
2 1967-04-12 00:00:00 Temperatura 27.8 del 11-04-1967 18:00, Mayor que la Máxima 18.4 12-04-1967 00:00 27.8 -- 18.4 2013-05-01 12:05:00
2 1967-07-22 00:00:00 Temperatura 18.8 del 21-07-1967 18:00, Mayor que la Máxima 18.0 22-07-1967 00:00 18.8 -- 18.0 2013-05-01 12:05:00
2 1967-07-23 00:00:00 Temperatura 21.3 del 22-07-1967 18:00, Mayor que la Máxima 21.0 23-07-1967 00:00 21.3 -- 21.0 2013-05-01 12:05:00
2 1967-08-17 00:00:00 Temperatura 16.4 del 16-08-1967 21:00, Mayor que la Máxima 16.2 17-08-1967 00:00 16.4 -- 16.2 2013-05-01 12:05:00
2 1967-08-27 00:00:00 Temperatura 10.0 del 26-08-1967 21:00, Mayor que la Máxima 9.8 27-08-1967 00:00 10.0 -- 9.8 2013-05-01 12:05:00
2 1967-09-05 00:00:00 Temperatura 17.6 del 04-09-1967 21:00, Mayor que la Máxima 17.0 05-09-1967 00:00 17.6 -- 17.0 2013-05-01 12:05:00
2 1967-09-15 00:00:00 Temperatura 18.1 del 14-09-1967 18:00, Mayor que la Máxima 17.6 15-09-1967 00:00 18.1 -- 17.6 2013-05-01 12:05:00
2 1967-09-29 00:00:00 Temperatura 18.3 del 28-09-1967 21:00, Mayor que la Máxima 18.1 29-09-1967 00:00 18.3 -- 18.1 2013-05-01 12:05:00
2 1967-10-15 00:00:00 Temperatura 21.8 del 14-10-1967 18:00, Mayor que la Máxima 21.6 15-10-1967 00:00 21.8 -- 21.6 2013-05-01 12:05:00
2 1967-10-24 00:00:00 Temperatura 21.8 del 23-10-1967 18:00, Mayor que la Máxima 21.6 24-10-1967 00:00 21.8 -- 21.6 2013-05-01 12:05:00
2 1967-10-31 00:00:00 Temperatura 20.6 del 30-10-1967 18:00, Mayor que la Máxima 2.3 31-10-1967 00:00 20.6 -- 2.3 2013-05-01 12:05:00
2 1967-11-04 00:00:00 Temperatura 20.4 del 03-11-1967 18:00, Mayor que la Máxima 20.0 04-11-1967 00:00 20.4 -- 20.0 2013-05-01 12:05:00
2 1967-11-06 00:00:00 Temperatura 24.7 del 05-11-1967 18:00, Mayor que la Máxima 2.7 06-11-1967 00:00 24.7 -- 2.7 2013-05-01 12:05:00
2 1967-11-17 00:00:00 Temperatura 22.7 del 16-11-1967 18:00, Mayor que la Máxima 22.6 17-11-1967 00:00 22.7 -- 22.6 2013-05-01 12:05:00
2 1967-12-14 00:00:00 Temperatura 24.0 del 13-12-1967 18:00, Mayor que la Máxima 23.6 14-12-1967 00:00 24.0 -- 23.6 2013-05-01 12:05:00
2 1968-01-10 00:00:00 Temperatura 25.0 del 09-01-1968 18:00, Mayor que la Máxima 24.6 10-01-1968 00:00 25.0 -- 24.6 2013-05-01 12:05:00
2 1968-03-10 00:00:00 Temperatura 25.2 del 09-03-1968 18:00, Mayor que la Máxima 25.0 10-03-1968 00:00 25.2 -- 25.0 2013-05-01 12:05:00
2 1968-04-08 00:00:00 Temperatura 25.0 del 07-04-1968 21:00, Mayor que la Máxima 21.9 08-04-1968 00:00 25.0 -- 21.9 2013-05-01 12:05:00
2 1968-06-21 00:00:00 Temperatura 24.8 del 20-06-1968 18:00, Mayor que la Máxima 9.8 21-06-1968 00:00 24.8 -- 9.8 2013-05-01 12:05:00
2 1968-10-13 00:00:00 Temperatura 21.0 del 12-10-1968 18:00, Mayor que la Máxima 20.2 13-10-1968 00:00 21.0 -- 20.2 2013-05-01 12:05:00
2 1969-02-07 00:00:00 Temperatura 25.2 del 06-02-1969 20:00, Mayor que la Máxima 25.0 07-02-1969 00:00 25.2 -- 25.0 2013-05-01 12:05:00
2 1969-02-21 00:00:00 Temperatura 27.6 del 20-02-1969 18:00, Mayor que la Máxima 27.3 21-02-1969 00:00 27.6 -- 27.3 2013-05-01 12:05:00
2 1969-03-14 00:00:00 Temperatura 23.9 del 13-03-1969 19:00, Mayor que la Máxima 23.8 14-03-1969 00:00 23.9 -- 23.8 2013-05-01 12:05:00
2 1969-03-30 00:00:00 Temperatura 25.4 del 29-03-1969 18:00, Mayor que la Máxima 25.2 30-03-1969 00:00 25.4 -- 25.2 2013-05-01 12:05:00
2 1969-04-09 00:00:00 Temperatura 22.9 del 08-04-1969 19:00, Mayor que la Máxima 22.8 09-04-1969 00:00 22.9 -- 22.8 2013-05-01 12:05:00
2 1969-05-29 00:00:00 Temperatura 16.2 del 28-05-1969 21:00, Mayor que la Máxima 16.0 29-05-1969 00:00 16.2 -- 16.0 2013-05-01 12:05:00
2 1969-06-04 00:00:00 Temperatura 20.2 del 03-06-1969 16:00, Mayor que la Máxima 19.4 04-06-1969 00:00 20.2 -- 19.4 2013-05-01 12:05:00
2 1969-06-30 00:00:00 Temperatura 23.0 del 29-06-1969 20:00, Mayor que la Máxima 22.8 30-06-1969 00:00 23.0 -- 22.8 2013-05-01 12:05:00
2 1969-07-06 00:00:00 Temperatura 26.2 del 05-07-1969 17:00, Mayor que la Máxima 20.1 06-07-1969 00:00 26.2 -- 20.1 2013-05-01 12:05:00
2 1969-07-15 00:00:00 Temperatura 16.2 del 14-07-1969 21:00, Mayor que la Máxima 16.1 15-07-1969 00:00 16.2 -- 16.1 2013-05-01 12:05:00
2 1969-08-29 00:00:00 Temperatura 29.0 del 28-08-1969 17:00, Mayor que la Máxima 24.6 29-08-1969 00:00 29.0 -- 24.6 2013-05-01 12:05:00
2 1969-10-07 00:00:00 Temperatura 29.2 del 06-10-1969 18:00, Mayor que la Máxima 22.8 07-10-1969 00:00 29.2 -- 22.8 2013-05-01 12:05:00
2 1969-10-09 00:00:00 Temperatura 21.0 del 08-10-1969 21:00, Mayor que la Máxima 20.0 09-10-1969 00:00 21.0 -- 20.0 2013-05-01 12:05:00
2 1969-10-17 00:00:00 Temperatura 22.2 del 16-10-1969 18:00, Mayor que la Máxima 22.0 17-10-1969 00:00 22.2 -- 22.0 2013-05-01 12:05:00
2 1969-10-21 00:00:00 Temperatura 21.2 del 20-10-1969 19:00, Mayor que la Máxima 21.0 21-10-1969 00:00 21.2 -- 21.0 2013-05-01 12:05:00
2 1969-10-25 00:00:00 Temperatura 26.5 del 24-10-1969 18:00, Mayor que la Máxima 26.4 25-10-1969 00:00 26.5 -- 26.4 2013-05-01 12:05:00
2 1969-10-26 00:00:00 Temperatura 23.0 del 25-10-1969 20:00, Mayor que la Máxima 22.8 26-10-1969 00:00 23.0 -- 22.8 2013-05-01 12:05:00
2 1969-11-14 00:00:00 Temperatura 21.6 del 13-11-1969 21:00, Mayor que la Máxima 20.8 14-11-1969 00:00 21.6 -- 20.8 2013-05-01 12:05:00
2 1969-12-01 00:00:00 Temperatura 28.6 del 30-11-1969 23:00, Mayor que la Máxima 23.4 01-12-1969 00:00 28.6 -- 23.4 2013-05-01 12:05:00
2 1969-12-22 00:00:00 Temperatura 24.2 del 21-12-1969 20:00, Mayor que la Máxima 24.0 22-12-1969 00:00 24.2 -- 24.0 2013-05-01 12:05:00
2 1970-02-05 00:00:00 Temperatura 28.8 del 04-02-1970 21:00, Mayor que la Máxima 26.0 05-02-1970 00:00 28.8 -- 26.0 2013-05-01 12:05:00
2 1970-03-18 00:00:00 Temperatura 23.7 del 17-03-1970 20:00, Mayor que la Máxima 23.4 18-03-1970 00:00 23.7 -- 23.4 2013-05-01 12:06:00
2 1970-03-19 00:00:00 Temperatura 26.2 del 18-03-1970 17:00, Mayor que la Máxima 24.8 19-03-1970 00:00 26.2 -- 24.8 2013-05-01 12:06:00
2 1970-04-14 00:00:00 Temperatura 20.8 del 13-04-1970 20:00, Mayor que la Máxima 2.1 14-04-1970 00:00 20.8 -- 2.1 2013-05-01 12:06:00
2 1970-04-25 00:00:00 Temperatura 19.6 del 24-04-1970 20:00, Mayor que la Máxima 2.1 25-04-1970 00:00 19.6 -- 2.1 2013-05-01 12:06:00
2 1970-06-25 00:00:00 Temperatura 17.4 del 24-06-1970 20:00, Mayor que la Máxima 17.0 25-06-1970 00:00 17.4 -- 17.0 2013-05-01 12:06:00
2 1970-08-11 00:00:00 Temperatura 17.6 del 10-08-1970 18:00, Mayor que la Máxima 17.0 11-08-1970 00:00 17.6 -- 17.0 2013-05-01 12:06:00
2 1970-08-20 00:00:00 Temperatura 23.0 del 19-08-1970 19:00, Mayor que la Máxima 22.8 20-08-1970 00:00 23.0 -- 22.8 2013-05-01 12:06:00
2 1970-08-23 00:00:00 Temperatura 25.8 del 22-08-1970 20:00, Mayor que la Máxima 25.7 23-08-1970 00:00 25.8 -- 25.7 2013-05-01 12:06:00
2 1970-08-28 00:00:00 Temperatura 25.2 del 27-08-1970 18:00, Mayor que la Máxima 25.0 28-08-1970 00:00 25.2 -- 25.0 2013-05-01 12:06:00
2 1970-09-16 00:00:00 Temperatura 27.0 del 15-09-1970 18:00, Mayor que la Máxima 23.9 16-09-1970 00:00 27.0 -- 23.9 2013-05-01 12:06:00
2 1970-10-25 00:00:00 Temperatura 23.4 del 24-10-1970 18:00, Mayor que la Máxima 22.6 25-10-1970 00:00 23.4 -- 22.6 2013-05-01 12:06:00
2 1970-11-02 00:00:00 Temperatura 28.0 del 01-11-1970 18:00, Mayor que la Máxima 2.9 02-11-1970 00:00 28.0 -- 2.9 2013-05-01 12:06:00
2 1970-11-03 00:00:00 Temperatura 23.7 del 02-11-1970 20:00, Mayor que la Máxima 2.4 03-11-1970 00:00 23.7 -- 2.4 2013-05-01 12:06:00
2 1970-11-12 00:00:00 Temperatura 21.8 del 11-11-1970 18:00, Mayor que la Máxima 21.0 12-11-1970 00:00 21.8 -- 21.0 2013-05-01 12:06:00
2 1971-02-27 00:00:00 Temperatura 25.7 del 26-02-1971 18:00, Mayor que la Máxima 25.4 27-02-1971 00:00 25.7 -- 25.4 2013-05-01 12:06:00
2 1971-05-02 00:00:00 Temperatura 18.2 del 01-05-1971 21:00, Mayor que la Máxima 1.8 02-05-1971 00:00 18.2 -- 1.8 2013-05-01 12:06:00
2 1971-05-08 00:00:00 Temperatura 21.8 del 07-05-1971 18:00, Mayor que la Máxima 20.6 08-05-1971 00:00 21.8 -- 20.6 2013-05-01 12:06:00
2 1971-07-04 00:00:00 Temperatura 16.4 del 03-07-1971 19:00, Mayor que la Máxima 16.0 04-07-1971 00:00 16.4 -- 16.0 2013-05-01 12:06:00
2 1971-08-29 00:00:00 Temperatura 31.6 del 28-08-1971 21:00, Mayor que la Máxima 24.8 29-08-1971 00:00 31.6 -- 24.8 2013-05-01 12:06:00
2 1971-11-07 00:00:00 Temperatura 21.8 del 06-11-1971 19:00, Mayor que la Máxima 21.4 07-11-1971 00:00 21.8 -- 21.4 2013-05-01 12:06:00
2 1972-01-15 00:00:00 Temperatura 25.0 del 14-01-1972 21:00, Mayor que la Máxima 15.0 15-01-1972 00:00 25.0 -- 15.0 2013-05-01 12:06:00
2 1972-03-16 00:00:00 Temperatura 23.8 del 15-03-1972 20:00, Mayor que la Máxima 23.1 16-03-1972 00:00 23.8 -- 23.1 2013-05-01 12:06:00
2 1972-04-14 00:00:00 Temperatura 21.0 del 13-04-1972 18:00, Mayor que la Máxima 20.8 14-04-1972 00:00 21.0 -- 20.8 2013-05-01 12:06:00
2 1972-05-19 00:00:00 Temperatura 17.8 del 18-05-1972 20:00, Mayor que la Máxima 17.6 19-05-1972 00:00 17.8 -- 17.6 2013-05-01 12:06:00
2 1972-06-03 00:00:00 Temperatura 21.6 del 02-06-1972 16:00, Mayor que la Máxima 20.8 03-06-1972 00:00 21.6 -- 20.8 2013-05-01 12:06:00
2 1972-06-18 00:00:00 Temperatura 24.2 del 17-06-1972 18:00, Mayor que la Máxima 24.0 18-06-1972 00:00 24.2 -- 24.0 2013-05-01 12:06:00
2 1972-06-19 00:00:00 Temperatura 22.0 del 18-06-1972 15:00, Mayor que la Máxima 20.0 19-06-1972 00:00 22.0 -- 20.0 2013-05-01 12:06:00
2 1972-07-03 00:00:00 Temperatura 18.3 del 02-07-1972 20:00, Mayor que la Máxima 18.0 03-07-1972 00:00 18.3 -- 18.0 2013-05-01 12:06:00
2 1972-07-20 00:00:00 Temperatura 16.1 del 19-07-1972 20:00, Mayor que la Máxima 16.0 20-07-1972 00:00 16.1 -- 16.0 2013-05-01 12:06:00
2 1972-09-03 00:00:00 Temperatura 16.3 del 02-09-1972 21:00, Mayor que la Máxima 16.0 03-09-1972 00:00 16.3 -- 16.0 2013-05-01 12:06:00
2 1972-09-07 00:00:00 Temperatura 16.2 del 06-09-1972 20:00, Mayor que la Máxima 16.0 07-09-1972 00:00 16.2 -- 16.0 2013-05-01 12:06:00
2 1972-09-16 00:00:00 Temperatura 16.3 del 15-09-1972 14:00, Mayor que la Máxima 11.4 16-09-1972 00:00 16.3 -- 11.4 2013-05-01 12:06:00
2 1972-11-24 00:00:00 Temperatura 22.6 del 23-11-1972 20:00, Mayor que la Máxima 22.5 24-11-1972 00:00 22.6 -- 22.5 2013-05-01 12:06:00
2 1972-12-09 00:00:00 Temperatura 23.9 del 08-12-1972 19:00, Mayor que la Máxima 23.6 09-12-1972 00:00 23.9 -- 23.6 2013-05-01 12:06:00
2 1973-01-29 00:00:00 Temperatura 26.7 del 28-01-1973 15:00, Mayor que la Máxima 25.9 29-01-1973 00:00 26.7 -- 25.9 2013-05-01 12:06:00
2 1973-03-01 00:00:00 Temperatura 27.6 del 28-02-1973 16:00, Mayor que la Máxima 27.1 01-03-1973 00:00 27.6 -- 27.1 2013-05-01 12:06:00
2 1973-07-16 00:00:00 Temperatura 10.3 del 15-07-1973 22:00, Mayor que la Máxima 10.0 16-07-1973 00:00 10.3 -- 10.0 2013-05-01 12:06:00
2 1973-12-20 00:00:00 Temperatura 25.8 del 19-12-1973 20:00, Mayor que la Máxima 25.6 20-12-1973 00:00 25.8 -- 25.6 2013-05-01 12:07:00
2 1974-03-30 00:00:00 Temperatura 18.6 del 29-03-1974 22:00, Mayor que la Máxima 18.2 30-03-1974 00:00 18.6 -- 18.2 2013-05-01 12:07:00
2 1974-04-04 00:00:00 Temperatura 23.4 del 03-04-1974 20:00, Mayor que la Máxima 23.2 04-04-1974 00:00 23.4 -- 23.2 2013-05-01 12:07:00
2 1974-04-28 00:00:00 Temperatura 19.1 del 27-04-1974 20:00, Mayor que la Máxima 18.8 28-04-1974 00:00 19.1 -- 18.8 2013-05-01 12:07:00
2 1974-05-06 00:00:00 Temperatura 22.4 del 05-05-1974 19:00, Mayor que la Máxima 20.0 06-05-1974 00:00 22.4 -- 20.0 2013-05-01 12:07:00
2 1974-05-10 00:00:00 Temperatura 15.2 del 09-05-1974 21:00, Mayor que la Máxima 14.9 10-05-1974 00:00 15.2 -- 14.9 2013-05-01 12:07:00
2 1974-06-05 00:00:00 Temperatura 23.2 del 04-06-1974 18:00, Mayor que la Máxima 22.8 05-06-1974 00:00 23.2 -- 22.8 2013-05-01 12:07:00
2 1974-08-27 00:00:00 Temperatura 17.2 del 26-08-1974 18:00, Mayor que la Máxima 14.4 27-08-1974 00:00 17.2 -- 14.4 2013-05-01 12:07:00
2 1974-09-10 00:00:00 Temperatura 24.2 del 09-09-1974 20:00, Mayor que la Máxima 24.1 10-09-1974 00:00 24.2 -- 24.1 2013-05-01 12:07:00
2 1974-09-11 00:00:00 Temperatura 18.9 del 10-09-1974 17:00, Mayor que la Máxima 18.0 11-09-1974 00:00 18.9 -- 18.0 2013-05-01 12:07:00
2 1974-09-28 00:00:00 Temperatura 20.0 del 27-09-1974 19:00, Mayor que la Máxima 19.9 28-09-1974 00:00 20.0 -- 19.9 2013-05-01 12:07:00
2 1974-10-09 00:00:00 Temperatura 24.6 del 08-10-1974 17:00, Mayor que la Máxima 23.2 09-10-1974 00:00 24.6 -- 23.2 2013-05-01 12:07:00
2 1974-11-08 00:00:00 Temperatura 24.2 del 07-11-1974 17:00, Mayor que la Máxima 23.8 08-11-1974 00:00 24.2 -- 23.8 2013-05-01 12:07:00
2 1974-11-09 00:00:00 Temperatura 24.6 del 08-11-1974 19:00, Mayor que la Máxima 24.5 09-11-1974 00:00 24.6 -- 24.5 2013-05-01 12:07:00
2 1974-11-16 00:00:00 Temperatura 25.7 del 15-11-1974 19:00, Mayor que la Máxima 2.6 16-11-1974 00:00 25.7 -- 2.6 2013-05-01 12:07:00
2 1974-11-17 00:00:00 Temperatura 25.8 del 16-11-1974 20:00, Mayor que la Máxima 25.7 17-11-1974 00:00 25.8 -- 25.7 2013-05-01 12:07:00
2 1974-11-21 00:00:00 Temperatura 21.0 del 20-11-1974 19:00, Mayor que la Máxima 2.1 21-11-1974 00:00 21.0 -- 2.1 2013-05-01 12:07:00
2 1974-11-22 00:00:00 Temperatura 22.9 del 21-11-1974 18:00, Mayor que la Máxima 22.5 22-11-1974 00:00 22.9 -- 22.5 2013-05-01 12:07:00
2 1974-12-01 00:00:00 Temperatura 19.9 del 30-11-1974 20:00, Mayor que la Máxima 18.7 01-12-1974 00:00 19.9 -- 18.7 2013-05-01 12:07:00
2 1974-12-23 00:00:00 Temperatura 33.8 del 22-12-1974 21:00, Mayor que la Máxima 25.4 23-12-1974 00:00 33.8 -- 25.4 2013-05-01 12:07:00
2 1975-02-24 00:00:00 Temperatura 27.2 del 23-02-1975 20:00, Mayor que la Máxima 27.0 24-02-1975 00:00 27.2 -- 27.0 2013-05-01 12:07:00
2 1975-03-10 00:00:00 Temperatura 22.7 del 09-03-1975 20:00, Mayor que la Máxima 22.2 10-03-1975 00:00 22.7 -- 22.2 2013-05-01 12:07:00
2 1975-06-02 00:00:00 Temperatura 15.2 del 01-06-1975 21:00, Mayor que la Máxima 15.0 02-06-1975 00:00 15.2 -- 15.0 2013-05-01 12:07:00
2 1975-06-06 00:00:00 Temperatura 17.5 del 05-06-1975 20:00, Mayor que la Máxima 17.4 06-06-1975 00:00 17.5 -- 17.4 2013-05-01 12:07:00
2 1975-07-16 00:00:00 Temperatura 21.6 del 16-07-1975 00:00, Mayor que la Máxima 18.6 16-07-1975 00:00 21.6 -- 18.6 2013-05-01 12:07:00
2 1975-07-29 00:00:00 Temperatura 26.0 del 28-07-1975 21:00, Mayor que la Máxima 22.0 29-07-1975 00:00 26.0 -- 22.0 2013-05-01 12:07:00
2 1975-08-06 00:00:00 Temperatura 22.4 del 05-08-1975 18:00, Mayor que la Máxima 22.2 06-08-1975 00:00 22.4 -- 22.2 2013-05-01 12:07:00
2 1975-08-08 00:00:00 Temperatura 15.2 del 07-08-1975 18:00, Mayor que la Máxima 14.7 08-08-1975 00:00 15.2 -- 14.7 2013-05-01 12:07:00
2 1975-08-09 00:00:00 Temperatura 18.6 del 09-08-1975 00:00, Mayor que la Máxima 13.7 09-08-1975 00:00 18.6 -- 13.7 2013-05-01 12:07:00
2 1975-09-07 00:00:00 Temperatura 16.8 del 06-09-1975 21:00, Mayor que la Máxima 16.0 07-09-1975 00:00 16.8 -- 16.0 2013-05-01 12:07:00
2 1975-09-19 00:00:00 Temperatura 17.9 del 18-09-1975 19:00, Mayor que la Máxima 17.0 19-09-1975 00:00 17.9 -- 17.0 2013-05-01 12:07:00
2 1975-09-23 00:00:00 Temperatura 19.2 del 22-09-1975 20:00, Mayor que la Máxima 19.0 23-09-1975 00:00 19.2 -- 19.0 2013-05-01 12:07:00
2 1975-09-28 00:00:00 Temperatura 20.0 del 27-09-1975 19:00, Mayor que la Máxima 19.8 28-09-1975 00:00 20.0 -- 19.8 2013-05-01 12:07:00
2 1975-10-06 00:00:00 Temperatura 22.9 del 05-10-1975 17:00, Mayor que la Máxima 22.8 06-10-1975 00:00 22.9 -- 22.8 2013-05-01 12:07:00
2 1975-10-10 00:00:00 Temperatura 21.2 del 09-10-1975 18:00, Mayor que la Máxima 21.0 10-10-1975 00:00 21.2 -- 21.0 2013-05-01 12:07:00
2 1976-07-11 00:00:00 Temperatura 14.3 del 10-07-1976 20:00, Mayor que la Máxima 13.9 11-07-1976 00:00 14.3 -- 13.9 2013-05-01 12:07:00
2 1976-08-02 00:00:00 Temperatura 15.7 del 01-08-1976 14:00, Mayor que la Máxima 15.3 02-08-1976 00:00 15.7 -- 15.3 2013-05-01 12:07:00
2 1976-08-10 00:00:00 Temperatura 18.8 del 09-08-1976 21:00, Mayor que la Máxima 14.3 10-08-1976 00:00 18.8 -- 14.3 2013-05-01 12:07:00
2 1976-11-26 00:00:00 Temperatura 22.9 del 25-11-1976 19:00, Mayor que la Máxima 22.5 26-11-1976 00:00 22.9 -- 22.5 2013-05-01 12:07:00
2 1977-02-07 00:00:00 Temperatura 24.9 del 06-02-1977 19:00, Mayor que la Máxima 24.5 07-02-1977 00:00 24.9 -- 24.5 2013-05-01 12:08:00
2 1977-07-18 00:00:00 Temperatura 14.0 del 17-07-1977 20:00, Mayor que la Máxima 13.9 18-07-1977 00:00 14.0 -- 13.9 2013-05-01 12:08:00
2 1977-08-14 00:00:00 Temperatura 18.1 del 13-08-1977 19:00, Mayor que la Máxima 18.0 14-08-1977 00:00 18.1 -- 18.0 2013-05-01 12:08:00
2 1977-08-29 00:00:00 Temperatura 18.4 del 28-08-1977 19:00, Mayor que la Máxima 18.0 29-08-1977 00:00 18.4 -- 18.0 2013-05-01 12:08:00
2 1977-10-23 00:00:00 Temperatura 20.4 del 22-10-1977 18:00, Mayor que la Máxima 12.1 23-10-1977 00:00 20.4 -- 12.1 2013-05-01 12:08:00
2 1977-12-29 00:00:00 Temperatura 25.1 del 28-12-1977 17:00, Mayor que la Máxima 25.0 29-12-1977 00:00 25.1 -- 25.0 2013-05-01 12:08:00
2 1978-01-01 00:00:00 Temperatura 36.0 del 31-12-1977 18:00, Mayor que la Máxima 26.0 01-01-1978 00:00 36.0 -- 26.0 2013-05-01 12:08:00
2 1978-01-15 00:00:00 Temperatura 26.4 del 14-01-1978 18:00, Mayor que la Máxima 26.0 15-01-1978 00:00 26.4 -- 26.0 2013-05-01 12:08:00
2 1978-02-24 00:00:00 Temperatura 26.2 del 23-02-1978 19:00, Mayor que la Máxima 26.1 24-02-1978 00:00 26.2 -- 26.1 2013-05-01 12:08:00
2 1978-03-05 00:00:00 Temperatura 26.1 del 04-03-1978 18:00, Mayor que la Máxima 25.6 05-03-1978 00:00 26.1 -- 25.6 2013-05-01 12:08:00
2 1978-03-26 00:00:00 Temperatura 19.7 del 25-03-1978 21:00, Mayor que la Máxima 19.6 26-03-1978 00:00 19.7 -- 19.6 2013-05-01 12:08:00
2 1978-06-20 00:00:00 Temperatura 23.8 del 19-06-1978 20:00, Mayor que la Máxima 2.5 20-06-1978 00:00 23.8 -- 2.5 2013-05-01 12:08:00
2 1978-07-28 00:00:00 Temperatura 14.6 del 27-07-1978 21:00, Mayor que la Máxima 14.5 28-07-1978 00:00 14.6 -- 14.5 2013-05-01 12:08:00
2 1978-08-03 00:00:00 Temperatura 17.1 del 02-08-1978 20:00, Mayor que la Máxima 17.0 03-08-1978 00:00 17.1 -- 17.0 2013-05-01 12:08:00
2 1978-08-19 00:00:00 Temperatura 16.4 del 18-08-1978 19:00, Mayor que la Máxima 16.1 19-08-1978 00:00 16.4 -- 16.1 2013-05-01 12:08:00
2 1978-10-28 00:00:00 Temperatura 24.0 del 27-10-1978 18:00, Mayor que la Máxima 2.4 28-10-1978 00:00 24.0 -- 2.4 2013-05-01 12:08:00
2 1978-11-08 00:00:00 Temperatura 25.6 del 07-11-1978 19:00, Mayor que la Máxima 25.5 08-11-1978 00:00 25.6 -- 25.5 2013-05-01 12:08:00
2 1978-11-15 00:00:00 Temperatura 23.8 del 14-11-1978 17:00, Mayor que la Máxima 2.4 15-11-1978 00:00 23.8 -- 2.4 2013-05-01 12:08:00
2 1978-12-26 00:00:00 Temperatura 26.6 del 25-12-1978 19:00, Mayor que la Máxima 26.3 26-12-1978 00:00 26.6 -- 26.3 2013-05-01 12:08:00
2 1979-02-13 00:00:00 Temperatura 25.7 del 12-02-1979 18:00, Mayor que la Máxima 25.6 13-02-1979 00:00 25.7 -- 25.6 2013-05-01 12:08:00
2 1979-04-24 00:00:00 Temperatura 22.5 del 23-04-1979 18:00, Mayor que la Máxima 22.3 24-04-1979 00:00 22.5 -- 22.3 2013-05-01 12:08:00
2 1979-07-28 00:00:00 Temperatura 28.4 del 27-07-1979 18:00, Mayor que la Máxima 28.0 28-07-1979 00:00 28.4 -- 28.0 2013-05-01 12:08:00
2 1979-08-07 00:00:00 Temperatura 21.0 del 06-08-1979 20:00, Mayor que la Máxima 20.9 07-08-1979 00:00 21.0 -- 20.9 2013-05-01 12:08:00
2 1979-08-16 00:00:00 Temperatura 13.4 del 15-08-1979 19:00, Mayor que la Máxima 12.8 16-08-1979 00:00 13.4 -- 12.8 2013-05-01 12:08:00
2 1979-09-05 00:00:00 Temperatura 27.8 del 04-09-1979 15:00, Mayor que la Máxima 27.5 05-09-1979 00:00 27.8 -- 27.5 2013-05-01 12:08:00
2 1979-12-19 00:00:00 Temperatura 25.4 del 18-12-1979 18:00, Mayor que la Máxima 25.3 19-12-1979 00:00 25.4 -- 25.3 2013-05-01 12:08:00
2 1979-12-21 00:00:00 Temperatura 27.2 del 20-12-1979 19:00, Mayor que la Máxima 27.0 21-12-1979 00:00 27.2 -- 27.0 2013-05-01 12:08:00
2 1980-02-10 00:00:00 Temperatura 26.4 del 09-02-1980 19:00, Mayor que la Máxima 26.3 10-02-1980 00:00 26.4 -- 26.3 2013-05-01 12:08:00
2 1980-04-13 00:00:00 Temperatura 24.4 del 12-04-1980 16:00, Mayor que la Máxima 22.3 13-04-1980 00:00 24.4 -- 22.3 2013-05-01 12:08:00
2 1980-06-02 00:00:00 Temperatura 27.4 del 01-06-1980 17:00, Mayor que la Máxima 20.1 02-06-1980 00:00 27.4 -- 20.1 2013-05-01 12:08:00
2 1980-08-05 00:00:00 Temperatura 17.7 del 04-08-1980 19:00, Mayor que la Máxima 17.4 05-08-1980 00:00 17.7 -- 17.4 2013-05-01 12:08:00
2 1980-09-03 00:00:00 Temperatura 21.1 del 02-09-1980 19:00, Mayor que la Máxima 21.0 03-09-1980 00:00 21.1 -- 21.0 2013-05-01 12:09:00
2 1980-10-16 00:00:00 Temperatura 20.2 del 15-10-1980 19:00, Mayor que la Máxima 20.0 16-10-1980 00:00 20.2 -- 20.0 2013-05-01 12:09:00
2 1980-12-11 00:00:00 Temperatura 27.4 del 10-12-1980 23:00, Mayor que la Máxima 23.2 11-12-1980 00:00 27.4 -- 23.2 2013-05-01 12:09:00
2 1981-01-18 00:00:00 Temperatura 24.8 del 17-01-1981 19:00, Mayor que la Máxima 24.4 18-01-1981 00:00 24.8 -- 24.4 2013-05-01 12:09:00
2 1981-03-25 00:00:00 Temperatura 25.8 del 24-03-1981 19:00, Mayor que la Máxima 25.6 25-03-1981 00:00 25.8 -- 25.6 2013-05-01 12:09:00
2 1981-04-16 00:00:00 Temperatura 23.4 del 15-04-1981 19:00, Mayor que la Máxima 23.2 16-04-1981 00:00 23.4 -- 23.2 2013-05-01 12:09:00
2 1981-05-03 00:00:00 Temperatura 19.8 del 02-05-1981 20:00, Mayor que la Máxima 19.6 03-05-1981 00:00 19.8 -- 19.6 2013-05-01 12:09:00
2 1981-05-31 00:00:00 Temperatura 20.5 del 30-05-1981 20:00, Mayor que la Máxima 20.4 31-05-1981 00:00 20.5 -- 20.4 2013-05-01 12:09:00
2 1981-07-28 00:00:00 Temperatura 16.9 del 27-07-1981 20:00, Mayor que la Máxima 16.6 28-07-1981 00:00 16.9 -- 16.6 2013-05-01 12:09:00
2 1981-07-31 00:00:00 Temperatura 19.0 del 30-07-1981 14:00, Mayor que la Máxima 18.4 31-07-1981 00:00 19.0 -- 18.4 2013-05-01 12:09:00
2 1981-08-08 00:00:00 Temperatura 18.0 del 07-08-1981 20:00, Mayor que la Máxima 17.8 08-08-1981 00:00 18.0 -- 17.8 2013-05-01 12:09:00
2 1981-08-13 00:00:00 Temperatura 21.6 del 12-08-1981 20:00, Mayor que la Máxima 21.5 13-08-1981 00:00 21.6 -- 21.5 2013-05-01 12:09:00
2 1981-08-19 00:00:00 Temperatura 22.6 del 18-08-1981 14:00, Mayor que la Máxima 22.2 19-08-1981 00:00 22.6 -- 22.2 2013-05-01 12:09:00
2 1981-09-15 00:00:00 Temperatura 24.4 del 14-09-1981 19:00, Mayor que la Máxima 24.2 15-09-1981 00:00 24.4 -- 24.2 2013-05-01 12:09:00
2 1981-10-19 00:00:00 Temperatura 23.6 del 18-10-1981 18:00, Mayor que la Máxima 23.2 19-10-1981 00:00 23.6 -- 23.2 2013-05-01 12:09:00
2 1981-12-07 00:00:00 Temperatura 28.0 del 06-12-1981 23:00, Mayor que la Máxima 25.4 07-12-1981 00:00 28.0 -- 25.4 2013-05-01 12:09:00
2 1981-12-09 00:00:00 Temperatura 23.0 del 08-12-1981 16:00, Mayor que la Máxima 22.8 09-12-1981 00:00 23.0 -- 22.8 2013-05-01 12:09:00
2 1981-12-10 00:00:00 Temperatura 26.6 del 09-12-1981 19:00, Mayor que la Máxima 26.0 10-12-1981 00:00 26.6 -- 26.0 2013-05-01 12:09:00
2 1981-12-30 00:00:00 Temperatura 24.6 del 29-12-1981 18:00, Mayor que la Máxima 24.4 30-12-1981 00:00 24.6 -- 24.4 2013-05-01 12:09:00
2 1982-01-05 00:00:00 Temperatura 30.0 del 04-01-1982 23:00, Mayor que la Máxima 28.0 05-01-1982 00:00 30.0 -- 28.0 2013-05-01 12:09:00
2 1982-01-19 00:00:00 Temperatura 26.0 del 18-01-1982 19:00, Mayor que la Máxima 25.6 19-01-1982 00:00 26.0 -- 25.6 2013-05-01 12:09:00
2 1982-02-16 00:00:00 Temperatura 25.2 del 15-02-1982 19:00, Mayor que la Máxima 25.0 16-02-1982 00:00 25.2 -- 25.0 2013-05-01 12:09:00
2 1982-04-23 00:00:00 Temperatura 20.6 del 22-04-1982 19:00, Mayor que la Máxima 20.0 23-04-1982 00:00 20.6 -- 20.0 2013-05-01 12:09:00
2 1982-05-15 00:00:00 Temperatura 30.6 del 14-05-1982 14:00, Mayor que la Máxima 25.0 15-05-1982 00:00 30.6 -- 25.0 2013-05-01 12:09:00
2 1982-05-18 00:00:00 Temperatura 20.2 del 17-05-1982 20:00, Mayor que la Máxima 20.0 18-05-1982 00:00 20.2 -- 20.0 2013-05-01 12:09:00
2 1982-06-15 00:00:00 Temperatura 15.3 del 14-06-1982 19:00, Mayor que la Máxima 15.2 15-06-1982 00:00 15.3 -- 15.2 2013-05-01 12:09:00
2 1982-08-11 00:00:00 Temperatura 19.6 del 10-08-1982 20:00, Mayor que la Máxima 19.2 11-08-1982 00:00 19.6 -- 19.2 2013-05-01 12:09:00
2 1982-08-26 00:00:00 Temperatura 30.6 del 25-08-1982 16:00, Mayor que la Máxima 23.0 26-08-1982 00:00 30.6 -- 23.0 2013-05-01 12:09:00
2 1982-09-21 00:00:00 Temperatura 20.6 del 20-09-1982 19:00, Mayor que la Máxima 20.4 21-09-1982 00:00 20.6 -- 20.4 2013-05-01 12:09:00
2 1982-10-08 00:00:00 Temperatura 26.2 del 07-10-1982 20:00, Mayor que la Máxima 26.0 08-10-1982 00:00 26.2 -- 26.0 2013-05-01 12:09:00
2 1982-10-22 00:00:00 Temperatura 24.8 del 21-10-1982 18:00, Mayor que la Máxima 24.6 22-10-1982 00:00 24.8 -- 24.6 2013-05-01 12:09:00
2 1982-11-25 00:00:00 Temperatura 25.4 del 24-11-1982 20:00, Mayor que la Máxima 25.0 25-11-1982 00:00 25.4 -- 25.0 2013-05-01 12:09:00
2 1982-12-10 00:00:00 Temperatura 29.0 del 09-12-1982 22:00, Mayor que la Máxima 24.6 10-12-1982 00:00 29.0 -- 24.6 2013-05-01 12:09:00
2 1982-12-13 00:00:00 Temperatura 28.8 del 12-12-1982 23:00, Mayor que la Máxima 24.4 13-12-1982 00:00 28.8 -- 24.4 2013-05-01 12:09:00
2 1983-02-16 00:00:00 Temperatura 27.7 del 15-02-1983 18:00, Mayor que la Máxima 27.6 16-02-1983 00:00 27.7 -- 27.6 2013-05-01 12:09:00
2 1983-03-20 00:00:00 Temperatura 25.8 del 19-03-1983 21:00, Mayor que la Máxima 25.6 20-03-1983 00:00 25.8 -- 25.6 2013-05-01 12:09:00
2 1983-03-22 00:00:00 Temperatura 28.4 del 21-03-1983 20:00, Mayor que la Máxima 28.2 22-03-1983 00:00 28.4 -- 28.2 2013-05-01 12:09:00
2 1983-05-08 00:00:00 Temperatura 29.8 del 07-05-1983 20:00, Mayor que la Máxima 25.2 08-05-1983 00:00 29.8 -- 25.2 2013-05-01 12:09:00
2 1983-06-12 00:00:00 Temperatura 19.3 del 11-06-1983 14:00, Mayor que la Máxima 18.2 12-06-1983 00:00 19.3 -- 18.2 2013-05-01 12:09:00
2 1983-07-31 00:00:00 Temperatura 20.8 del 30-07-1983 22:00, Mayor que la Máxima 14.8 31-07-1983 00:00 20.8 -- 14.8 2013-05-01 12:09:00
2 1983-08-09 00:00:00 Temperatura 23.2 del 08-08-1983 17:00, Mayor que la Máxima 23.0 09-08-1983 00:00 23.2 -- 23.0 2013-05-01 12:09:00
2 1983-08-30 00:00:00 Temperatura 19.8 del 29-08-1983 16:00, Mayor que la Máxima 17.0 30-08-1983 00:00 19.8 -- 17.0 2013-05-01 12:09:00
2 1983-10-12 00:00:00 Temperatura 20.8 del 11-10-1983 19:00, Mayor que la Máxima 20.6 12-10-1983 00:00 20.8 -- 20.6 2013-05-01 12:09:00
2 1983-11-11 00:00:00 Temperatura 24.4 del 10-11-1983 19:00, Mayor que la Máxima 24.2 11-11-1983 00:00 24.4 -- 24.2 2013-05-01 12:09:00
2 1984-12-28 00:00:00 Temperatura 26.6 del 27-12-1984 19:00, Mayor que la Máxima 22.8 28-12-1984 00:00 26.6 -- 22.8 2013-05-01 12:10:00
2 1985-01-24 00:00:00 Temperatura 27.8 del 23-01-1985 17:00, Mayor que la Máxima 26.0 24-01-1985 00:00 27.8 -- 26.0 2013-05-01 12:10:00
2 1985-02-23 00:00:00 Temperatura 27.0 del 22-02-1985 19:00, Mayor que la Máxima 26.6 23-02-1985 00:00 27.0 -- 26.6 2013-05-01 12:10:00
2 1985-04-18 00:00:00 Temperatura 22.4 del 17-04-1985 19:00, Mayor que la Máxima 22.2 18-04-1985 00:00 22.4 -- 22.2 2013-05-01 12:10:00
2 1985-07-29 00:00:00 Temperatura 17.7 del 28-07-1985 19:00, Mayor que la Máxima 14.4 29-07-1985 00:00 17.7 -- 14.4 2013-05-01 12:10:00
2 1986-02-05 00:00:00 Temperatura 28.1 del 04-02-1986 18:00, Mayor que la Máxima 28.0 05-02-1986 00:00 28.1 -- 28.0 2013-05-01 12:10:00
2 1986-03-20 00:00:00 Temperatura 22.4 del 19-03-1986 19:00, Mayor que la Máxima 22.3 20-03-1986 00:00 22.4 -- 22.3 2013-05-01 12:10:00
2 1986-08-04 00:00:00 Temperatura 18.6 del 03-08-1986 20:00, Mayor que la Máxima 18.2 04-08-1986 00:00 18.6 -- 18.2 2013-05-01 12:10:00
2 1987-03-07 00:00:00 Temperatura 28.0 del 06-03-1987 18:00, Mayor que la Máxima 27.8 07-03-1987 00:00 28.0 -- 27.8 2013-05-01 12:10:00
2 1987-10-13 00:00:00 Temperatura 24.0 del 12-10-1987 19:00, Mayor que la Máxima 23.7 13-10-1987 00:00 24.0 -- 23.7 2013-05-01 12:11:00
2 1987-10-25 00:00:00 Temperatura 21.5 del 24-10-1987 17:00, Mayor que la Máxima 21.2 25-10-1987 00:00 21.5 -- 21.2 2013-05-01 12:11:00
2 1987-12-01 00:00:00 Temperatura 24.8 del 30-11-1987 19:00, Mayor que la Máxima 24.0 01-12-1987 00:00 24.8 -- 24.0 2013-05-01 12:11:00
2 1987-12-04 00:00:00 Temperatura 24.0 del 03-12-1987 19:00, Mayor que la Máxima 23.8 04-12-1987 00:00 24.0 -- 23.8 2013-05-01 12:11:00
2 1987-12-07 00:00:00 Temperatura 23.2 del 06-12-1987 20:00, Mayor que la Máxima 22.8 07-12-1987 00:00 23.2 -- 22.8 2013-05-01 12:11:00
2 1987-12-27 00:00:00 Temperatura 29.4 del 26-12-1987 19:00, Mayor que la Máxima 24.4 27-12-1987 00:00 29.4 -- 24.4 2013-05-01 12:11:00
2 1988-01-10 00:00:00 Temperatura 25.4 del 09-01-1988 22:00, Mayor que la Máxima 25.0 10-01-1988 00:00 25.4 -- 25.0 2013-05-01 12:11:00
2 1988-01-26 00:00:00 Temperatura 26.0 del 25-01-1988 20:00, Mayor que la Máxima 25.8 26-01-1988 00:00 26.0 -- 25.8 2013-05-01 12:11:00
2 1988-03-01 00:00:00 Temperatura 26.6 del 29-02-1988 17:00, Mayor que la Máxima 26.2 01-03-1988 00:00 26.6 -- 26.2 2013-05-01 12:11:00
2 1988-04-13 00:00:00 Temperatura 25.3 del 12-04-1988 17:00, Mayor que la Máxima 21.7 13-04-1988 00:00 25.3 -- 21.7 2013-05-01 12:11:00
2 1988-06-14 00:00:00 Temperatura 12.4 del 13-06-1988 21:00, Mayor que la Máxima 12.1 14-06-1988 00:00 12.4 -- 12.1 2013-05-01 12:11:00
2 1988-06-30 00:00:00 Temperatura 23.8 del 29-06-1988 20:00, Mayor que la Máxima 23.2 30-06-1988 00:00 23.8 -- 23.2 2013-05-01 12:11:00
2 1988-10-18 00:00:00 Temperatura 29.0 del 17-10-1988 19:00, Mayor que la Máxima 23.2 18-10-1988 00:00 29.0 -- 23.2 2013-05-01 12:11:00
2 1988-12-20 00:00:00 Temperatura 30.8 del 19-12-1988 22:00, Mayor que la Máxima 23.8 20-12-1988 00:00 30.8 -- 23.8 2013-05-01 12:11:00
2 1989-02-26 00:00:00 Temperatura 26.3 del 25-02-1989 19:00, Mayor que la Máxima 26.2 26-02-1989 00:00 26.3 -- 26.2 2013-05-01 12:11:00
2 1989-03-18 00:00:00 Temperatura 24.4 del 17-03-1989 17:00, Mayor que la Máxima 24.3 18-03-1989 00:00 24.4 -- 24.3 2013-05-01 12:11:00
2 1989-05-09 00:00:00 Temperatura 20.6 del 08-05-1989 19:00, Mayor que la Máxima 20.5 09-05-1989 00:00 20.6 -- 20.5 2013-05-01 12:11:00
2 1989-06-12 00:00:00 Temperatura 28.5 del 11-06-1989 14:00, Mayor que la Máxima 28.1 12-06-1989 00:00 28.5 -- 28.1 2013-05-01 12:11:00
2 1989-08-04 00:00:00 Temperatura 18.7 del 03-08-1989 19:00, Mayor que la Máxima 17.0 04-08-1989 00:00 18.7 -- 17.0 2013-05-01 12:11:00
2 1989-10-03 00:00:00 Temperatura 28.0 del 02-10-1989 21:00, Mayor que la Máxima 24.0 03-10-1989 00:00 28.0 -- 24.0 2013-05-01 12:11:00
2 1989-10-31 00:00:00 Temperatura 24.6 del 30-10-1989 17:00, Mayor que la Máxima 21.4 31-10-1989 00:00 24.6 -- 21.4 2013-05-01 12:11:00
2 1990-12-20 00:00:00 Temperatura 25.0 del 19-12-1990 19:00, Mayor que la Máxima 24.4 20-12-1990 00:00 25.0 -- 24.4 2013-05-01 12:12:00
2 1991-04-21 00:00:00 Temperatura 21.1 del 20-04-1991 18:00, Mayor que la Máxima 21.0 21-04-1991 00:00 21.1 -- 21.0 2013-05-01 12:12:00
2 1991-09-11 00:00:00 Temperatura 21.0 del 10-09-1991 19:00, Mayor que la Máxima 20.8 11-09-1991 00:00 21.0 -- 20.8 2013-05-01 12:12:00
2 1992-03-26 00:00:00 Temperatura 24.0 del 25-03-1992 20:00, Mayor que la Máxima 19.1 26-03-1992 00:00 24.0 -- 19.1 2013-05-01 12:12:00
2 1992-06-16 00:00:00 Temperatura 18.0 del 15-06-1992 17:00, Mayor que la Máxima 17.6 16-06-1992 00:00 18.0 -- 17.6 2013-05-01 12:12:00
2 1992-08-12 00:00:00 Temperatura 21.0 del 11-08-1992 18:00, Mayor que la Máxima 20.8 12-08-1992 00:00 21.0 -- 20.8 2013-05-01 12:12:00
2 1993-02-28 00:00:00 Temperatura 26.4 del 27-02-1993 19:00, Mayor que la Máxima 25.0 28-02-1993 00:00 26.4 -- 25.0 2013-05-01 12:12:00
2 1993-05-11 00:00:00 Temperatura 21.3 del 10-05-1993 19:00, Mayor que la Máxima 21.2 11-05-1993 00:00 21.3 -- 21.2 2013-05-01 12:12:00
2 1993-05-29 00:00:00 Temperatura 24.0 del 28-05-1993 19:00, Mayor que la Máxima 23.6 29-05-1993 00:00 24.0 -- 23.6 2013-05-01 12:12:00
2 1993-06-26 00:00:00 Temperatura 25.5 del 25-06-1993 15:00, Mayor que la Máxima 25.4 26-06-1993 00:00 25.5 -- 25.4 2013-05-01 12:12:00
2 1993-08-13 00:00:00 Temperatura 25.8 del 12-08-1993 17:00, Mayor que la Máxima 25.4 13-08-1993 00:00 25.8 -- 25.4 2013-05-01 12:12:00
2 1993-08-25 00:00:00 Temperatura 30.6 del 24-08-1993 17:00, Mayor que la Máxima 22.0 25-08-1993 00:00 30.6 -- 22.0 2013-05-01 12:12:00
2 1994-01-07 00:00:00 Temperatura 25.2 del 06-01-1994 19:00, Mayor que la Máxima 25.0 07-01-1994 00:00 25.2 -- 25.0 2013-05-01 12:12:00
2 1994-04-15 00:00:00 Temperatura 20.0 del 14-04-1994 13:00, Mayor que la Máxima 19.0 15-04-1994 00:00 20.0 -- 19.0 2013-05-01 12:13:00
2 1994-06-10 00:00:00 Temperatura 18.0 del 09-06-1994 20:00, Mayor que la Máxima 17.4 10-06-1994 00:00 18.0 -- 17.4 2013-05-01 12:13:00
2 1994-07-27 00:00:00 Temperatura 22.6 del 26-07-1994 14:00, Mayor que la Máxima 20.4 27-07-1994 00:00 22.6 -- 20.4 2013-05-01 12:13:00
2 1994-08-04 00:00:00 Temperatura 16.7 del 03-08-1994 20:00, Mayor que la Máxima 16.6 04-08-1994 00:00 16.7 -- 16.6 2013-05-01 12:13:00
2 1994-08-18 00:00:00 Temperatura 17.0 del 17-08-1994 17:00, Mayor que la Máxima 15.0 18-08-1994 00:00 17.0 -- 15.0 2013-05-01 12:13:00
2 1994-09-14 00:00:00 Temperatura 25.4 del 13-09-1994 18:00, Mayor que la Máxima 24.0 14-09-1994 00:00 25.4 -- 24.0 2013-05-01 12:13:00
2 1994-12-06 00:00:00 Temperatura 24.4 del 05-12-1994 19:00, Mayor que la Máxima 24.0 06-12-1994 00:00 24.4 -- 24.0 2013-05-01 12:13:00
2 1995-06-04 00:00:00 Temperatura 19.6 del 03-06-1995 21:00, Mayor que la Máxima 19.4 04-06-1995 00:00 19.6 -- 19.4 2013-05-01 12:13:00
2 1995-08-13 00:00:00 Temperatura 19.0 del 12-08-1995 18:00, Mayor que la Máxima 17.4 13-08-1995 00:00 19.0 -- 17.4 2013-05-01 12:13:00
2 1995-09-20 00:00:00 Temperatura 24.0 del 19-09-1995 19:00, Mayor que la Máxima 23.3 20-09-1995 00:00 24.0 -- 23.3 2013-05-01 12:13:00
2 1995-11-29 00:00:00 Temperatura 25.0 del 28-11-1995 17:00, Mayor que la Máxima 23.4 29-11-1995 00:00 25.0 -- 23.4 2013-05-01 12:13:00
2 1996-04-28 00:00:00 Temperatura 21.6 del 27-04-1996 20:00, Mayor que la Máxima 21.0 28-04-1996 00:00 21.6 -- 21.0 2013-05-01 12:13:00
2 1996-05-17 00:00:00 Temperatura 16.6 del 16-05-1996 17:00, Mayor que la Máxima 16.4 17-05-1996 00:00 16.6 -- 16.4 2013-05-01 12:13:00
2 1996-06-28 00:00:00 Temperatura 19.6 del 27-06-1996 19:00, Mayor que la Máxima 19.0 28-06-1996 00:00 19.6 -- 19.0 2013-05-01 12:13:00
2 1996-08-07 00:00:00 Temperatura 23.0 del 06-08-1996 20:00, Mayor que la Máxima 22.6 07-08-1996 00:00 23.0 -- 22.6 2013-05-01 12:13:00
2 1996-08-31 00:00:00 Temperatura 18.8 del 30-08-1996 20:00, Mayor que la Máxima 18.6 31-08-1996 00:00 18.8 -- 18.6 2013-05-01 12:13:00
2 1996-09-26 00:00:00 Temperatura 23.0 del 25-09-1996 18:00, Mayor que la Máxima 22.8 26-09-1996 00:00 23.0 -- 22.8 2013-05-01 12:13:00
2 1996-11-02 00:00:00 Temperatura 26.2 del 01-11-1996 20:00, Mayor que la Máxima 25.8 02-11-1996 00:00 26.2 -- 25.8 2013-05-01 12:13:00
2 1997-03-17 00:00:00 Temperatura 25.4 del 16-03-1997 19:00, Mayor que la Máxima 23.4 17-03-1997 00:00 25.4 -- 23.4 2013-05-01 12:13:00
2 1997-04-29 00:00:00 Temperatura 26.4 del 28-04-1997 16:00, Mayor que la Máxima 26.0 29-04-1997 00:00 26.4 -- 26.0 2013-05-01 12:13:00
2 1997-05-04 00:00:00 Temperatura 32.0 del 03-05-1997 16:00, Mayor que la Máxima 25.0 04-05-1997 00:00 32.0 -- 25.0 2013-05-01 12:13:00
2 1997-06-04 00:00:00 Temperatura 18.6 del 03-06-1997 21:00, Mayor que la Máxima 18.0 04-06-1997 00:00 18.6 -- 18.0 2013-05-01 12:13:00
2 1997-07-24 00:00:00 Temperatura 23.0 del 23-07-1997 19:00, Mayor que la Máxima 22.4 24-07-1997 00:00 23.0 -- 22.4 2013-05-01 12:13:00
2 1997-11-13 00:00:00 Temperatura 24.2 del 12-11-1997 20:00, Mayor que la Máxima 24.0 13-11-1997 00:00 24.2 -- 24.0 2013-05-01 12:13:00
2 1997-11-21 00:00:00 Temperatura 24.0 del 20-11-1997 19:00, Mayor que la Máxima 23.8 21-11-1997 00:00 24.0 -- 23.8 2013-05-01 12:13:00
2 1998-01-01 00:00:00 Temperatura 27.8 del 31-12-1997 18:00, Mayor que la Máxima 27.6 01-01-1998 00:00 27.8 -- 27.6 2013-05-01 12:14:00
2 1998-03-17 00:00:00 Temperatura 26.6 del 16-03-1998 18:00, Mayor que la Máxima 25.0 17-03-1998 00:00 26.6 -- 25.0 2013-05-01 12:14:00
2 1998-05-09 00:00:00 Temperatura 23.2 del 08-05-1998 15:00, Mayor que la Máxima 22.6 09-05-1998 00:00 23.2 -- 22.6 2013-05-01 12:14:00
2 1998-06-09 00:00:00 Temperatura 16.4 del 08-06-1998 20:00, Mayor que la Máxima 15.4 09-06-1998 00:00 16.4 -- 15.4 2013-05-01 12:14:00
2 1998-06-28 00:00:00 Temperatura 18.0 del 27-06-1998 14:00, Mayor que la Máxima 17.4 28-06-1998 00:00 18.0 -- 17.4 2013-05-01 12:14:00
2 1998-07-25 00:00:00 Temperatura 19.2 del 24-07-1998 19:00, Mayor que la Máxima 19.0 25-07-1998 00:00 19.2 -- 19.0 2013-05-01 12:14:00
2 1998-08-03 00:00:00 Temperatura 13.6 del 02-08-1998 20:00, Mayor que la Máxima 13.4 03-08-1998 00:00 13.6 -- 13.4 2013-05-01 12:14:00
2 1998-09-05 00:00:00 Temperatura 19.0 del 04-09-1998 19:00, Mayor que la Máxima 18.0 05-09-1998 00:00 19.0 -- 18.0 2013-05-01 12:14:00
2 1998-09-09 00:00:00 Temperatura 23.8 del 08-09-1998 19:00, Mayor que la Máxima 23.4 09-09-1998 00:00 23.8 -- 23.4 2013-05-01 12:14:00
2 1998-10-10 00:00:00 Temperatura 17.3 del 09-10-1998 20:00, Mayor que la Máxima 17.2 10-10-1998 00:00 17.3 -- 17.2 2013-05-01 12:14:00
2 1998-11-24 00:00:00 Temperatura 20.8 del 23-11-1998 20:00, Mayor que la Máxima 20.4 24-11-1998 00:00 20.8 -- 20.4 2013-05-01 12:14:00
2 1998-12-29 00:00:00 Temperatura 25.9 del 28-12-1998 19:00, Mayor que la Máxima 25.8 29-12-1998 00:00 25.9 -- 25.8 2013-05-01 12:14:00
2 1999-01-21 00:00:00 Temperatura 25.2 del 20-01-1999 20:00, Mayor que la Máxima 25.0 21-01-1999 00:00 25.2 -- 25.0 2013-05-01 12:14:00
2 1999-04-18 00:00:00 Temperatura 21.0 del 17-04-1999 20:00, Mayor que la Máxima 20.6 18-04-1999 00:00 21.0 -- 20.6 2013-05-01 12:14:00
2 1999-05-01 00:00:00 Temperatura 22.8 del 30-04-1999 19:00, Mayor que la Máxima 21.4 01-05-1999 00:00 22.8 -- 21.4 2013-05-01 12:14:00
2 1999-06-26 00:00:00 Temperatura 22.2 del 25-06-1999 17:00, Mayor que la Máxima 20.4 26-06-1999 00:00 22.2 -- 20.4 2013-05-01 12:14:00
2 1999-08-05 00:00:00 Temperatura 20.2 del 04-08-1999 19:00, Mayor que la Máxima 19.6 05-08-1999 00:00 20.2 -- 19.6 2013-05-01 12:14:00
2 1999-09-10 00:00:00 Temperatura 23.0 del 09-09-1999 20:00, Mayor que la Máxima 21.6 10-09-1999 00:00 23.0 -- 21.6 2013-05-01 12:14:00
2 1999-10-05 00:00:00 Temperatura 18.2 del 04-10-1999 21:00, Mayor que la Máxima 16.8 05-10-1999 00:00 18.2 -- 16.8 2013-05-01 12:14:00
2 2000-01-26 00:00:00 Temperatura 26.8 del 25-01-2000 17:00, Mayor que la Máxima 26.2 26-01-2000 00:00 26.8 -- 26.2 2013-05-01 12:14:00
2 2000-06-28 00:00:00 Temperatura 13.3 del 27-06-2000 19:00, Mayor que la Máxima 13.2 28-06-2000 00:00 13.3 -- 13.2 2013-05-01 12:14:00
2 2000-07-08 00:00:00 Temperatura 16.2 del 07-07-2000 19:00, Mayor que la Máxima 15.6 08-07-2000 00:00 16.2 -- 15.6 2013-05-01 12:14:00
2 2000-08-01 00:00:00 Temperatura 16.0 del 31-07-2000 17:00, Mayor que la Máxima 15.2 01-08-2000 00:00 16.0 -- 15.2 2013-05-01 12:14:00
2 2000-09-16 00:00:00 Temperatura 23.0 del 15-09-2000 17:00, Mayor que la Máxima 21.8 16-09-2000 00:00 23.0 -- 21.8 2013-05-01 12:14:00
2 2001-01-10 00:00:00 Temperatura 29.0 del 09-01-2001 19:00, Mayor que la Máxima 28.6 10-01-2001 00:00 29.0 -- 28.6 2013-05-01 12:14:00
2 2001-01-19 00:00:00 Temperatura 33.4 del 18-01-2001 16:00, Mayor que la Máxima 25.2 19-01-2001 00:00 33.4 -- 25.2 2013-05-01 12:14:00
2 2001-01-24 00:00:00 Temperatura 25.4 del 23-01-2001 20:00, Mayor que la Máxima 25.2 24-01-2001 00:00 25.4 -- 25.2 2013-05-01 12:14:00
2 2001-02-02 00:00:00 Temperatura 25.4 del 01-02-2001 19:00, Mayor que la Máxima 25.1 02-02-2001 00:00 25.4 -- 25.1 2013-05-01 12:14:00
2 2001-05-30 00:00:00 Temperatura 20.4 del 29-05-2001 19:00, Mayor que la Máxima 20.0 30-05-2001 00:00 20.4 -- 20.0 2013-05-01 12:14:00
2 2001-06-27 00:00:00 Temperatura 27.8 del 26-06-2001 17:00, Mayor que la Máxima 27.0 27-06-2001 00:00 27.8 -- 27.0 2013-05-01 12:14:00
2 2001-09-09 00:00:00 Temperatura 24.6 del 08-09-2001 19:00, Mayor que la Máxima 24.4 09-09-2001 00:00 24.6 -- 24.4 2013-05-01 12:15:00
2 2001-09-25 00:00:00 Temperatura 24.4 del 24-09-2001 19:00, Mayor que la Máxima 24.0 25-09-2001 00:00 24.4 -- 24.0 2013-05-01 12:15:00
2 2001-09-28 00:00:00 Temperatura 20.6 del 27-09-2001 19:00, Mayor que la Máxima 20.4 28-09-2001 00:00 20.6 -- 20.4 2013-05-01 12:15:00
2 2001-11-17 00:00:00 Temperatura 24.9 del 16-11-2001 19:00, Mayor que la Máxima 24.2 17-11-2001 00:00 24.9 -- 24.2 2013-05-01 12:15:00
2 2002-03-06 00:00:00 Temperatura 26.4 del 05-03-2002 19:00, Mayor que la Máxima 26.0 06-03-2002 00:00 26.4 -- 26.0 2013-05-01 12:15:00
2 2002-05-11 00:00:00 Temperatura 19.8 del 10-05-2002 19:00, Mayor que la Máxima 19.6 11-05-2002 00:00 19.8 -- 19.6 2013-05-01 12:15:00
2 2002-06-01 00:00:00 Temperatura 21.0 del 31-05-2002 19:00, Mayor que la Máxima 20.6 01-06-2002 00:00 21.0 -- 20.6 2013-05-01 12:15:00
2 2003-02-04 00:00:00 Temperatura 25.8 del 03-02-2003 18:00, Mayor que la Máxima 25.6 04-02-2003 00:00 25.8 -- 25.6 2013-05-01 12:15:00
2 2003-02-05 00:00:00 Temperatura 25.6 del 04-02-2003 18:00, Mayor que la Máxima 25.0 05-02-2003 00:00 25.6 -- 25.0 2013-05-01 12:15:00
2 2003-05-03 00:00:00 Temperatura 22.0 del 02-05-2003 15:00, Mayor que la Máxima 19.6 03-05-2003 00:00 22.0 -- 19.6 2013-05-01 12:15:00
2 2003-07-26 00:00:00 Temperatura 13.8 del 25-07-2003 20:00, Mayor que la Máxima 11.0 26-07-2003 00:00 13.8 -- 11.0 2013-05-01 12:15:00
2 2003-09-13 00:00:00 Temperatura 23.2 del 12-09-2003 19:00, Mayor que la Máxima 23.0 13-09-2003 00:00 23.2 -- 23.0 2013-05-01 12:15:00
2 2003-10-01 00:00:00 Temperatura 16.4 del 30-09-2003 19:00, Mayor que la Máxima 15.6 01-10-2003 00:00 16.4 -- 15.6 2013-05-01 12:15:00
2 2003-11-04 00:00:00 Temperatura 22.4 del 03-11-2003 19:00, Mayor que la Máxima 20.4 04-11-2003 00:00 22.4 -- 20.4 2013-05-01 12:15:00
2 2003-11-25 00:00:00 Temperatura 28.0 del 24-11-2003 20:00, Mayor que la Máxima 23.6 25-11-2003 00:00 28.0 -- 23.6 2013-05-01 12:15:00
2 2003-12-04 00:00:00 Temperatura 25.6 del 03-12-2003 19:00, Mayor que la Máxima 24.0 04-12-2003 00:00 25.6 -- 24.0 2013-05-01 12:15:00
2 1952-02-10 12:00:00 Temperatura 13.4 del 10-02-1952 08:00, Menor que la Mínima 15.0 10-02-1952 12:00 13.4 -- 15.0 2014-05-02 19:17:00
2 1952-04-08 12:00:00 Temperatura 8.2 del 08-04-1952 06:00, Menor que la Mínima 9.0 08-04-1952 12:00 8.2 -- 9.0 2014-05-13 20:38:00
2 1952-05-13 12:00:00 Temperatura 10.7 del 13-05-1952 07:00, Menor que la Mínima 11.0 13-05-1952 12:00 10.7 -- 11.0 2014-05-16 14:31:00
2 1952-09-07 12:00:00 Temperatura 9.3 del 07-09-1952 07:00, Menor que la Mínima 10.3 07-09-1952 12:00 9.3 -- 10.3 2014-05-28 19:21:00
2 1952-12-18 12:00:00 Temperatura 9.7 del 18-12-1952 10:00, Menor que la Mínima 10.2 18-12-1952 12:00 9.7 -- 10.2 2014-06-04 19:13:00
2 1954-03-04 12:00:00 Temperatura 11.0 del 04-03-1954 12:00, Menor que la Mínima 11.1 04-03-1954 12:00 11.0 -- 11.1 2012-09-12 13:01:00
2 1954-03-24 12:00:00 Temperatura 12.0 del 24-03-1954 10:00, Menor que la Mínima 12.4 24-03-1954 12:00 12.0 -- 12.4 2012-09-20 17:37:00
2 1954-10-12 12:00:00 Temperatura 7.0 del 12-10-1954 11:00, Menor que la Mínima 7.4 12-10-1954 12:00 7.0 -- 7.4 2012-10-04 20:05:00
2 1954-11-25 12:00:00 Temperatura 9.1 del 25-11-1954 10:00, Menor que la Mínima 9.4 25-11-1954 12:00 9.1 -- 9.4 2012-10-09 13:45:00
2 1955-03-10 12:00:00 Temperatura 9.8 del 10-03-1955 12:00, Menor que la Mínima 10.5 10-03-1955 12:00 9.8 -- 10.5 2013-05-01 12:15:00
2 1955-04-14 12:00:00 Temperatura 6.0 del 14-04-1955 12:00, Menor que la Mínima 6.5 14-04-1955 12:00 6.0 -- 6.5 2013-05-01 12:15:00
2 1955-05-18 12:00:00 Temperatura 10.0 del 18-05-1955 12:00, Menor que la Mínima 10.4 18-05-1955 12:00 10.0 -- 10.4 2013-05-01 12:15:00
2 1955-06-06 12:00:00 Temperatura 12.0 del 06-06-1955 12:00, Menor que la Mínima 12.5 06-06-1955 12:00 12.0 -- 12.5 2013-05-01 12:15:00
2 1955-06-14 12:00:00 Temperatura 0.7 del 14-06-1955 12:00, Menor que la Mínima 4.4 14-06-1955 12:00 0.7 -- 4.4 2013-05-01 12:15:00
2 1955-09-01 12:00:00 Temperatura 5.1 del 01-09-1955 12:00, Menor que la Mínima 5.2 01-09-1955 12:00 5.1 -- 5.2 2013-05-01 12:15:00
2 1956-01-11 12:00:00 Temperatura 3.0 del 11-01-1956 09:00, Menor que la Mínima 13.0 11-01-1956 12:00 3.0 -- 13.0 2013-05-01 12:15:00
2 1956-01-14 12:00:00 Temperatura 3.2 del 14-01-1956 09:00, Menor que la Mínima 13.0 14-01-1956 12:00 3.2 -- 13.0 2013-05-01 12:15:00
2 1956-02-11 12:00:00 Temperatura 13.0 del 11-02-1956 12:00, Menor que la Mínima 13.2 11-02-1956 12:00 13.0 -- 13.2 2013-05-01 12:15:00
2 1956-02-25 12:00:00 Temperatura 10.0 del 25-02-1956 09:00, Menor que la Mínima 10.5 25-02-1956 12:00 10.0 -- 10.5 2013-05-01 12:15:00
2 1956-04-02 12:00:00 Temperatura 10.4 del 02-04-1956 12:00, Menor que la Mínima 10.5 02-04-1956 12:00 10.4 -- 10.5 2013-05-01 12:15:00
2 1956-04-05 12:00:00 Temperatura 10.4 del 05-04-1956 12:00, Menor que la Mínima 10.5 05-04-1956 12:00 10.4 -- 10.5 2013-05-01 12:15:00
2 1956-07-05 12:00:00 Temperatura 9.0 del 05-07-1956 12:00, Menor que la Mínima 10.4 05-07-1956 12:00 9.0 -- 10.4 2013-05-01 12:16:00
2 1956-07-27 12:00:00 Temperatura 7.4 del 27-07-1956 12:00, Menor que la Mínima 8.0 27-07-1956 12:00 7.4 -- 8.0 2013-05-01 12:16:00
2 1956-10-03 12:00:00 Temperatura 9.0 del 03-10-1956 09:00, Menor que la Mínima 9.4 03-10-1956 12:00 9.0 -- 9.4 2013-05-01 12:16:00
2 1956-12-07 12:00:00 Temperatura 1.5 del 07-12-1956 12:00, Menor que la Mínima 10.4 07-12-1956 12:00 1.5 -- 10.4 2013-05-01 12:16:00
2 1957-04-01 12:00:00 Temperatura 11.2 del 01-04-1957 12:00, Menor que la Mínima 11.3 01-04-1957 12:00 11.2 -- 11.3 2013-05-01 12:16:00
2 1957-07-10 12:00:00 Temperatura 5.6 del 10-07-1957 12:00, Menor que la Mínima 6.5 10-07-1957 12:00 5.6 -- 6.5 2013-05-01 12:16:00
2 1957-08-05 12:00:00 Temperatura 6.0 del 05-08-1957 09:00, Menor que la Mínima 6.2 05-08-1957 12:00 6.0 -- 6.2 2013-05-01 12:16:00
2 1957-08-31 12:00:00 Temperatura 0.8 del 31-08-1957 12:00, Menor que la Mínima 3.2 31-08-1957 12:00 0.8 -- 3.2 2013-05-01 12:16:00
2 1958-04-14 12:00:00 Temperatura 10.1 del 14-04-1958 09:00, Menor que la Mínima 10.2 14-04-1958 12:00 10.1 -- 10.2 2013-05-01 12:16:00
2 1958-04-28 12:00:00 Temperatura 0.8 del 28-04-1958 12:00, Menor que la Mínima 8.0 28-04-1958 12:00 0.8 -- 8.0 2013-05-01 12:16:00
2 1958-05-31 12:00:00 Temperatura 8.6 del 31-05-1958 09:00, Menor que la Mínima 8.9 31-05-1958 12:00 8.6 -- 8.9 2013-05-01 12:16:00
2 1958-06-25 12:00:00 Temperatura 5.7 del 25-06-1958 09:00, Menor que la Mínima 6.0 25-06-1958 12:00 5.7 -- 6.0 2013-05-01 12:16:00
2 1958-08-04 12:00:00 Temperatura 10.7 del 04-08-1958 12:00, Menor que la Mínima 14.0 04-08-1958 12:00 10.7 -- 14.0 2013-05-01 12:16:00
2 1958-11-02 12:00:00 Temperatura 1.2 del 02-11-1958 06:00, Menor que la Mínima 9.7 02-11-1958 12:00 1.2 -- 9.7 2013-05-01 12:16:00
2 1959-09-10 12:00:00 Temperatura 0.8 del 10-09-1959 12:00, Menor que la Mínima 8.6 10-09-1959 12:00 0.8 -- 8.6 2013-05-01 12:16:00
2 1959-09-28 12:00:00 Temperatura 0.8 del 28-09-1959 12:00, Menor que la Mínima 8.1 28-09-1959 12:00 0.8 -- 8.1 2013-05-01 12:16:00
2 1960-03-13 12:00:00 Temperatura 10.7 del 13-03-1960 12:00, Menor que la Mínima 12.0 13-03-1960 12:00 10.7 -- 12.0 2013-05-01 12:17:00
2 1960-03-28 12:00:00 Temperatura 14.0 del 28-03-1960 12:00, Menor que la Mínima 17.0 28-03-1960 12:00 14.0 -- 17.0 2013-05-01 12:17:00
2 1960-11-05 12:00:00 Temperatura 9.3 del 05-11-1960 12:00, Menor que la Mínima 9.4 05-11-1960 12:00 9.3 -- 9.4 2013-05-01 12:17:00
2 1961-03-31 12:00:00 Temperatura 8.7 del 31-03-1961 12:00, Menor que la Mínima 10.6 31-03-1961 12:00 8.7 -- 10.6 2013-05-01 12:17:00
2 1961-07-02 12:00:00 Temperatura 0.2 del 02-07-1961 12:00, Menor que la Mínima 5.0 02-07-1961 12:00 0.2 -- 5.0 2013-05-01 12:17:00
2 1961-07-13 12:00:00 Temperatura 0.7 del 13-07-1961 12:00, Menor que la Mínima 6.8 13-07-1961 12:00 0.7 -- 6.8 2013-05-01 12:17:00
2 1961-10-05 12:00:00 Temperatura 1.8 del 05-10-1961 12:00, Menor que la Mínima 14.1 05-10-1961 12:00 1.8 -- 14.1 2013-05-01 12:17:00
2 1961-12-10 12:00:00 Temperatura 9.9 del 10-12-1961 12:00, Menor que la Mínima 10.0 10-12-1961 12:00 9.9 -- 10.0 2013-05-01 12:17:00
2 1962-09-12 12:00:00 Temperatura 5.6 del 12-09-1962 12:00, Menor que la Mínima 6.0 12-09-1962 12:00 5.6 -- 6.0 2013-05-01 12:17:00
2 1962-12-23 12:00:00 Temperatura 12.2 del 23-12-1962 12:00, Menor que la Mínima 12.3 23-12-1962 12:00 12.2 -- 12.3 2013-05-01 12:17:00
2 1963-06-25 12:00:00 Temperatura 6.7 del 25-06-1963 12:00, Menor que la Mínima 6.8 25-06-1963 12:00 6.7 -- 6.8 2013-05-01 12:18:00
2 1964-01-11 12:00:00 Temperatura 11.8 del 11-01-1964 12:00, Menor que la Mínima 13.0 11-01-1964 12:00 11.8 -- 13.0 2013-05-01 12:18:00
2 1964-04-15 12:00:00 Temperatura 8.6 del 15-04-1964 12:00, Menor que la Mínima 17.5 15-04-1964 12:00 8.6 -- 17.5 2013-05-01 12:18:00
2 1964-05-17 12:00:00 Temperatura 8.2 del 17-05-1964 12:00, Menor que la Mínima 17.6 17-05-1964 12:00 8.2 -- 17.6 2013-05-01 12:18:00
2 1965-08-30 12:00:00 Temperatura 6.8 del 30-08-1965 12:00, Menor que la Mínima 7.0 30-08-1965 12:00 6.8 -- 7.0 2013-05-01 12:18:00
2 1966-01-25 12:00:00 Temperatura 10.8 del 25-01-1966 12:00, Menor que la Mínima 11.2 25-01-1966 12:00 10.8 -- 11.2 2013-05-01 12:18:00
2 1966-05-29 12:00:00 Temperatura 4.6 del 29-05-1966 12:00, Menor que la Mínima 4.8 29-05-1966 12:00 4.6 -- 4.8 2013-05-01 12:18:00
2 1966-06-03 12:00:00 Temperatura 4.2 del 03-06-1966 12:00, Menor que la Mínima 4.4 03-06-1966 12:00 4.2 -- 4.4 2013-05-01 12:18:00
2 1966-08-08 12:00:00 Temperatura 4.4 del 08-08-1966 12:00, Menor que la Mínima 8.8 08-08-1966 12:00 4.4 -- 8.8 2013-05-01 12:18:00
2 1966-10-17 12:00:00 Temperatura 9.6 del 17-10-1966 12:00, Menor que la Mínima 9.8 17-10-1966 12:00 9.6 -- 9.8 2013-05-01 12:18:00
2 1967-02-13 12:00:00 Temperatura 13.6 del 13-02-1967 12:00, Menor que la Mínima 14.4 13-02-1967 12:00 13.6 -- 14.4 2013-05-01 12:19:00
2 1967-04-17 12:00:00 Temperatura 10.4 del 17-04-1967 12:00, Menor que la Mínima 11.0 17-04-1967 12:00 10.4 -- 11.0 2013-05-01 12:19:00
2 1967-05-01 12:00:00 Temperatura 6.2 del 01-05-1967 12:00, Menor que la Mínima 7.0 01-05-1967 12:00 6.2 -- 7.0 2013-05-01 12:19:00
2 1967-06-03 12:00:00 Temperatura 6.5 del 03-06-1967 12:00, Menor que la Mínima 15.3 03-06-1967 12:00 6.5 -- 15.3 2013-05-01 12:19:00
2 1967-06-25 12:00:00 Temperatura 6.8 del 25-06-1967 12:00, Menor que la Mínima 6.9 25-06-1967 12:00 6.8 -- 6.9 2013-05-01 12:19:00
2 1967-07-26 12:00:00 Temperatura 5.6 del 26-07-1967 12:00, Menor que la Mínima 14.4 26-07-1967 12:00 5.6 -- 14.4 2013-05-01 12:19:00
2 1967-09-02 12:00:00 Temperatura 6.6 del 02-09-1967 12:00, Menor que la Mínima 10.4 02-09-1967 12:00 6.6 -- 10.4 2013-05-01 12:19:00
2 1967-09-04 12:00:00 Temperatura 0.6 del 04-09-1967 12:00, Menor que la Mínima 3.5 04-09-1967 12:00 0.6 -- 3.5 2013-05-01 12:19:00
2 1967-10-15 12:00:00 Temperatura 9.2 del 15-10-1967 12:00, Menor que la Mínima 21.9 15-10-1967 12:00 9.2 -- 21.9 2013-05-01 12:19:00
2 1967-10-23 12:00:00 Temperatura 0.6 del 23-10-1967 12:00, Menor que la Mínima 6.4 23-10-1967 12:00 0.6 -- 6.4 2013-05-01 12:19:00
2 1968-02-04 12:00:00 Temperatura 11.6 del 04-02-1968 12:00, Menor que la Mínima 13.5 04-02-1968 12:00 11.6 -- 13.5 2013-05-01 12:19:00
2 1968-02-06 12:00:00 Temperatura 12.9 del 06-02-1968 12:00, Menor que la Mínima 15.1 06-02-1968 12:00 12.9 -- 15.1 2013-05-01 12:19:00
2 1968-02-18 12:00:00 Temperatura 6.6 del 18-02-1968 06:00, Menor que la Mínima 14.5 18-02-1968 12:00 6.6 -- 14.5 2013-05-01 12:19:00
2 1968-02-27 12:00:00 Temperatura 13.2 del 27-02-1968 09:00, Menor que la Mínima 17.2 27-02-1968 12:00 13.2 -- 17.2 2013-05-01 12:19:00
2 1968-03-11 12:00:00 Temperatura 12.0 del 11-03-1968 12:00, Menor que la Mínima 13.0 11-03-1968 12:00 12.0 -- 13.0 2013-05-01 12:19:00
2 1968-04-14 12:00:00 Temperatura 13.2 del 14-04-1968 09:00, Menor que la Mínima 13.3 14-04-1968 12:00 13.2 -- 13.3 2013-05-01 12:19:00
2 1968-04-18 12:00:00 Temperatura 10.2 del 18-04-1968 09:00, Menor que la Mínima 10.6 18-04-1968 12:00 10.2 -- 10.6 2013-05-01 12:19:00
2 1968-06-17 12:00:00 Temperatura 7.4 del 17-06-1968 09:00, Menor que la Mínima 9.2 17-06-1968 12:00 7.4 -- 9.2 2013-05-01 12:19:00
2 1968-08-01 12:00:00 Temperatura 8.8 del 01-08-1968 06:00, Menor que la Mínima 9.0 01-08-1968 12:00 8.8 -- 9.0 2013-05-01 12:19:00
2 1968-08-04 12:00:00 Temperatura 0.8 del 04-08-1968 03:00, Menor que la Mínima 6.3 04-08-1968 12:00 0.8 -- 6.3 2013-05-01 12:19:00
2 1968-08-05 12:00:00 Temperatura 8.5 del 05-08-1968 09:00, Menor que la Mínima 8.6 05-08-1968 12:00 8.5 -- 8.6 2013-05-01 12:19:00
2 1968-08-15 12:00:00 Temperatura 5.4 del 15-08-1968 12:00, Menor que la Mínima 8.6 15-08-1968 12:00 5.4 -- 8.6 2013-05-01 12:19:00
2 1968-08-27 12:00:00 Temperatura 6.9 del 27-08-1968 09:00, Menor que la Mínima 7.2 27-08-1968 12:00 6.9 -- 7.2 2013-05-01 12:19:00
2 1968-10-01 12:00:00 Temperatura 10.0 del 01-10-1968 09:00, Menor que la Mínima 10.4 01-10-1968 12:00 10.0 -- 10.4 2013-05-01 12:19:00
2 1968-10-18 12:00:00 Temperatura 12.3 del 18-10-1968 09:00, Menor que la Mínima 14.4 18-10-1968 12:00 12.3 -- 14.4 2013-05-01 12:19:00
2 1968-11-02 12:00:00 Temperatura 7.8 del 02-11-1968 12:00, Menor que la Mínima 8.9 02-11-1968 12:00 7.8 -- 8.9 2013-05-01 12:19:00
2 1968-12-04 12:00:00 Temperatura 10.8 del 04-12-1968 03:00, Menor que la Mínima 13.0 04-12-1968 12:00 10.8 -- 13.0 2013-05-01 12:19:00
2 1968-12-13 12:00:00 Temperatura 13.6 del 13-12-1968 09:00, Menor que la Mínima 27.0 13-12-1968 12:00 13.6 -- 27.0 2013-05-01 12:19:00
2 1968-12-14 12:00:00 Temperatura 12.8 del 14-12-1968 09:00, Menor que la Mínima 12.9 14-12-1968 12:00 12.8 -- 12.9 2013-05-01 12:19:00
2 1969-01-07 12:00:00 Temperatura 12.8 del 07-01-1969 09:00, Menor que la Mínima 16.0 07-01-1969 12:00 12.8 -- 16.0 2013-05-01 12:19:00
2 1969-02-27 12:00:00 Temperatura 11.4 del 27-02-1969 09:00, Menor que la Mínima 11.7 27-02-1969 12:00 11.4 -- 11.7 2013-05-01 12:19:00
2 1969-03-01 12:00:00 Temperatura 12.4 del 01-03-1969 12:00, Menor que la Mínima 12.8 01-03-1969 12:00 12.4 -- 12.8 2013-05-01 12:19:00
2 1969-03-25 12:00:00 Temperatura 10.4 del 25-03-1969 09:00, Menor que la Mínima 10.7 25-03-1969 12:00 10.4 -- 10.7 2013-05-01 12:19:00
2 1969-05-30 12:00:00 Temperatura 12.6 del 30-05-1969 09:00, Menor que la Mínima 12.8 30-05-1969 12:00 12.6 -- 12.8 2013-05-01 12:19:00
2 1969-06-08 12:00:00 Temperatura 10.0 del 08-06-1969 09:00, Menor que la Mínima 10.8 08-06-1969 12:00 10.0 -- 10.8 2013-05-01 12:19:00
2 1969-07-06 12:00:00 Temperatura 0.6 del 06-07-1969 09:00, Menor que la Mínima 5.6 06-07-1969 12:00 0.6 -- 5.6 2013-05-01 12:19:00
2 1969-07-10 12:00:00 Temperatura 4.0 del 10-07-1969 09:00, Menor que la Mínima 4.4 10-07-1969 12:00 4.0 -- 4.4 2013-05-01 12:19:00
2 1969-07-20 12:00:00 Temperatura 8.8 del 20-07-1969 09:00, Menor que la Mínima 10.0 20-07-1969 12:00 8.8 -- 10.0 2013-05-01 12:19:00
2 1969-08-07 12:00:00 Temperatura 9.5 del 07-08-1969 09:00, Menor que la Mínima 9.8 07-08-1969 12:00 9.5 -- 9.8 2013-05-01 12:19:00
2 1969-08-28 12:00:00 Temperatura 9.6 del 28-08-1969 09:00, Menor que la Mínima 10.7 28-08-1969 12:00 9.6 -- 10.7 2013-05-01 12:19:00
2 1969-08-30 12:00:00 Temperatura 15.2 del 30-08-1969 09:00, Menor que la Mínima 15.4 30-08-1969 12:00 15.2 -- 15.4 2013-05-01 12:19:00
2 1969-09-11 12:00:00 Temperatura 15.2 del 11-09-1969 09:00, Menor que la Mínima 17.2 11-09-1969 12:00 15.2 -- 17.2 2013-05-01 12:19:00
2 1969-12-31 12:00:00 Temperatura 13.0 del 31-12-1969 09:00, Menor que la Mínima 14.0 31-12-1969 12:00 13.0 -- 14.0 2013-05-01 12:19:00
2 1970-01-01 12:00:00 Temperatura 14.2 del 01-01-1970 06:00, Menor que la Mínima 15.2 01-01-1970 12:00 14.2 -- 15.2 2013-05-01 12:19:00
2 1970-01-01 12:00:00 Temperatura 14.2 del 01-01-1970 06:00, Menor que la Mínima 15.2 01-01-1970 12:00 14.2 -- 15.2 2013-05-01 12:19:00
2 1970-02-22 12:00:00 Temperatura 12.9 del 22-02-1970 09:00, Menor que la Mínima 17.4 22-02-1970 12:00 12.9 -- 17.4 2013-05-01 12:19:00
2 1970-03-15 12:00:00 Temperatura 13.5 del 15-03-1970 09:00, Menor que la Mínima 14.2 15-03-1970 12:00 13.5 -- 14.2 2013-05-01 12:19:00
2 1970-03-24 12:00:00 Temperatura 11.9 del 24-03-1970 09:00, Menor que la Mínima 12.3 24-03-1970 12:00 11.9 -- 12.3 2013-05-01 12:19:00
2 1970-03-29 12:00:00 Temperatura 13.8 del 29-03-1970 12:00, Menor que la Mínima 14.0 29-03-1970 12:00 13.8 -- 14.0 2013-05-01 12:19:00
2 1970-09-21 12:00:00 Temperatura 3.8 del 21-09-1970 06:00, Menor que la Mínima 7.0 21-09-1970 12:00 3.8 -- 7.0 2013-05-01 12:20:00
2 1970-09-25 12:00:00 Temperatura 6.9 del 25-09-1970 09:00, Menor que la Mínima 7.0 25-09-1970 12:00 6.9 -- 7.0 2013-05-01 12:20:00
2 1971-01-25 12:00:00 Temperatura 13.2 del 25-01-1971 11:00, Menor que la Mínima 13.4 25-01-1971 12:00 13.2 -- 13.4 2013-05-01 12:20:00
2 1971-04-17 12:00:00 Temperatura 0.8 del 17-04-1971 12:00, Menor que la Mínima 7.6 17-04-1971 12:00 0.8 -- 7.6 2013-05-01 12:20:00
2 1971-05-04 12:00:00 Temperatura 7.9 del 04-05-1971 09:00, Menor que la Mínima 8.2 04-05-1971 12:00 7.9 -- 8.2 2013-05-01 12:20:00
2 1971-05-28 12:00:00 Temperatura 7.0 del 28-05-1971 09:00, Menor que la Mínima 7.6 28-05-1971 12:00 7.0 -- 7.6 2013-05-01 12:20:00
2 1971-06-10 12:00:00 Temperatura 7.0 del 10-06-1971 11:00, Menor que la Mínima 7.2 10-06-1971 12:00 7.0 -- 7.2 2013-05-01 12:20:00
2 1971-07-08 12:00:00 Temperatura 4.0 del 08-07-1971 12:00, Menor que la Mínima 4.4 08-07-1971 12:00 4.0 -- 4.4 2013-05-01 12:20:00
2 1971-07-12 12:00:00 Temperatura 8.0 del 12-07-1971 11:00, Menor que la Mínima 8.8 12-07-1971 12:00 8.0 -- 8.8 2013-05-01 12:20:00
2 1971-07-21 12:00:00 Temperatura 7.3 del 21-07-1971 06:00, Menor que la Mínima 7.8 21-07-1971 12:00 7.3 -- 7.8 2013-05-01 12:20:00
2 1971-07-26 12:00:00 Temperatura 0.4 del 26-07-1971 11:00, Menor que la Mínima 8.2 26-07-1971 12:00 0.4 -- 8.2 2013-05-01 12:20:00
2 1971-10-19 12:00:00 Temperatura 7.8 del 19-10-1971 11:00, Menor que la Mínima 8.0 19-10-1971 12:00 7.8 -- 8.0 2013-05-01 12:20:00
2 1971-11-20 12:00:00 Temperatura 11.6 del 20-11-1971 03:00, Menor que la Mínima 15.8 20-11-1971 12:00 11.6 -- 15.8 2013-05-01 12:20:00
2 1972-01-30 12:00:00 Temperatura 12.8 del 30-01-1972 12:00, Menor que la Mínima 13.0 30-01-1972 12:00 12.8 -- 13.0 2013-05-01 12:20:00
2 1972-02-23 12:00:00 Temperatura 12.0 del 23-02-1972 12:00, Menor que la Mínima 12.4 23-02-1972 12:00 12.0 -- 12.4 2013-05-01 12:20:00
2 1972-04-28 12:00:00 Temperatura 6.4 del 28-04-1972 11:00, Menor que la Mínima 6.6 28-04-1972 12:00 6.4 -- 6.6 2013-05-01 12:20:00
2 1972-05-21 12:00:00 Temperatura 10.5 del 21-05-1972 11:00, Menor que la Mínima 11.4 21-05-1972 12:00 10.5 -- 11.4 2013-05-01 12:20:00
2 1972-07-14 12:00:00 Temperatura 10.2 del 14-07-1972 11:00, Menor que la Mínima 10.3 14-07-1972 12:00 10.2 -- 10.3 2013-05-01 12:20:00
2 1972-07-22 12:00:00 Temperatura 9.1 del 22-07-1972 11:00, Menor que la Mínima 9.7 22-07-1972 12:00 9.1 -- 9.7 2013-05-01 12:20:00
2 1972-11-12 12:00:00 Temperatura 11.2 del 12-11-1972 11:00, Menor que la Mínima 16.2 12-11-1972 12:00 11.2 -- 16.2 2013-05-01 12:20:00
2 1972-11-17 12:00:00 Temperatura 10.8 del 17-11-1972 11:00, Menor que la Mínima 11.4 17-11-1972 12:00 10.8 -- 11.4 2013-05-01 12:20:00
2 1973-05-06 12:00:00 Temperatura 6.5 del 06-05-1973 11:00, Menor que la Mínima 8.8 06-05-1973 12:00 6.5 -- 8.8 2013-05-01 12:20:00
2 1973-05-10 12:00:00 Temperatura 6.5 del 10-05-1973 11:00, Menor que la Mínima 6.8 10-05-1973 12:00 6.5 -- 6.8 2013-05-01 12:20:00
2 1973-06-17 12:00:00 Temperatura 8.5 del 17-06-1973 11:00, Menor que la Mínima 8.6 17-06-1973 12:00 8.5 -- 8.6 2013-05-01 12:20:00
2 1973-06-28 12:00:00 Temperatura 10.0 del 28-06-1973 11:00, Menor que la Mínima 10.1 28-06-1973 12:00 10.0 -- 10.1 2013-05-01 12:20:00
2 1973-06-29 12:00:00 Temperatura 7.4 del 29-06-1973 11:00, Menor que la Mínima 8.6 29-06-1973 12:00 7.4 -- 8.6 2013-05-01 12:20:00
2 1973-08-23 12:00:00 Temperatura 3.8 del 23-08-1973 12:00, Menor que la Mínima 5.2 23-08-1973 12:00 3.8 -- 5.2 2013-05-01 12:20:00
2 1974-02-07 12:00:00 Temperatura 8.4 del 07-02-1974 08:00, Menor que la Mínima 13.2 07-02-1974 12:00 8.4 -- 13.2 2013-05-01 12:21:00
2 1974-03-24 12:00:00 Temperatura 10.0 del 24-03-1974 11:00, Menor que la Mínima 10.2 24-03-1974 12:00 10.0 -- 10.2 2013-05-01 12:21:00
2 1974-06-05 12:00:00 Temperatura 2.6 del 05-06-1974 11:00, Menor que la Mínima 3.2 05-06-1974 12:00 2.6 -- 3.2 2013-05-01 12:21:00
2 1974-07-01 12:00:00 Temperatura 0.8 del 01-07-1974 12:00, Menor que la Mínima 7.1 01-07-1974 12:00 0.8 -- 7.1 2013-05-01 12:21:00
2 1974-07-29 12:00:00 Temperatura 6.5 del 29-07-1974 11:00, Menor que la Mínima 8.0 29-07-1974 12:00 6.5 -- 8.0 2013-05-01 12:21:00
2 1974-08-14 12:00:00 Temperatura 5.5 del 14-08-1974 11:00, Menor que la Mínima 5.7 14-08-1974 12:00 5.5 -- 5.7 2013-05-01 12:21:00
2 1974-10-08 12:00:00 Temperatura 4.8 del 08-10-1974 03:00, Menor que la Mínima 7.6 08-10-1974 12:00 4.8 -- 7.6 2013-05-01 12:21:00
2 1974-10-13 12:00:00 Temperatura 1.0 del 13-10-1974 12:00, Menor que la Mínima 8.8 13-10-1974 12:00 1.0 -- 8.8 2013-05-01 12:21:00
2 1974-10-23 12:00:00 Temperatura 8.4 del 23-10-1974 09:00, Menor que la Mínima 8.8 23-10-1974 12:00 8.4 -- 8.8 2013-05-01 12:21:00
2 1975-02-16 12:00:00 Temperatura 13.6 del 16-02-1975 11:00, Menor que la Mínima 13.8 16-02-1975 12:00 13.6 -- 13.8 2013-05-01 12:21:00
2 1975-02-19 12:00:00 Temperatura 12.3 del 19-02-1975 10:00, Menor que la Mínima 12.5 19-02-1975 12:00 12.3 -- 12.5 2013-05-01 12:21:00
2 1975-03-25 12:00:00 Temperatura 10.6 del 25-03-1975 10:00, Menor que la Mínima 11.2 25-03-1975 12:00 10.6 -- 11.2 2013-05-01 12:21:00
2 1975-04-16 12:00:00 Temperatura 1.0 del 16-04-1975 04:00, Menor que la Mínima 10.4 16-04-1975 12:00 1.0 -- 10.4 2013-05-01 12:21:00
2 1975-06-06 12:00:00 Temperatura 8.2 del 06-06-1975 05:00, Menor que la Mínima 8.7 06-06-1975 12:00 8.2 -- 8.7 2013-05-01 12:21:00
2 1975-06-30 12:00:00 Temperatura 5.2 del 30-06-1975 10:00, Menor que la Mínima 5.4 30-06-1975 12:00 5.2 -- 5.4 2013-05-01 12:21:00
2 1975-07-03 12:00:00 Temperatura 6.5 del 03-07-1975 05:00, Menor que la Mínima 6.6 03-07-1975 12:00 6.5 -- 6.6 2013-05-01 12:21:00
2 1975-07-08 12:00:00 Temperatura 6.7 del 08-07-1975 05:00, Menor que la Mínima 7.2 08-07-1975 12:00 6.7 -- 7.2 2013-05-01 12:21:00
2 1975-07-18 12:00:00 Temperatura 8.6 del 18-07-1975 12:00, Menor que la Mínima 8.7 18-07-1975 12:00 8.6 -- 8.7 2013-05-01 12:21:00
2 1975-07-20 12:00:00 Temperatura 4.6 del 20-07-1975 05:00, Menor que la Mínima 4.7 20-07-1975 12:00 4.6 -- 4.7 2013-05-01 12:21:00
2 1975-08-01 12:00:00 Temperatura 0.6 del 01-08-1975 10:00, Menor que la Mínima 5.8 01-08-1975 12:00 0.6 -- 5.8 2013-05-01 12:21:00
2 1975-08-07 12:00:00 Temperatura 9.1 del 07-08-1975 11:00, Menor que la Mínima 9.9 07-08-1975 12:00 9.1 -- 9.9 2013-05-01 12:21:00
2 1975-08-08 12:00:00 Temperatura 0.4 del 08-08-1975 08:00, Menor que la Mínima 4.0 08-08-1975 12:00 0.4 -- 4.0 2013-05-01 12:21:00
2 1976-01-17 12:00:00 Temperatura 4.6 del 17-01-1976 12:00, Menor que la Mínima 13.2 17-01-1976 12:00 4.6 -- 13.2 2013-05-01 12:21:00
2 1976-02-18 12:00:00 Temperatura 3.0 del 18-02-1976 12:00, Menor que la Mínima 11.7 18-02-1976 12:00 3.0 -- 11.7 2013-05-01 12:21:00
2 1976-03-01 12:00:00 Temperatura 3.3 del 01-03-1976 12:00, Menor que la Mínima 10.1 01-03-1976 12:00 3.3 -- 10.1 2013-05-01 12:21:00
2 1976-03-09 12:00:00 Temperatura 3.2 del 09-03-1976 12:00, Menor que la Mínima 14.4 09-03-1976 12:00 3.2 -- 14.4 2013-05-01 12:21:00
2 1976-06-25 12:00:00 Temperatura 5.8 del 25-06-1976 11:00, Menor que la Mínima 6.0 25-06-1976 12:00 5.8 -- 6.0 2013-05-01 12:21:00
2 1977-08-04 12:00:00 Temperatura 0.2 del 04-08-1977 11:00, Menor que la Mínima 5.2 04-08-1977 12:00 0.2 -- 5.2 2013-05-01 12:22:00
2 1977-10-09 12:00:00 Temperatura 10.0 del 09-10-1977 11:00, Menor que la Mínima 10.4 09-10-1977 12:00 10.0 -- 10.4 2013-05-01 12:22:00
2 1977-11-22 12:00:00 Temperatura 1.6 del 22-11-1977 11:00, Menor que la Mínima 10.8 22-11-1977 12:00 1.6 -- 10.8 2013-05-01 12:22:00
2 1977-12-02 12:00:00 Temperatura 11.6 del 02-12-1977 11:00, Menor que la Mínima 19.8 02-12-1977 12:00 11.6 -- 19.8 2013-05-01 12:22:00
2 1978-01-10 12:00:00 Temperatura 14.2 del 10-01-1978 11:00, Menor que la Mínima 14.4 10-01-1978 12:00 14.2 -- 14.4 2013-05-01 12:22:00
2 1978-04-17 12:00:00 Temperatura 7.8 del 17-04-1978 11:00, Menor que la Mínima 8.0 17-04-1978 12:00 7.8 -- 8.0 2013-05-01 12:22:00
2 1978-04-19 12:00:00 Temperatura 9.8 del 19-04-1978 12:00, Menor que la Mínima 10.0 19-04-1978 12:00 9.8 -- 10.0 2013-05-01 12:22:00
2 1978-05-04 12:00:00 Temperatura 9.6 del 04-05-1978 11:00, Menor que la Mínima 10.3 04-05-1978 12:00 9.6 -- 10.3 2013-05-01 12:22:00
2 1978-06-27 12:00:00 Temperatura 8.5 del 27-06-1978 11:00, Menor que la Mínima 8.6 27-06-1978 12:00 8.5 -- 8.6 2013-05-01 12:22:00
2 1978-07-13 12:00:00 Temperatura 8.1 del 13-07-1978 11:00, Menor que la Mínima 8.4 13-07-1978 12:00 8.1 -- 8.4 2013-05-01 12:22:00
2 1978-08-16 12:00:00 Temperatura 2.6 del 16-08-1978 12:00, Menor que la Mínima 2.8 16-08-1978 12:00 2.6 -- 2.8 2013-05-01 12:22:00
2 1978-10-08 12:00:00 Temperatura 9.8 del 08-10-1978 11:00, Menor que la Mínima 9.9 08-10-1978 12:00 9.8 -- 9.9 2013-05-01 12:22:00
2 1979-02-16 12:00:00 Temperatura 13.0 del 16-02-1979 11:00, Menor que la Mínima 13.2 16-02-1979 12:00 13.0 -- 13.2 2013-05-01 12:22:00
2 1979-02-17 12:00:00 Temperatura 14.1 del 17-02-1979 11:00, Menor que la Mínima 14.3 17-02-1979 12:00 14.1 -- 14.3 2013-05-01 12:22:00
2 1979-02-21 12:00:00 Temperatura 12.1 del 21-02-1979 11:00, Menor que la Mínima 12.4 21-02-1979 12:00 12.1 -- 12.4 2013-05-01 12:22:00
2 1979-03-01 12:00:00 Temperatura 13.3 del 01-03-1979 11:00, Menor que la Mínima 13.4 01-03-1979 12:00 13.3 -- 13.4 2013-05-01 12:22:00
2 1979-03-06 12:00:00 Temperatura 12.8 del 06-03-1979 11:00, Menor que la Mínima 12.9 06-03-1979 12:00 12.8 -- 12.9 2013-05-01 12:22:00
2 1979-03-23 12:00:00 Temperatura 13.4 del 23-03-1979 11:00, Menor que la Mínima 13.6 23-03-1979 12:00 13.4 -- 13.6 2013-05-01 12:22:00
2 1979-03-30 12:00:00 Temperatura 13.4 del 30-03-1979 11:00, Menor que la Mínima 13.5 30-03-1979 12:00 13.4 -- 13.5 2013-05-01 12:22:00
2 1979-04-07 12:00:00 Temperatura 10.2 del 07-04-1979 11:00, Menor que la Mínima 10.4 07-04-1979 12:00 10.2 -- 10.4 2013-05-01 12:22:00
2 1979-04-09 12:00:00 Temperatura 10.8 del 09-04-1979 11:00, Menor que la Mínima 11.5 09-04-1979 12:00 10.8 -- 11.5 2013-05-01 12:22:00
2 1979-04-15 12:00:00 Temperatura 8.6 del 15-04-1979 11:00, Menor que la Mínima 8.9 15-04-1979 12:00 8.6 -- 8.9 2013-05-01 12:22:00
2 1979-04-26 12:00:00 Temperatura 10.8 del 26-04-1979 11:00, Menor que la Mínima 11.0 26-04-1979 12:00 10.8 -- 11.0 2013-05-01 12:22:00
2 1979-04-29 12:00:00 Temperatura 11.4 del 29-04-1979 11:00, Menor que la Mínima 11.5 29-04-1979 12:00 11.4 -- 11.5 2013-05-01 12:22:00
2 1979-05-17 12:00:00 Temperatura 10.8 del 17-05-1979 11:00, Menor que la Mínima 11.0 17-05-1979 12:00 10.8 -- 11.0 2013-05-01 12:22:00
2 1979-05-20 12:00:00 Temperatura 6.4 del 20-05-1979 12:00, Menor que la Mínima 6.5 20-05-1979 12:00 6.4 -- 6.5 2013-05-01 12:22:00
2 1979-05-30 12:00:00 Temperatura 8.0 del 30-05-1979 11:00, Menor que la Mínima 8.1 30-05-1979 12:00 8.0 -- 8.1 2013-05-01 12:22:00
2 1979-06-22 12:00:00 Temperatura 9.8 del 22-06-1979 11:00, Menor que la Mínima 9.9 22-06-1979 12:00 9.8 -- 9.9 2013-05-01 12:22:00
2 1979-10-18 12:00:00 Temperatura 8.4 del 18-10-1979 10:00, Menor que la Mínima 8.5 18-10-1979 12:00 8.4 -- 8.5 2013-05-01 12:22:00
2 1979-10-21 12:00:00 Temperatura 9.2 del 21-10-1979 10:00, Menor que la Mínima 9.4 21-10-1979 12:00 9.2 -- 9.4 2013-05-01 12:22:00
2 1979-11-14 12:00:00 Temperatura 9.4 del 14-11-1979 10:00, Menor que la Mínima 9.5 14-11-1979 12:00 9.4 -- 9.5 2013-05-01 12:22:00
2 1979-11-26 12:00:00 Temperatura 10.4 del 26-11-1979 10:00, Menor que la Mínima 10.6 26-11-1979 12:00 10.4 -- 10.6 2013-05-01 12:22:00
2 1979-11-28 12:00:00 Temperatura 10.2 del 28-11-1979 10:00, Menor que la Mínima 10.4 28-11-1979 12:00 10.2 -- 10.4 2013-05-01 12:22:00
2 1979-12-05 12:00:00 Temperatura 12.0 del 05-12-1979 10:00, Menor que la Mínima 12.2 05-12-1979 12:00 12.0 -- 12.2 2013-05-01 12:22:00
2 1979-12-14 12:00:00 Temperatura 13.0 del 14-12-1979 10:00, Menor que la Mínima 13.1 14-12-1979 12:00 13.0 -- 13.1 2013-05-01 12:22:00
2 1980-01-20 12:00:00 Temperatura 14.0 del 20-01-1980 10:00, Menor que la Mínima 14.2 20-01-1980 12:00 14.0 -- 14.2 2013-05-01 12:22:00
2 1980-02-22 12:00:00 Temperatura 15.1 del 22-02-1980 10:00, Menor que la Mínima 15.2 22-02-1980 12:00 15.1 -- 15.2 2013-05-01 12:22:00
2 1980-02-28 12:00:00 Temperatura 15.0 del 28-02-1980 11:00, Menor que la Mínima 15.2 28-02-1980 12:00 15.0 -- 15.2 2013-05-01 12:22:00
2 1980-03-02 12:00:00 Temperatura 13.8 del 02-03-1980 11:00, Menor que la Mínima 14.0 02-03-1980 12:00 13.8 -- 14.0 2013-05-01 12:22:00
2 1980-09-30 12:00:00 Temperatura 11.2 del 30-09-1980 11:00, Menor que la Mínima 11.4 30-09-1980 12:00 11.2 -- 11.4 2013-05-01 12:23:00
2 1980-10-15 12:00:00 Temperatura 10.0 del 15-10-1980 10:00, Menor que la Mínima 10.1 15-10-1980 12:00 10.0 -- 10.1 2013-05-01 12:23:00
2 1980-10-28 12:00:00 Temperatura 10.8 del 28-10-1980 10:00, Menor que la Mínima 10.9 28-10-1980 12:00 10.8 -- 10.9 2013-05-01 12:23:00
2 1980-11-09 12:00:00 Temperatura 8.4 del 09-11-1980 10:00, Menor que la Mínima 8.6 09-11-1980 12:00 8.4 -- 8.6 2013-05-01 12:23:00
2 1980-11-17 12:00:00 Temperatura 11.2 del 17-11-1980 10:00, Menor que la Mínima 11.4 17-11-1980 12:00 11.2 -- 11.4 2013-05-01 12:23:00
2 1980-12-13 12:00:00 Temperatura 11.3 del 13-12-1980 10:00, Menor que la Mínima 11.4 13-12-1980 12:00 11.3 -- 11.4 2013-05-01 12:23:00
2 1980-12-23 12:00:00 Temperatura 11.2 del 23-12-1980 10:00, Menor que la Mínima 11.3 23-12-1980 12:00 11.2 -- 11.3 2013-05-01 12:23:00
2 1981-01-20 12:00:00 Temperatura 13.2 del 20-01-1981 10:00, Menor que la Mínima 13.4 20-01-1981 12:00 13.2 -- 13.4 2013-05-01 12:23:00
2 1981-02-01 12:00:00 Temperatura 13.8 del 01-02-1981 10:00, Menor que la Mínima 14.0 01-02-1981 12:00 13.8 -- 14.0 2013-05-01 12:23:00
2 1981-02-19 12:00:00 Temperatura 12.5 del 19-02-1981 10:00, Menor que la Mínima 12.6 19-02-1981 12:00 12.5 -- 12.6 2013-05-01 12:23:00
2 1981-03-06 12:00:00 Temperatura 14.0 del 06-03-1981 11:00, Menor que la Mínima 14.1 06-03-1981 12:00 14.0 -- 14.1 2013-05-01 12:23:00
2 1981-05-05 12:00:00 Temperatura 9.4 del 05-05-1981 11:00, Menor que la Mínima 9.6 05-05-1981 12:00 9.4 -- 9.6 2013-05-01 12:23:00
2 1981-06-22 12:00:00 Temperatura 6.2 del 22-06-1981 10:30, Menor que la Mínima 6.4 22-06-1981 12:00 6.2 -- 6.4 2013-05-01 12:23:00
2 1981-09-13 12:00:00 Temperatura 7.3 del 13-09-1981 11:00, Menor que la Mínima 7.4 13-09-1981 12:00 7.3 -- 7.4 2013-05-01 12:23:00
2 1981-09-18 12:00:00 Temperatura 9.2 del 18-09-1981 11:00, Menor que la Mínima 9.5 18-09-1981 12:00 9.2 -- 9.5 2013-05-01 12:23:00
2 1981-10-01 12:00:00 Temperatura 8.8 del 01-10-1981 11:00, Menor que la Mínima 9.0 01-10-1981 12:00 8.8 -- 9.0 2013-05-01 12:23:00
2 1981-10-12 12:00:00 Temperatura 8.6 del 12-10-1981 10:00, Menor que la Mínima 9.0 12-10-1981 12:00 8.6 -- 9.0 2013-05-01 12:23:00
2 1981-10-23 12:00:00 Temperatura 9.0 del 23-10-1981 10:00, Menor que la Mínima 9.2 23-10-1981 12:00 9.0 -- 9.2 2013-05-01 12:23:00
2 1981-10-29 12:00:00 Temperatura 10.2 del 29-10-1981 10:00, Menor que la Mínima 10.4 29-10-1981 12:00 10.2 -- 10.4 2013-05-01 12:23:00
2 1981-11-04 12:00:00 Temperatura 10.6 del 04-11-1981 10:00, Menor que la Mínima 10.8 04-11-1981 12:00 10.6 -- 10.8 2013-05-01 12:23:00
2 1981-11-06 12:00:00 Temperatura 11.0 del 06-11-1981 10:00, Menor que la Mínima 11.1 06-11-1981 12:00 11.0 -- 11.1 2013-05-01 12:23:00
2 1981-11-24 12:00:00 Temperatura 9.2 del 24-11-1981 10:00, Menor que la Mínima 9.4 24-11-1981 12:00 9.2 -- 9.4 2013-05-01 12:23:00
2 1981-12-06 12:00:00 Temperatura 10.8 del 06-12-1981 10:00, Menor que la Mínima 11.0 06-12-1981 12:00 10.8 -- 11.0 2013-05-01 12:23:00
2 1982-01-10 12:00:00 Temperatura 11.6 del 10-01-1982 11:00, Menor que la Mínima 11.8 10-01-1982 12:00 11.6 -- 11.8 2013-05-01 12:23:00
2 1982-01-14 12:00:00 Temperatura 14.2 del 14-01-1982 10:00, Menor que la Mínima 14.4 14-01-1982 12:00 14.2 -- 14.4 2013-05-01 12:23:00
2 1982-01-25 12:00:00 Temperatura 13.6 del 25-01-1982 10:00, Menor que la Mínima 14.2 25-01-1982 12:00 13.6 -- 14.2 2013-05-01 12:23:00
2 1982-01-27 12:00:00 Temperatura 13.6 del 27-01-1982 10:00, Menor que la Mínima 14.3 27-01-1982 12:00 13.6 -- 14.3 2013-05-01 12:23:00
2 1982-01-29 12:00:00 Temperatura 14.3 del 29-01-1982 10:00, Menor que la Mínima 14.8 29-01-1982 12:00 14.3 -- 14.8 2013-05-01 12:23:00
2 1982-02-02 12:00:00 Temperatura 13.8 del 02-02-1982 10:00, Menor que la Mínima 14.0 02-02-1982 12:00 13.8 -- 14.0 2013-05-01 12:23:00
2 1982-02-03 12:00:00 Temperatura 14.0 del 03-02-1982 10:00, Menor que la Mínima 14.2 03-02-1982 12:00 14.0 -- 14.2 2013-05-01 12:23:00
2 1982-02-04 12:00:00 Temperatura 13.4 del 04-02-1982 10:00, Menor que la Mínima 13.5 04-02-1982 12:00 13.4 -- 13.5 2013-05-01 12:23:00
2 1982-02-06 12:00:00 Temperatura 12.6 del 06-02-1982 10:00, Menor que la Mínima 13.0 06-02-1982 12:00 12.6 -- 13.0 2013-05-01 12:23:00
2 1982-02-22 12:00:00 Temperatura 13.0 del 22-02-1982 10:00, Menor que la Mínima 13.4 22-02-1982 12:00 13.0 -- 13.4 2013-05-01 12:23:00
2 1982-03-02 12:00:00 Temperatura 12.4 del 02-03-1982 11:00, Menor que la Mínima 12.6 02-03-1982 12:00 12.4 -- 12.6 2013-05-01 12:23:00
2 1982-03-10 12:00:00 Temperatura 17.0 del 10-03-1982 10:00, Menor que la Mínima 17.2 10-03-1982 12:00 17.0 -- 17.2 2013-05-01 12:23:00
2 1982-03-24 12:00:00 Temperatura 12.2 del 24-03-1982 11:00, Menor que la Mínima 12.4 24-03-1982 12:00 12.2 -- 12.4 2013-05-01 12:23:00
2 1982-05-12 12:00:00 Temperatura 10.0 del 12-05-1982 11:00, Menor que la Mínima 10.2 12-05-1982 12:00 10.0 -- 10.2 2013-05-01 12:23:00
2 1982-05-21 12:00:00 Temperatura 6.6 del 21-05-1982 11:00, Menor que la Mínima 7.2 21-05-1982 12:00 6.6 -- 7.2 2013-05-01 12:23:00
2 1982-06-19 12:00:00 Temperatura 11.2 del 19-06-1982 11:00, Menor que la Mínima 11.3 19-06-1982 12:00 11.2 -- 11.3 2013-05-01 12:23:00
2 1982-06-25 12:00:00 Temperatura 8.2 del 25-06-1982 11:00, Menor que la Mínima 8.3 25-06-1982 12:00 8.2 -- 8.3 2013-05-01 12:23:00
2 1982-11-03 12:00:00 Temperatura 13.0 del 03-11-1982 10:00, Menor que la Mínima 13.4 03-11-1982 12:00 13.0 -- 13.4 2013-05-01 12:23:00
2 1982-11-06 12:00:00 Temperatura 10.4 del 06-11-1982 10:00, Menor que la Mínima 10.6 06-11-1982 12:00 10.4 -- 10.6 2013-05-01 12:23:00
2 1982-11-12 12:00:00 Temperatura 10.8 del 12-11-1982 10:00, Menor que la Mínima 11.0 12-11-1982 12:00 10.8 -- 11.0 2013-05-01 12:23:00
2 1982-11-19 12:00:00 Temperatura 12.0 del 19-11-1982 10:00, Menor que la Mínima 12.1 19-11-1982 12:00 12.0 -- 12.1 2013-05-01 12:23:00
2 1982-11-25 12:00:00 Temperatura 11.4 del 25-11-1982 11:00, Menor que la Mínima 11.6 25-11-1982 12:00 11.4 -- 11.6 2013-05-01 12:23:00
2 1982-12-04 12:00:00 Temperatura 14.3 del 04-12-1982 10:00, Menor que la Mínima 14.4 04-12-1982 12:00 14.3 -- 14.4 2013-05-01 12:23:00
2 1982-12-15 12:00:00 Temperatura 12.4 del 15-12-1982 10:00, Menor que la Mínima 12.6 15-12-1982 12:00 12.4 -- 12.6 2013-05-01 12:23:00
2 1982-12-27 12:00:00 Temperatura 14.4 del 27-12-1982 10:00, Menor que la Mínima 14.6 27-12-1982 12:00 14.4 -- 14.6 2013-05-01 12:23:00
2 1983-01-08 12:00:00 Temperatura 16.2 del 08-01-1983 10:00, Menor que la Mínima 16.4 08-01-1983 12:00 16.2 -- 16.4 2013-05-01 12:23:00
2 1983-01-10 12:00:00 Temperatura 15.2 del 10-01-1983 10:00, Menor que la Mínima 15.4 10-01-1983 12:00 15.2 -- 15.4 2013-05-01 12:23:00
2 1983-01-18 12:00:00 Temperatura 16.8 del 18-01-1983 10:00, Menor que la Mínima 17.0 18-01-1983 12:00 16.8 -- 17.0 2013-05-01 12:23:00
2 1983-02-19 12:00:00 Temperatura 15.6 del 19-02-1983 10:00, Menor que la Mínima 15.8 19-02-1983 12:00 15.6 -- 15.8 2013-05-01 12:23:00
2 1983-02-21 12:00:00 Temperatura 14.8 del 21-02-1983 11:00, Menor que la Mínima 15.0 21-02-1983 12:00 14.8 -- 15.0 2013-05-01 12:23:00
2 1983-02-22 12:00:00 Temperatura 13.3 del 22-02-1983 10:00, Menor que la Mínima 13.4 22-02-1983 12:00 13.3 -- 13.4 2013-05-01 12:23:00
2 1983-03-04 12:00:00 Temperatura 16.4 del 04-03-1983 11:00, Menor que la Mínima 16.6 04-03-1983 12:00 16.4 -- 16.6 2013-05-01 12:23:00
2 1983-03-05 12:00:00 Temperatura 17.6 del 05-03-1983 10:00, Menor que la Mínima 17.8 05-03-1983 12:00 17.6 -- 17.8 2013-05-01 12:23:00
2 1983-03-23 12:00:00 Temperatura 14.0 del 23-03-1983 11:00, Menor que la Mínima 14.1 23-03-1983 12:00 14.0 -- 14.1 2013-05-01 12:23:00
2 1983-03-27 12:00:00 Temperatura 14.2 del 27-03-1983 11:00, Menor que la Mínima 14.4 27-03-1983 12:00 14.2 -- 14.4 2013-05-01 12:23:00
2 1983-03-31 12:00:00 Temperatura 11.4 del 31-03-1983 11:00, Menor que la Mínima 11.8 31-03-1983 12:00 11.4 -- 11.8 2013-05-01 12:23:00
2 1984-01-19 12:00:00 Temperatura 14.0 del 19-01-1984 11:00, Menor que la Mínima 14.4 19-01-1984 12:00 14.0 -- 14.4 2013-05-01 12:24:00
2 1984-04-12 12:00:00 Temperatura 12.0 del 12-04-1984 11:00, Menor que la Mínima 12.4 12-04-1984 12:00 12.0 -- 12.4 2013-05-01 12:24:00
2 1985-01-14 12:00:00 Temperatura 13.0 del 14-01-1985 10:00, Menor que la Mínima 13.2 14-01-1985 12:00 13.0 -- 13.2 2013-05-01 12:24:00
2 1985-01-27 12:00:00 Temperatura 14.6 del 27-01-1985 10:00, Menor que la Mínima 14.8 27-01-1985 12:00 14.6 -- 14.8 2013-05-01 12:24:00
2 1985-09-16 12:00:00 Temperatura 6.4 del 16-09-1985 11:00, Menor que la Mínima 6.5 16-09-1985 12:00 6.4 -- 6.5 2013-05-01 12:24:00
2 1986-10-13 12:00:00 Temperatura 10.2 del 13-10-1986 11:00, Menor que la Mínima 10.3 13-10-1986 12:00 10.2 -- 10.3 2013-05-01 12:24:00
2 1986-11-04 12:00:00 Temperatura 9.0 del 04-11-1986 10:00, Menor que la Mínima 9.9 04-11-1986 12:00 9.0 -- 9.9 2013-05-01 12:24:00
2 1986-12-31 12:00:00 Temperatura 13.4 del 31-12-1986 10:00, Menor que la Mínima 13.7 31-12-1986 12:00 13.4 -- 13.7 2013-05-01 12:24:00
2 1987-03-14 12:00:00 Temperatura 13.4 del 14-03-1987 10:00, Menor que la Mínima 13.5 14-03-1987 12:00 13.4 -- 13.5 2013-05-01 12:24:00
2 1988-01-08 12:00:00 Temperatura 12.8 del 08-01-1988 10:00, Menor que la Mínima 14.2 08-01-1988 12:00 12.8 -- 14.2 2013-05-01 12:25:00
2 1988-02-11 12:00:00 Temperatura 14.0 del 11-02-1988 10:00, Menor que la Mínima 14.2 11-02-1988 12:00 14.0 -- 14.2 2013-05-01 12:25:00
2 1989-02-09 12:00:00 Temperatura 14.2 del 09-02-1989 11:00, Menor que la Mínima 14.5 09-02-1989 12:00 14.2 -- 14.5 2013-05-01 12:25:00
2 1989-02-27 12:00:00 Temperatura 13.7 del 27-02-1989 11:00, Menor que la Mínima 13.8 27-02-1989 12:00 13.7 -- 13.8 2013-05-01 12:25:00
2 1989-04-12 12:00:00 Temperatura 8.0 del 12-04-1989 11:00, Menor que la Mínima 8.8 12-04-1989 12:00 8.0 -- 8.8 2013-05-01 12:25:00
2 1990-01-15 12:00:00 Temperatura 14.4 del 15-01-1990 10:00, Menor que la Mínima 14.5 15-01-1990 12:00 14.4 -- 14.5 2013-05-01 12:25:00
2 1990-02-08 12:00:00 Temperatura 14.5 del 08-02-1990 10:00, Menor que la Mínima 14.6 08-02-1990 12:00 14.5 -- 14.6 2013-05-01 12:25:00
2 1990-11-15 12:00:00 Temperatura 8.6 del 15-11-1990 10:00, Menor que la Mínima 8.8 15-11-1990 12:00 8.6 -- 8.8 2013-05-01 12:26:00
2 1990-12-07 12:00:00 Temperatura 12.0 del 07-12-1990 11:00, Menor que la Mínima 12.2 07-12-1990 12:00 12.0 -- 12.2 2013-05-01 12:26:00
2 1991-04-15 12:00:00 Temperatura 12.0 del 15-04-1991 11:00, Menor que la Mínima 12.1 15-04-1991 12:00 12.0 -- 12.1 2013-05-01 12:26:00
2 1991-05-12 12:00:00 Temperatura 10.6 del 12-05-1991 11:00, Menor que la Mínima 11.4 12-05-1991 12:00 10.6 -- 11.4 2013-05-01 12:26:00
2 1991-05-15 12:00:00 Temperatura 8.0 del 15-05-1991 11:00, Menor que la Mínima 8.1 15-05-1991 12:00 8.0 -- 8.1 2013-05-01 12:26:00
2 1992-10-28 12:00:00 Temperatura 9.3 del 28-10-1992 10:00, Menor que la Mínima 9.4 28-10-1992 12:00 9.3 -- 9.4 2013-05-01 12:26:00
2 1992-11-13 12:00:00 Temperatura 11.1 del 13-11-1992 11:00, Menor que la Mínima 11.4 13-11-1992 12:00 11.1 -- 11.4 2013-05-01 12:26:00
2 1992-11-24 12:00:00 Temperatura 11.0 del 24-11-1992 10:00, Menor que la Mínima 11.2 24-11-1992 12:00 11.0 -- 11.2 2013-05-01 12:26:00
2 1992-11-28 12:00:00 Temperatura 11.2 del 28-11-1992 10:00, Menor que la Mínima 11.5 28-11-1992 12:00 11.2 -- 11.5 2013-05-01 12:26:00
2 1992-11-29 12:00:00 Temperatura 10.3 del 29-11-1992 10:00, Menor que la Mínima 10.6 29-11-1992 12:00 10.3 -- 10.6 2013-05-01 12:26:00
2 1992-12-04 12:00:00 Temperatura 11.3 del 04-12-1992 10:00, Menor que la Mínima 11.8 04-12-1992 12:00 11.3 -- 11.8 2013-05-01 12:26:00
2 1992-12-10 12:00:00 Temperatura 11.5 del 10-12-1992 10:00, Menor que la Mínima 11.8 10-12-1992 12:00 11.5 -- 11.8 2013-05-01 12:26:00
2 1992-12-18 12:00:00 Temperatura 12.5 del 18-12-1992 10:00, Menor que la Mínima 12.6 18-12-1992 12:00 12.5 -- 12.6 2013-05-01 12:26:00
2 1993-04-07 12:00:00 Temperatura 9.2 del 07-04-1993 11:00, Menor que la Mínima 9.6 07-04-1993 12:00 9.2 -- 9.6 2013-05-01 12:26:00
2 1993-04-08 12:00:00 Temperatura 9.4 del 08-04-1993 11:00, Menor que la Mínima 9.8 08-04-1993 12:00 9.4 -- 9.8 2013-05-01 12:26:00
2 1993-04-14 12:00:00 Temperatura 11.3 del 14-04-1993 11:00, Menor que la Mínima 11.8 14-04-1993 12:00 11.3 -- 11.8 2013-05-01 12:26:00
2 1993-04-20 12:00:00 Temperatura 11.7 del 20-04-1993 11:00, Menor que la Mínima 11.8 20-04-1993 12:00 11.7 -- 11.8 2013-05-01 12:26:00
2 1993-04-26 12:00:00 Temperatura 11.8 del 26-04-1993 11:00, Menor que la Mínima 11.9 26-04-1993 12:00 11.8 -- 11.9 2013-05-01 12:26:00
2 1993-05-04 12:00:00 Temperatura 12.0 del 04-05-1993 11:00, Menor que la Mínima 13.0 04-05-1993 12:00 12.0 -- 13.0 2013-05-01 12:26:00
2 1993-05-08 12:00:00 Temperatura 11.0 del 08-05-1993 11:00, Menor que la Mínima 11.3 08-05-1993 12:00 11.0 -- 11.3 2013-05-01 12:26:00
2 1993-05-12 12:00:00 Temperatura 9.3 del 12-05-1993 11:00, Menor que la Mínima 9.5 12-05-1993 12:00 9.3 -- 9.5 2013-05-01 12:26:00
2 1993-05-14 12:00:00 Temperatura 7.5 del 14-05-1993 11:00, Menor que la Mínima 7.6 14-05-1993 12:00 7.5 -- 7.6 2013-05-01 12:26:00
2 1993-05-26 12:00:00 Temperatura 4.8 del 26-05-1993 11:00, Menor que la Mínima 5.0 26-05-1993 12:00 4.8 -- 5.0 2013-05-01 12:26:00
2 1993-06-09 12:00:00 Temperatura 7.0 del 09-06-1993 11:00, Menor que la Mínima 7.1 09-06-1993 12:00 7.0 -- 7.1 2013-05-01 12:26:00
2 1993-07-09 12:00:00 Temperatura 6.2 del 09-07-1993 11:00, Menor que la Mínima 6.3 09-07-1993 12:00 6.2 -- 6.3 2013-05-01 12:26:00
2 1993-10-26 12:00:00 Temperatura 13.0 del 26-10-1993 10:00, Menor que la Mínima 14.2 26-10-1993 12:00 13.0 -- 14.2 2013-05-01 12:26:00
2 1993-11-05 12:00:00 Temperatura 10.2 del 05-11-1993 10:00, Menor que la Mínima 10.3 05-11-1993 12:00 10.2 -- 10.3 2013-05-01 12:26:00
2 1993-11-09 12:00:00 Temperatura 12.1 del 09-11-1993 10:00, Menor que la Mínima 12.2 09-11-1993 12:00 12.1 -- 12.2 2013-05-01 12:26:00
2 1993-11-23 12:00:00 Temperatura 8.6 del 23-11-1993 10:00, Menor que la Mínima 8.9 23-11-1993 12:00 8.6 -- 8.9 2013-05-01 12:26:00
2 1993-11-25 12:00:00 Temperatura 11.0 del 25-11-1993 10:00, Menor que la Mínima 11.2 25-11-1993 12:00 11.0 -- 11.2 2013-05-01 12:26:00
2 1993-11-27 12:00:00 Temperatura 10.7 del 27-11-1993 11:00, Menor que la Mínima 10.8 27-11-1993 12:00 10.7 -- 10.8 2013-05-01 12:26:00
2 1993-12-04 12:00:00 Temperatura 11.3 del 04-12-1993 10:00, Menor que la Mínima 11.6 04-12-1993 12:00 11.3 -- 11.6 2013-05-01 12:26:00
2 1993-12-07 12:00:00 Temperatura 10.1 del 07-12-1993 10:00, Menor que la Mínima 10.7 07-12-1993 12:00 10.1 -- 10.7 2013-05-01 12:26:00
2 1993-12-13 12:00:00 Temperatura 14.8 del 13-12-1993 10:00, Menor que la Mínima 15.0 13-12-1993 12:00 14.8 -- 15.0 2013-05-01 12:26:00
2 1993-12-25 12:00:00 Temperatura 12.2 del 25-12-1993 10:00, Menor que la Mínima 12.7 25-12-1993 12:00 12.2 -- 12.7 2013-05-01 12:26:00
2 1993-12-30 12:00:00 Temperatura 13.3 del 30-12-1993 10:00, Menor que la Mínima 13.5 30-12-1993 12:00 13.3 -- 13.5 2013-05-01 12:26:00
2 1998-12-22 12:00:00 Temperatura 13.0 del 22-12-1998 11:30, Menor que la Mínima 13.2 22-12-1998 12:00 13.0 -- 13.2 2013-05-01 12:28:00
2 2002-01-04 12:00:00 Temperatura 13.2 del 04-01-2002 11:30, Menor que la Mínima 13.4 04-01-2002 12:00 13.2 -- 13.4 2013-05-01 12:29:00
2 2003-02-19 12:00:00 Temperatura 11.0 del 19-02-2003 11:30, Menor que la Mínima 11.4 19-02-2003 12:00 11.0 -- 11.4 2013-05-01 12:29:00
Errores del Nivel 718
Informe generado el 17-07-2024 13:36
Requerimiento: RE6001